Date StartTime U_cm/s V_cm/s W_cm/s Ustd_cm/s Vstd_cm/s Wstd_cm/s Uvar_(cm/s)^2 Vvar_(cm/s)^2 Wvar_(cm/s)^2 KE_(m/s)^2 TurbulentKE_(m/s)^2 HorizWindSpeed_cm/s FrictionSpeec_cm/s DragCoef SpeedOfSound_m/s SonicTemperature_C Pressure_mb 
03/10/2014  00:00:00      -65.354     -109.899        6.448       80.796       54.587       30.623     6528.066     2979.729      937.788        1.342        0.522      127.863       32.700        0.065      339.871       13.500      862.375
03/10/2014  00:01:00      -73.915     -164.719       -8.109      103.770       95.629       45.340    10768.295     9144.965     2055.751        2.731        1.098      180.543       39.619        0.048      339.938       13.611      862.401
03/10/2014  00:02:00     -137.275     -152.838       -7.567       89.756      101.976       58.394     8056.187    10399.043     3409.829        3.206        1.093      205.435       59.278        0.083      339.838       13.444      862.388
03/10/2014  00:03:00     -120.023     -164.297       -7.284       99.241       80.357       46.058     9848.744     6457.291     2121.377        2.994        0.921      203.468       37.992        0.035      339.809       13.395      862.360
03/10/2014  00:04:00      -41.176     -117.425       -1.941       70.155       36.033       42.342     4921.792     1298.366     1792.827        1.175        0.401      124.435       14.691        0.014      339.766       13.324      862.355
03/10/2014  00:05:00      -36.002     -121.875       -9.300      103.498       92.183       47.218    10711.826     8497.791     2229.577        1.883        1.072      127.081       40.223        0.100      339.831       13.432      862.387
03/10/2014  00:06:00      -95.996     -238.406      -15.859      115.364      154.221       70.350    13308.771    23784.065     4949.189        5.416        2.102      257.007       72.106        0.079      339.895       13.540      862.404
03/10/2014  00:07:00      -13.724     -122.937      -23.010       93.675       76.957       58.505     8774.975     5922.456     3422.881        1.697        0.906      123.700       35.005        0.080      339.895       13.540      862.432
03/10/2014  00:08:00      -40.463     -205.022      -21.228       99.669      100.042       58.373     9933.999    10008.378     3407.451        3.373        1.167      208.976       33.146        0.025      340.049       13.799      862.470
03/10/2014  00:09:00      -21.315     -229.333      -26.310      107.303       98.027       51.319    11514.004     9609.348     2633.668        3.874        1.188      230.321       39.447        0.029      340.031       13.769      862.483
03/10/2014  00:10:00      -48.893     -340.308      -29.975      127.959       97.004       71.252    16373.390     9409.792     5076.814        7.497        1.543      343.803       37.281        0.012      340.032       13.769      862.495
03/10/2014  00:11:00     -103.601     -136.185      -16.069      110.361       79.694       54.442    12179.628     6351.114     2963.881        2.551        1.075      171.113       42.572        0.062      339.928       13.595      862.509
03/10/2014  00:12:00      -34.973     -140.543       25.183       55.784      106.109       49.440     3111.812    11259.160     2444.291        1.921        0.841      144.829       44.648        0.095      339.873       13.503      862.526
03/10/2014  00:13:00      -11.719     -166.190      -12.893      153.025      117.253       54.956    23416.514    13748.363     3020.113        3.405        2.009      166.603       41.893        0.063      339.902       13.551      862.525
03/10/2014  00:14:00      -41.104     -142.911      -15.706       66.791       70.914       41.966     4461.084     5028.835     1761.184        1.680        0.563      148.704       33.472        0.051      339.955       13.641      862.504
03/10/2014  00:15:00      -44.122      -96.544       -1.642      120.833       73.453       57.730    14600.568     5395.328     3332.787        1.729        1.166      106.148       26.584        0.063      339.952       13.637      862.454
03/10/2014  00:16:00       29.313     -194.919      -23.009      115.529       82.836       59.629    13346.836     6861.760     3555.585        3.157        1.188      197.111       32.350        0.027      340.011       13.733      862.468
03/10/2014  00:17:00       21.258     -216.667      -24.462      132.274      128.542       67.726    17496.304    16522.935     4586.794        4.329        1.930      217.708       48.605        0.050      340.003       13.720      862.499
03/10/2014  00:18:00        0.257     -142.313        3.544       98.040      100.616       64.711     9611.753    10123.672     4187.475        2.209        1.196      142.313       54.872        0.149      339.934       13.607      862.447
03/10/2014  00:19:00      -83.484     -135.877      -13.449       70.634      101.589       57.130     4989.204    10320.294     3263.885        2.209        0.929      159.475       36.723        0.053      339.868       13.494      862.433
03/10/2014  00:20:00       -0.084     -171.753      -21.728       79.968       81.170       55.661     6394.811     6588.491     3098.169        2.302        0.804      171.753       47.953        0.078      339.933       13.605      862.441
03/10/2014  00:21:00       30.185     -149.628       -5.199       90.775      118.171       55.473     8240.085    13964.268     3077.269        2.430        1.264      152.642       61.403        0.162      339.969       13.665      862.431
03/10/2014  00:22:00      -21.849     -263.052       -4.345      123.944      127.017       57.417    15362.129    16133.363     3296.675        5.224        1.740      263.958       11.782        0.002      340.085       13.858      862.431
03/10/2014  00:23:00      -27.684      -62.244        7.860       55.451       62.354       38.614     3074.853     3888.047     1491.030        0.658        0.423       68.123       37.897        0.309      339.929       13.599      862.417
03/10/2014  00:24:00      -16.648     -161.827      -14.992       84.990       73.430       52.477     7223.274     5391.966     2753.862        2.103        0.768      162.681       34.995        0.046      339.967       13.660      862.437
03/10/2014  00:25:00        6.120     -230.956      -17.574      128.226       92.840       60.076    16441.869     8619.243     3609.086        4.117        1.434      231.037       38.012        0.027      340.039       13.782      862.466
03/10/2014  00:26:00        3.652     -143.460        2.311      101.630       69.410       52.673    10328.740     4817.808     2774.461        1.926        0.896      143.507       30.676        0.046      339.973       13.672      862.461
03/10/2014  00:27:00     -116.311     -129.418       33.145      191.456      149.166       88.662    36655.295    22250.485     7860.945        4.906        3.338      174.004       94.140        0.293      339.963       13.654      862.428
03/10/2014  00:28:00      -94.278     -124.523      -14.224       81.729      103.429       53.878     6679.665    10697.647     2902.830        2.243        1.014      156.187       54.966        0.124      339.952       13.637      862.410
03/10/2014  00:29:00      -40.938     -154.749       18.150      183.601      133.788       72.597    33709.193    17899.355     5270.396        4.140        2.844      160.072       65.853        0.169      339.953       13.638      862.432
03/10/2014  00:30:00       17.263     -335.508       -2.055      171.933      167.834       84.447    29560.884    28168.158     7131.354        8.885        3.243      335.952       58.168        0.030      340.110       13.900      862.422
03/10/2014  00:31:00      -75.957     -322.314      -16.192      187.040      129.159       75.200    34984.034    16681.967     5654.982        8.361        2.866      331.143       53.372        0.026      340.102       13.887      862.390
03/10/2014  00:32:00      -51.483      -99.235       -8.322       91.070       83.980       36.928     8293.754     7052.711     1363.704        1.464        0.836      111.795       14.628        0.017      340.036       13.780      862.340
03/10/2014  00:33:00     -139.787     -140.745        3.914      124.761      110.384       64.257    15565.302    12184.597     4128.920        3.562        1.594      198.367       51.721        0.068      339.973       13.670      862.343
03/10/2014  00:34:00     -231.986     -173.306        2.691      153.092      129.114       79.649    23437.043    16670.429     6343.916        6.515        2.323      289.573       67.494        0.054      340.007       13.726      862.297
03/10/2014  00:35:00      -20.546     -148.868        1.466      138.037       81.887       52.294    19054.234     6705.528     2734.641        2.553        1.425      150.279       41.896        0.078      340.035       13.775      862.306
03/10/2014  00:36:00       13.732      -45.009       27.027       69.409       80.240       50.681     4817.585     6438.477     2568.601        0.838        0.691       47.057       45.837        0.949      339.967       13.662      862.312
03/10/2014  00:37:00      -33.383      -44.433       36.610       76.625      108.595       66.106     5871.431    11792.914     4369.948        1.323        1.102       55.576       73.226        1.736      339.945       13.625      862.290
03/10/2014  00:38:00       57.696      -43.349       51.905      105.801      150.621       78.714    11193.905    22686.625     6195.834        2.398        2.004       72.166      101.591        1.982      339.864       13.489      862.273
03/10/2014  00:39:00       56.009      -58.709       60.195      125.704      203.233       76.640    15801.518    41303.569     5873.751        3.658        3.149       81.141      107.057        1.741      339.856       13.475      862.216
03/10/2014  00:40:00      113.003     -101.407      121.194      173.172      291.361      173.350    29988.664    84891.310    30050.311        9.131        7.247      151.832      210.435        1.921      339.975       13.673      862.164
03/10/2014  00:41:00      -20.730     -138.307       19.439       82.978      128.155       82.297     6885.279    16423.649     6772.736        2.500        1.504      139.852       65.336        0.218      339.953       13.638      862.242
03/10/2014  00:42:00      -85.227     -284.300        1.282      110.819      138.313       69.919    12280.776    19130.509     4888.703        6.219        1.815      296.800       54.743        0.034      340.043       13.789      862.301
03/10/2014  00:43:00     -116.556     -232.416      -19.608      112.210      120.303       65.998    12591.073    14472.855     4355.706        4.970        1.571      260.005       60.722        0.055      340.018       13.745      862.352
03/10/2014  00:44:00        7.652     -192.954       -5.365      124.654       96.197       63.127    15538.689     9253.863     3984.959        3.304        1.439      193.106       58.386        0.091      340.093       13.871      862.329
03/10/2014  00:45:00     -199.173     -171.924       -4.639      170.734      129.185       66.459    29150.192    16688.734     4416.785        5.974        2.513      263.112       61.610        0.055      339.865       13.487      862.293
03/10/2014  00:46:00     -232.230     -192.029       -4.136      200.880      130.750       82.503    40352.723    17095.642     6806.669        7.753        3.213      301.340       75.591        0.063      339.864       13.487      862.324
03/10/2014  00:47:00     -111.151     -177.116       -6.047      162.143      109.038       93.288    26290.416    11889.232     8702.654        4.531        2.344      209.104       90.403        0.187      339.904       13.552      862.313
03/10/2014  00:48:00      -81.224     -261.541      -24.032      120.948      139.011       64.888    14628.536    19324.031     4210.418        5.686        1.908      273.864       43.330        0.025      340.069       13.832      862.302
03/10/2014  00:49:00     -138.336     -121.301       -5.634       98.432       75.672       44.694     9688.914     5726.202     1997.587        2.564        0.871      183.986       41.459        0.051      340.019       13.748      862.255
03/10/2014  00:50:00     -188.107     -308.752       -9.205      138.450      147.260       68.093    19168.439    21685.374     4636.692        8.813        2.275      361.541       79.067        0.048      340.026       13.757      862.238
03/10/2014  00:51:00      -89.327     -191.367       10.778      102.722      159.324       65.296    10551.817    25384.095     4263.566        4.245        2.010      211.189       68.680        0.106      339.963       13.654      862.177
03/10/2014  00:52:00      -15.914      -79.282        8.934       62.856       52.889       46.567     3950.862     2797.258     2168.456        0.777        0.446       80.864       29.682        0.135      339.925       13.593      862.147
03/10/2014  00:53:00      -25.682     -100.246       -6.296       69.264       71.076       35.084     4797.569     5051.775     1230.877        1.091        0.554      103.483       32.063        0.096      339.970       13.668      862.145
03/10/2014  00:54:00       -3.060     -267.541       -2.286      168.719      125.010       68.908    28465.991    15627.440     4748.248        6.021        2.442      267.558       44.350        0.027      339.988       13.695      862.188
03/10/2014  00:55:00      -17.312     -212.637       18.578      105.606      120.980       69.467    11152.570    14636.280     4825.685        3.823        1.531      213.340       64.369        0.091      339.996       13.709      862.123
03/10/2014  00:56:00       75.133      -80.312       28.414       96.071      131.828       85.433     9229.604    17378.527     7298.858        2.340        1.695      109.977       93.831        0.728      339.869       13.496      862.035
03/10/2014  00:57:00       89.605      -62.706       40.175      142.614      148.064       87.381    20338.839    21923.030     7635.493        3.173        2.495      109.367       99.102        0.821      339.782       13.352      861.992
03/10/2014  00:58:00       47.985      -88.367       19.280       84.289       87.744       50.110     7104.632     7699.091     2511.007        1.390        0.866      100.555       49.053        0.238      339.895       13.542      861.974
03/10/2014  00:59:00       46.069      -61.457       36.416      132.519      148.006      108.311    17561.276    21905.827    11731.171        2.920        2.560       76.807      120.959        2.480      339.811       13.399      861.908
03/10/2014  01:00:00       28.756     -105.866       53.795       86.257      146.522       86.617     7440.325    21468.656     7502.432        2.566        1.821      109.702       95.941        0.765      339.711       13.229      861.889
03/10/2014  01:01:00       63.560     -210.839      -10.058      145.762      150.303       80.804    21246.656    22591.058     6529.291        4.947        2.518      220.212       62.731        0.081      339.777       13.340      861.886
03/10/2014  01:02:00      143.986     -246.929        3.802      112.224      163.313       72.955    12594.144    26670.994     5322.378        6.315        2.229      285.842       70.405        0.061      339.825       13.420      861.870
03/10/2014  01:03:00       26.558     -106.978       27.418      102.836      103.119       64.141    10575.147    10633.551     4114.115        1.911        1.266      110.226       60.074        0.297      339.756       13.306      861.848
03/10/2014  01:04:00      -12.365      -58.043       40.598       87.797      124.790       86.864     7708.260    15572.539     7545.309        1.799        1.541       59.345       88.040        2.201      339.759       13.312      861.824
03/10/2014  01:05:00     -232.782     -257.670       -1.493      127.001      178.150       75.634    16129.351    31737.438     5720.461        8.707        2.679      347.248       76.318        0.048      339.775       13.336      861.862
03/10/2014  01:06:00     -168.572     -176.038      -11.314      144.674      132.016       65.936    20930.580    17428.283     4347.579        5.111        2.135      243.734       47.866        0.039      339.745       13.287      861.860
03/10/2014  01:07:00       65.497     -241.302       -1.341      131.972      156.427       85.265    17416.579    24469.461     7270.073        5.583        2.458      250.033       87.007        0.121      339.831       13.431      861.834
03/10/2014  01:08:00       49.257     -249.070      -15.953      133.391      149.242       70.832    17793.145    22273.147     5017.154        5.489        2.254      253.894       67.826        0.071      339.838       13.442      861.806
03/10/2014  01:09:00      158.285     -133.105       60.664      159.675      262.551      155.662    25496.068    68933.183    24230.722        8.253        5.933      206.812      182.842        0.782      339.859       13.479      861.697
03/10/2014  01:10:00      140.990     -155.418       35.381      146.108      198.138      124.561    21347.443    39258.845    15515.480        6.069        3.806      209.840      143.063        0.465      339.826       13.423      861.669
03/10/2014  01:11:00       54.030     -255.478      -32.790      145.638       83.462       67.404    21210.551     6965.850     4543.348        5.098        1.636      261.129       64.764        0.062      339.913       13.567      861.690
03/10/2014  01:12:00      -31.145     -296.674      -21.974      110.931      123.500       70.712    12305.763    15252.360     5000.232        6.101        1.628      298.304       53.607        0.032      339.919       13.578      861.718
03/10/2014  01:13:00      -35.639     -189.620      -13.272       84.434      121.272       55.968     7129.027    14706.890     3132.470        3.118        1.248      192.940       55.476        0.083      339.894       13.538      861.701
03/10/2014  01:14:00      -36.300     -145.864        4.804       87.822       77.621       45.283     7712.637     6025.002     2050.577        1.920        0.789      150.313       27.420        0.033      339.852       13.466      861.684
03/10/2014  01:15:00      -70.655     -183.393      -30.409       68.217      128.009       43.174     4653.601    16386.207     1864.008        3.122        1.145      196.533       37.227        0.036      339.817       13.408      861.687
03/10/2014  01:16:00      -88.958     -126.868        6.713      107.318      101.585       60.091    11517.071    10319.577     3610.929        2.475        1.272      154.948       39.196        0.064      339.751       13.296      861.677
03/10/2014  01:17:00      -65.662     -108.721      -23.543       90.937       72.594       32.307     8269.547     5269.891     1043.756        1.563        0.729      127.011       35.948        0.080      339.722       13.249      861.707
03/10/2014  01:18:00      -59.549     -139.166        5.375      105.214       89.492       38.235    11069.907     8008.830     1461.886        2.174        1.027      151.372       28.375        0.035      339.730       13.261      861.703
03/10/2014  01:19:00     -132.742     -135.391       -2.198       71.149       54.914       38.887     5062.232     3015.499     1512.163        2.277        0.479      189.608       28.091        0.022      339.655       13.135      861.659
03/10/2014  01:20:00       -4.460     -110.291       14.215      142.667       71.773       66.166    20353.850     5151.408     4377.982        2.113        1.494      110.381       40.654        0.136      339.672       13.164      861.618
03/10/2014  01:21:00     -173.109     -148.305       -7.040      167.724       95.096       56.570    28131.330     9043.279     3200.140        4.618        2.019      227.950       63.382        0.077      339.617       13.070      861.634
03/10/2014  01:22:00      -37.697      -88.402       18.440       93.870      104.181       68.056     8811.554    10853.661     4631.559        1.693        1.215       96.104       66.170        0.474      339.655       13.137      861.646
03/10/2014  01:23:00     -140.629     -131.212        3.015      114.402      109.205       51.282    13087.735    11925.673     2629.875        3.232        1.382      192.336       48.178        0.063      339.521       12.908      861.677
03/10/2014  01:24:00     -178.403     -122.865        0.205       99.340       58.794       42.618     9868.349     3456.725     1816.332        3.103        0.757      216.619       39.119        0.033      339.503       12.876      861.638
03/10/2014  01:25:00     -200.598     -218.677       -5.910      114.761      115.525       63.918    13170.119    13346.115     4085.509        5.934        1.530      296.748       60.628        0.042      339.529       12.920      861.638
03/10/2014  01:26:00     -157.528     -170.508        2.815      111.139      125.801       67.818    12351.873    15825.892     4599.219        4.333        1.639      232.138       64.757        0.078      339.502       12.875      861.644
03/10/2014  01:27:00       -2.228     -102.678        9.223      132.633       74.734       62.537    17591.464     5585.239     3910.927        1.885        1.354      102.702       47.525        0.214      339.542       12.946      861.681
03/10/2014  01:28:00       40.917      -99.358       13.372       91.953      126.179       70.103     8455.323    15921.114     4914.477        2.050        1.465      107.453       71.231        0.439      339.629       13.091      861.687
03/10/2014  01:29:00      217.672     -408.995      -54.777      166.898      169.281       88.523    27855.018    28656.205     7836.398       14.099        3.217      463.312       63.222        0.019      339.641       13.111      861.611
03/10/2014  01:30:00      130.004     -346.364      -28.484      137.360      163.601       89.222    18867.724    26765.378     7960.634        9.563        2.680      369.958       81.328        0.048      339.670       13.158      861.642
03/10/2014  01:31:00       52.718     -174.767      -10.363      132.341      109.765       71.254    17514.069    12048.460     5077.169        3.403        1.732      182.545       61.156        0.112      339.670       13.161      861.650
03/10/2014  01:32:00       57.287     -294.630       -5.436      158.595      170.547       60.450    25152.357    29086.215     3654.158        7.399        2.895      300.147       55.409        0.034      339.696       13.204      861.636
03/10/2014  01:33:00      -28.720     -344.813       -6.876      147.288      134.122       75.612    21693.720    17988.736     5717.212        8.257        2.270      346.007       48.832        0.020      339.699       13.209      861.608
03/10/2014  01:34:00       15.708     -306.264      -20.327      154.714      138.562       77.032    23936.557    19199.414     5933.868        7.175        2.453      306.667       74.902        0.060      339.691       13.195      861.619
03/10/2014  01:35:00       53.942     -272.623      -34.068      147.138      139.082       83.682    21649.494    19343.939     7002.667        6.319        2.400      277.908       71.356        0.066      339.651       13.126      861.617
03/10/2014  01:36:00       12.709     -118.700       10.679      120.763      109.510       64.463    14583.722    11992.355     4155.467        2.254        1.537      119.378       64.110        0.288      339.611       13.062      861.569
03/10/2014  01:37:00      -20.029     -171.290       -1.928       74.145      114.459       41.835     5497.547    13100.906     1750.149        2.504        1.017      172.457       41.877        0.059      339.657       13.139      861.549
03/10/2014  01:38:00       18.885     -165.847       -6.609       98.986      102.567       66.625     9798.284    10519.995     4438.919        2.633        1.238      166.919       63.082        0.143      339.572       12.995      861.552
03/10/2014  01:39:00       31.526     -254.775      -10.465      157.834      129.385       70.248    24911.565    16740.498     4934.739        5.629        2.329      256.718       55.335        0.046      339.638       13.106      861.587
03/10/2014  01:40:00      -20.557     -270.037      -27.164      159.338      145.436       78.460    25388.626    21151.575     6155.964        6.338        2.635      270.819       56.637        0.044      339.706       13.220      861.603
03/10/2014  01:41:00      104.945     -177.447       13.765      103.284      163.933       78.291    10667.525    26874.035     6129.473        4.317        2.184      206.158       83.910        0.166      339.694       13.200      861.582
03/10/2014  01:42:00      103.252     -247.540       -7.110      137.246      125.385       71.850    18836.355    15721.375     5162.397        5.585        1.986      268.211       59.610        0.049      339.646       13.117      861.583
03/10/2014  01:43:00      -56.633     -259.634        5.335      143.497      122.186       80.493    20591.301    14929.524     6479.147        5.631        2.100      265.739       69.055        0.068      339.684       13.184      861.612
03/10/2014  01:44:00      -97.618     -225.798      -14.427      147.452      135.000       62.163    21742.022    18224.942     3864.290        5.227        2.192      245.996       38.799        0.025      339.634       13.099      861.649
03/10/2014  01:45:00      -22.662     -240.066      -15.411      132.888      135.101       75.151    17659.102    18252.257     5647.662        4.996        2.078      241.133       48.833        0.041      339.681       13.177      861.715
03/10/2014  01:46:00      -22.728     -147.514       20.794      134.823      143.067       67.881    18177.244    20468.111     4607.843        3.297        2.163      149.254       44.710        0.090      339.640       13.108      861.697
03/10/2014  01:47:00      -91.734     -305.554      -23.374      119.762      128.099       67.329    14342.890    16409.403     4533.171        6.880        1.764      319.027       32.617        0.010      339.689       13.193      861.694
03/10/2014  01:48:00      -21.402     -243.527       -3.409      266.131      132.014      101.014    70825.956    17427.766    10203.796        7.910        4.923      244.466       78.940        0.104      339.695       13.202      861.662
03/10/2014  01:49:00      -99.769     -185.561        8.774      115.909      104.953       65.522    13434.922    11015.101     4293.101        3.660        1.437      210.682       55.638        0.070      339.611       13.060      861.709
03/10/2014  01:50:00       41.186     -188.384      -12.043      141.468      146.713       70.587    20013.139    21524.658     4982.495        4.192        2.326      192.833       35.675        0.034      339.649       13.125      861.678
03/10/2014  01:51:00       82.104     -174.105      -15.496      148.456      139.140       84.749    22039.255    19360.006     7182.353        4.293        2.429      192.494       86.712        0.203      339.638       13.106      861.641
03/10/2014  01:52:00      -15.006     -117.749      -21.150       88.072       86.547       44.599     7756.610     7490.299     1989.078        1.588        0.862      118.702       28.491        0.058      339.574       12.999      861.665
03/10/2014  01:53:00      -14.829     -204.579      -11.353      104.301      110.667       70.736    10878.663    12247.102     5003.565        3.516        1.406      205.116       45.174        0.049      339.665       13.153      861.673
03/10/2014  01:54:00      -44.685     -192.763      -15.256      130.118      116.909       55.170    16930.788    13667.728     3043.759        3.651        1.682      197.874       37.951        0.037      339.679       13.174      861.641
03/10/2014  01:55:00      112.594     -336.972        2.546      118.392      186.051       78.330    14016.633    34615.030     6135.622        9.049        2.738      355.285       86.494        0.059      339.738       13.275      861.620
03/10/2014  01:56:00      -77.311     -236.150      -22.682      234.548      146.332       69.141    55012.951    21412.947     4780.536        7.172        4.060      248.483       56.030        0.051      339.688       13.190      861.601
03/10/2014  01:57:00      -47.315     -186.666        9.714      122.793      110.688       66.926    15078.129    12251.856     4479.081        3.449        1.590      192.569       59.504        0.095      339.669       13.158      861.591
03/10/2014  01:58:00      -45.783      -77.527       16.373       99.388       57.283       51.161     9878.053     3281.328     2617.466        1.207        0.789       90.036       38.862        0.186      339.699       13.209      861.610
03/10/2014  01:59:00       32.852      -56.838        9.799       76.122       89.047       52.733     5794.522     7929.421     2780.766        1.045        0.825       65.649       59.223        0.814      339.693       13.200      861.597
03/10/2014  02:00:00      -19.874      -49.164        6.551       84.171       43.315       36.110     7084.819     1876.232     1303.924        0.656        0.513       53.029       32.308        0.371      339.621       13.080      861.553
03/10/2014  02:01:00       61.243      -91.822        4.974      100.965       73.844       50.111    10193.969     5452.909     2511.113        1.518        0.908      110.372       41.752        0.143      339.640       13.111      861.523
03/10/2014  02:02:00       28.095     -118.912        3.182       56.094      120.982       65.823     3146.487    14636.613     4332.680        1.852        1.106      122.186       78.722        0.415      339.674       13.167      861.446
03/10/2014  02:03:00       29.375     -195.333      -16.541      122.854      106.183       67.272    15093.046    11274.855     4525.467        3.509        1.545      197.529       30.302        0.024      339.628       13.089      861.439
03/10/2014  02:04:00       54.127     -209.112      -14.224      165.814      146.242       94.948    27494.400    21386.789     9015.043        5.237        2.895      216.003       76.907        0.127      339.629       13.090      861.433
03/10/2014  02:05:00      -64.192     -232.781      -18.681      136.125      122.317       63.276    18529.883    14961.384     4003.797        4.807        1.875      241.469       50.010        0.043      339.692       13.198      861.442
03/10/2014  02:06:00      -84.550     -193.057       -3.146      109.142       97.377       52.456    11912.064     9482.192     2751.670        3.428        1.207      210.760       44.261        0.044      339.647       13.121      861.424
03/10/2014  02:07:00      -22.062     -108.717       -1.154       93.894       75.137       52.811     8816.119     5645.585     2788.996        1.478        0.863      110.933       38.117        0.118      339.610       13.061      861.417
03/10/2014  02:08:00       -8.594     -126.033       10.925       89.663       84.861       57.894     8039.447     7201.397     3351.708        1.733        0.930      126.326       45.695        0.131      339.582       13.011      861.420
03/10/2014  02:09:00      -58.778     -134.771       -8.192       83.656       62.028       37.743     6998.257     3847.509     1424.569        1.698        0.614      147.031       18.356        0.016      339.605       13.052      861.438
03/10/2014  02:10:00       15.832     -171.588       15.992      177.201      121.521       74.529    31400.202    14767.258     5554.526        4.083        2.586      172.316       70.722        0.168      339.582       13.011      861.402
03/10/2014  02:11:00      -28.232     -175.294      -49.658      139.162      180.630       93.054    19366.042    32627.242     8659.079        4.731        3.033      177.553      106.658        0.361      339.515       12.898      861.355
03/10/2014  02:12:00       53.254     -141.512       -1.643      103.737      121.643       73.478    10761.303    14797.127     5398.981        2.690        1.548      151.201       58.935        0.152      339.573       12.995      861.368
03/10/2014  02:13:00        5.225     -197.371        6.179      148.991      167.338       92.946    22198.301    28002.123     8638.870        4.892        2.942      197.440       53.235        0.073      339.555       12.964      861.357
03/10/2014  02:14:00     -197.732     -451.267      -11.777      155.288      243.659       81.954    24114.352    59369.518     6716.385       16.652        4.510      492.686       67.430        0.019      339.633       13.095      861.394
03/10/2014  02:15:00       88.842     -275.493        0.437      176.564      191.103      123.192    31174.759    36520.179    15176.371        8.331        4.144      289.464      117.586        0.165      339.661       13.143      861.396
03/10/2014  02:16:00       32.228     -211.580      -24.230      103.709      145.951       70.065    10755.471    21301.832     4909.097        4.167        1.848      214.020       65.775        0.094      339.701       13.212      861.392
03/10/2014  02:17:00       55.320     -188.568      -14.029      120.025      129.097       71.915    14406.036    16666.083     5171.728        3.752        1.812      196.515       69.227        0.124      339.731       13.263      861.383
03/10/2014  02:18:00       38.019     -239.853      -35.196      126.408      126.812       58.228    15978.998    16081.290     3390.457        4.783        1.773      242.847       54.057        0.050      339.718       13.241      861.375
03/10/2014  02:19:00       42.928     -194.345      -29.790      140.958      129.864       67.534    19869.244    16864.739     4560.851        4.089        2.065      199.030       72.996        0.135      339.656       13.135      861.344
03/10/2014  02:20:00      -32.242     -166.462       -2.839      106.450       88.894       45.733    11331.526     7902.161     2091.517        2.504        1.066      169.556       30.789        0.033      339.658       13.141      861.333
03/10/2014  02:21:00     -124.678     -193.829       -7.737       96.140      159.563       70.708     9242.940    25460.494     4999.574        4.643        1.985      230.466       67.116        0.085      339.662       13.146      861.306
03/10/2014  02:22:00     -110.942     -127.974        8.145      107.114      113.193       57.644    11473.330    12812.600     3322.841        2.817        1.380      169.367       46.359        0.075      339.648       13.121      861.311
03/10/2014  02:23:00      -46.939     -134.905       -7.215      100.849      122.150       61.528    10170.606    14920.687     3785.685        2.466        1.444      142.838       54.468        0.145      339.640       13.110      861.296
03/10/2014  02:24:00       30.081     -154.595        3.733      103.970      110.607       82.823    10809.717    12233.891     6859.729        2.735        1.495      157.494       70.341        0.199      339.623       13.079      861.272
03/10/2014  02:25:00       26.779     -154.382        6.929       99.260      119.324       52.738     9852.636    14238.136     2781.341        2.573        1.344      156.687       54.315        0.120      339.682       13.180      861.254
03/10/2014  02:26:00       -9.287      -96.105        4.968       53.289       63.221       47.422     2839.703     3996.844     2248.858        0.921        0.454       96.553       41.283        0.183      339.645       13.120      861.234
03/10/2014  02:27:00      -31.425      -73.598      -12.953       50.702       43.241       28.487     2570.653     1869.775      811.534        0.591        0.263       80.026       14.170        0.031      339.625       13.087      861.238
03/10/2014  02:28:00        5.005      -59.424       26.252       96.019       55.142       50.180     9219.566     3040.673     2518.035        0.951        0.739       59.635       48.935        0.673      339.573       13.000      861.253
03/10/2014  02:29:00      -37.137      -58.641       22.509       81.282       61.573       45.033     6606.792     3791.207     2027.975        0.887        0.621       69.411       38.662        0.310      339.527       12.920      861.292
03/10/2014  02:30:00      -16.434      -77.688       -4.901       61.338       56.866       26.138     3762.393     3233.766      683.203        0.700        0.384       79.408       30.437        0.147      339.544       12.948      861.321
03/10/2014  02:31:00      -59.146     -137.808       10.056       73.077       98.316       48.846     5340.202     9666.127     2385.935        1.999        0.870      149.965       42.025        0.079      339.589       13.024      861.301
03/10/2014  02:32:00      -54.537     -144.153       17.112      130.959       85.170       56.398    17150.379     7253.892     3180.710        2.581        1.379      154.125       53.735        0.122      339.638       13.105      861.298
03/10/2014  02:33:00      -91.361     -169.900        6.689       95.948       90.230       60.375     9205.981     8141.390     3645.118        2.912        1.050      192.906       54.318        0.079      339.575       12.999      861.322
03/10/2014  02:34:00     -158.309     -146.065      -23.437      130.079       84.682       41.263    16920.658     7170.987     1702.653        3.636        1.290      215.399       34.596        0.026      339.574       12.998      861.336
03/10/2014  02:35:00      -75.546     -203.838       -4.915      146.139      140.831       78.565    21356.552    19833.454     6172.441        4.731        2.368      217.387       55.132        0.064      339.531       12.925      861.343
03/10/2014  02:36:00      -77.494     -139.301        6.427      157.800      128.776       70.848    24900.819    16583.278     5019.400        3.597        2.325      159.405       70.255        0.194      339.610       13.058      861.290
03/10/2014  02:37:00     -141.705     -171.820        2.263      108.192      127.329       50.045    11705.562    16212.668     2504.456        4.001        1.521      222.716       57.143        0.066      339.485       12.848      861.249
03/10/2014  02:38:00     -119.731     -238.965        1.233      163.187      149.561       79.682    26629.859    22368.449     6349.300        6.338        2.767      267.283       76.700        0.082      339.554       12.963      861.290
03/10/2014  02:39:00      -17.809     -120.126       18.982      104.196      119.055       61.847    10856.800    14173.981     3825.098        2.198        1.443      121.439       58.909        0.235      339.601       13.043      861.295
03/10/2014  02:40:00      -48.817     -123.698        9.466       83.445       77.770       60.979     6963.139     6048.204     3718.398        1.725        0.836      132.982       45.464        0.117      339.600       13.043      861.299
03/10/2014  02:41:00     -124.229     -126.762        0.223      159.093      112.421       67.113    25310.609    12638.377     4504.091        3.697        2.123      177.486       64.623        0.133      339.497       12.868      861.323
03/10/2014  02:42:00       -7.087     -205.597      -16.683       93.427      106.155       53.205     8728.557    11268.890     2830.770        3.271        1.141      205.719       49.220        0.057      339.567       12.986      861.312
03/10/2014  02:43:00      -64.595     -137.770        6.771       81.992       85.312       49.177     6722.650     7278.132     2418.347        1.981        0.821      152.162       43.165        0.080      339.590       13.026      861.343
03/10/2014  02:44:00      -22.971     -229.541       -9.665       97.065      123.161       57.083     9421.670    15168.556     3258.483        4.057        1.392      230.687       36.883        0.026      339.640       13.109      861.335
03/10/2014  02:45:00     -176.326     -130.483      -13.802       88.658       63.296       43.203     7860.286     4006.329     1866.524        3.102        0.687      219.355       31.222        0.020      339.510       12.891      861.299
03/10/2014  02:46:00      -66.935     -100.728       12.900      115.424       72.276       43.795    13322.606     5223.790     1917.986        1.762        1.023      120.940       44.483        0.135      339.513       12.896      861.282
03/10/2014  02:47:00      -43.025      -80.967       11.700       62.420       66.075       36.743     3896.271     4365.936     1350.082        0.908        0.481       91.689       40.685        0.197      339.486       12.851      861.277
03/10/2014  02:48:00      -57.055      -42.075        1.490       62.648       36.871       30.885     3924.820     1359.490      953.857        0.563        0.312       70.892       28.677        0.164      339.435       12.766      861.253
03/10/2014  02:49:00      -27.400     -124.226       -6.730       40.417       49.594       31.004     1633.528     2459.519      961.243        1.064        0.253      127.212       18.697        0.022      339.536       12.935      861.238
03/10/2014  02:50:00      -82.226       -3.948        4.437       68.170       46.333       32.704     4647.168     2146.715     1069.571        0.733        0.393       82.321       34.463        0.175      339.515       12.901      861.229
03/10/2014  02:51:00     -118.532     -120.236       -0.362      109.530       70.567       41.348    11996.800     4979.643     1709.675        2.359        0.934      168.839       43.214        0.066      339.442       12.777      861.268
03/10/2014  02:52:00     -187.437     -195.334       13.085      146.816      155.543       64.990    21555.036    24193.656     4223.675        6.171        2.499      270.717       68.924        0.065      339.424       12.745      861.260
03/10/2014  02:53:00      -89.779      -94.042       46.914      140.897       98.440       64.146    19852.064     9690.410     4114.772        2.637        1.683      130.016       64.416        0.245      339.437       12.769      861.222
03/10/2014  02:54:00     -193.195     -123.586      -19.748       72.831       71.870       38.668     5304.397     5165.259     1495.226        3.247        0.598      229.342       33.997        0.022      339.401       12.706      861.202
03/10/2014  02:55:00      -63.454      -90.095        6.398       59.678       60.446       28.792     3561.483     3653.746      829.002        1.011        0.402      110.198       30.501        0.077      339.372       12.660      861.225
03/10/2014  02:56:00       -5.390     -145.853       18.232      106.347       99.548       54.707    11309.690     9909.807     2992.890        2.292        1.211      145.953       59.186        0.164      339.482       12.843      861.255
03/10/2014  02:57:00       60.626     -163.534       -3.724      118.419      101.063       60.318    14023.084    10213.657     3638.231        2.915        1.394      174.410       54.503        0.098      339.476       12.834      861.176
03/10/2014  02:58:00     -152.722     -107.256       -2.336       69.436       47.645       34.613     4821.336     2270.036     1198.031        2.156        0.414      186.623       32.308        0.030      339.318       12.567      861.200
03/10/2014  02:59:00     -189.670     -134.146       -5.340      122.041       96.383       45.269    14894.096     9289.738     2049.270        4.011        1.312      232.315       58.695        0.064      339.273       12.490      861.197
03/10/2014  03:00:00     -226.315     -186.533      -12.480       82.344      100.367       56.798     6780.481    10073.603     3226.006        5.312        1.004      293.279       43.422        0.022      339.225       12.410      861.178
03/10/2014  03:01:00     -118.604     -159.231        3.236       92.501      112.622       44.836     8556.415    12683.754     2010.294        3.134        1.163      198.548       39.171        0.039      339.251       12.454      861.141
03/10/2014  03:02:00     -158.578     -165.925       -8.817       74.414      105.192       45.118     5537.511    11065.302     2035.596        3.569        0.932      229.517       36.029        0.025      339.291       12.520      861.167
03/10/2014  03:03:00     -178.924     -199.604      -13.705      112.519      141.236       59.955    12660.450    19947.589     3594.639        5.412        1.810      268.059       48.154        0.032      339.331       12.588      861.183
03/10/2014  03:04:00      -79.239      -68.266       12.488      123.482       81.641       55.524    15247.898     6665.254     3082.890        1.804        1.250      104.590       51.990        0.247      339.351       12.624      861.150
03/10/2014  03:05:00     -167.647     -175.812       -1.806      114.663      100.914       58.718    13147.616    10183.549     3447.786        4.289        1.339      242.931       53.235        0.048      339.384       12.678      861.125
03/10/2014  03:06:00     -110.636     -209.001      -18.652       74.958      132.528       44.227     5618.703    17563.784     1956.063        4.070        1.257      236.478       25.653        0.012      339.433       12.761      861.127
03/10/2014  03:07:00     -150.438     -205.313        0.050       84.571      131.539       45.870     7152.232    17302.607     2104.030        4.567        1.328      254.529       47.333        0.035      339.366       12.646      861.085
03/10/2014  03:08:00     -214.520     -113.603       12.370      105.031       79.123       44.862    11031.461     6260.490     2012.610        3.919        0.965      242.744       48.600        0.040      339.314       12.559      861.068
03/10/2014  03:09:00     -202.308     -181.837       -4.113      117.520       91.457       61.220    13810.983     8364.431     3747.907        4.996        1.296      272.017       66.963        0.061      339.324       12.574      861.045
03/10/2014  03:10:00     -207.200     -122.799       10.507      104.824       92.902       48.620    10988.159     8630.785     2363.868        4.005        1.099      240.856       38.558        0.026      339.313       12.557      861.035
03/10/2014  03:11:00     -191.362      -85.678        7.764      110.335       58.022       49.666    12173.890     3366.543     2466.681        3.101        0.900      209.667       59.424        0.080      339.307       12.547      861.013
03/10/2014  03:12:00     -104.577     -121.938       -0.471       80.939       69.821       38.024     6551.088     4875.027     1445.799        1.934        0.644      160.640       42.064        0.069      339.261       12.473      861.020
03/10/2014  03:13:00     -121.551     -165.692        0.226       74.897       71.543       46.949     5609.551     5118.471     2204.187        2.758        0.647      205.495       44.516        0.047      339.280       12.502      861.005
03/10/2014  03:14:00      -58.103      -63.081       14.968       70.485       92.209       39.616     4968.177     8502.496     1569.395        1.131        0.752       85.763       53.873        0.395      339.287       12.515      860.987
03/10/2014  03:15:00      -30.578      -38.539       -0.579       44.414       68.132       31.497     1972.571     4641.990      992.073        0.501        0.380       49.197       30.966        0.396      339.317       12.567      860.937
03/10/2014  03:16:00       58.988     -206.664      -17.646      161.995      177.906       82.940    26242.459    31650.689     6878.962        5.562        3.239      214.917       88.235        0.169      339.390       12.688      860.902
03/10/2014  03:17:00      -98.756     -279.156      -22.603      165.784      131.939       59.877    27484.394    17407.799     3585.315        6.832        2.424      296.109       29.575        0.010      339.388       12.683      860.881
03/10/2014  03:18:00     -195.463      -62.233      -17.274       44.312       47.244       23.161     1963.571     2231.973      536.425        2.355        0.237      205.131        9.676        0.002      339.247       12.447      860.856
03/10/2014  03:19:00     -159.641      -84.158        2.343       64.481       48.680       31.274     4157.785     2369.741      978.047        2.004        0.375      180.466       26.718        0.022      339.201       12.372      860.935
03/10/2014  03:20:00     -187.128      -82.753       -7.483       71.117       95.835       40.235     5057.689     9184.440     1618.832        2.889        0.793      204.609       42.198        0.043      339.291       12.521      860.946
03/10/2014  03:21:00     -166.521     -163.481       -1.663      129.976      106.305       54.725    16893.876    11300.662     2994.822        4.282        1.559      233.356       55.689        0.057      339.272       12.489      860.931
03/10/2014  03:22:00     -115.908     -105.059       -4.179      101.141       93.131       54.080    10229.485     8673.393     2924.648        2.315        1.091      156.436       46.980        0.090      339.243       12.441      860.960
03/10/2014  03:23:00     -170.228     -216.544        8.458      139.480      174.969       58.622    19454.737    30614.268     3436.597        6.471        2.675      275.443       71.505        0.067      339.236       12.429      860.982
03/10/2014  03:24:00     -370.688     -281.835      -19.227      123.416      122.600       73.672    15231.571    15030.872     5427.577       12.644        1.785      465.661       58.245        0.016      339.275       12.492      860.969
03/10/2014  03:25:00     -228.562     -151.860       -7.596      112.375       93.884       61.254    12628.117     8814.137     3752.088        5.027        1.260      274.412       56.889        0.043      339.272       12.488      860.973
03/10/2014  03:26:00      -76.029      -70.316        0.857       82.546       56.959       31.691     6813.825     3244.312     1004.315        1.089        0.553      103.560       36.457        0.124      339.263       12.476      860.965
03/10/2014  03:27:00     -208.136      -74.754        0.260       97.199       69.904       36.665     9447.699     4886.542     1344.329        3.229        0.784      221.154       35.089        0.025      339.246       12.445      860.928
03/10/2014  03:28:00     -226.212      -62.099      -18.991       85.414       58.278       38.295     7295.557     3396.328     1466.502        3.377        0.608      234.581       36.400        0.024      339.088       12.179      860.911
03/10/2014  03:29:00     -234.584      -70.362       -7.850       85.153       82.438       38.245     7251.035     6796.020     1462.691        3.777        0.775      244.910       25.778        0.011      338.991       12.016      860.892
03/10/2014  03:30:00     -261.632     -102.479      -16.975      120.410      109.804       51.341    14498.462    12056.827     2635.899        5.421        1.460      280.986       54.121        0.037      338.897       11.857      860.871
03/10/2014  03:31:00     -300.438      -92.766       -7.134      170.978      123.608       63.427    29233.346    15278.862     4023.021        7.372        2.427      314.434       69.288        0.049      338.865       11.805      860.833
03/10/2014  03:32:00     -369.823     -141.895        0.159      162.466      138.542       74.621    26395.071    19193.895     5568.265       10.402        2.558      396.110       72.204        0.033      338.801       11.699      860.781
03/10/2014  03:33:00     -226.743      -65.384        7.887      119.834       99.715       54.354    14360.247     9943.093     2954.304        4.150        1.363      235.982       64.476        0.075      338.818       11.727      860.785
03/10/2014  03:34:00     -237.547      -75.429       -1.974      122.292       74.830       53.899    14955.445     5599.568     2905.131        4.279        1.173      249.235       64.619        0.067      338.747       11.605      860.755
03/10/2014  03:35:00     -251.599      -34.387       11.622      131.361       89.041       59.056    17255.785     7928.358     3487.566        4.664        1.434      253.938       66.672        0.069      338.726       11.572      860.706
03/10/2014  03:36:00     -287.765     -163.341      -11.524      125.278       90.699       48.473    15694.632     8226.284     2349.624        6.794        1.314      330.891       53.367        0.026      338.799       11.693      860.627
03/10/2014  03:37:00     -182.622     -114.994        8.833       96.287       98.438       58.974     9271.256     9690.026     3477.973        3.454        1.122      215.811       56.118        0.068      338.988       12.009      860.584
03/10/2014  03:38:00      -53.953      -89.862       11.411       86.839       94.690       50.335     7540.954     8966.163     2533.584        1.507        0.952      104.815       42.480        0.164      338.992       12.020      860.614
03/10/2014  03:39:00     -249.867      -78.498       -2.489      174.600       99.528       47.489    30485.127     9905.858     2255.252        5.562        2.132      261.907       63.105        0.058      338.858       11.794      860.559
03/10/2014  03:40:00     -248.473     -117.057       -1.797      104.363       76.639       42.257    10891.559     5873.462     1785.682        4.699        0.928      274.665       41.172        0.022      338.677       11.487      860.525
03/10/2014  03:41:00     -139.774      -25.072       18.596      178.627       95.226       72.076    31907.434     9068.003     5195.004        3.333        2.309      142.005       94.015        0.438      338.660       11.460      860.496
03/10/2014  03:42:00     -345.412      -25.868      -10.447      138.472      113.911       67.858    19174.626    12975.686     4604.688        7.841        1.838      346.379       77.324        0.050      338.630       11.410      860.524
03/10/2014  03:43:00     -369.356     -123.511      -14.571      175.970      131.392       67.301    30965.442    17263.826     4529.468       10.231        2.638      389.459       83.194        0.046      338.594       11.348      860.568
03/10/2014  03:44:00     -311.488      -75.519        3.302      144.342       97.937       60.810    20834.556     9591.600     3697.861        6.842        1.706      320.512       75.261        0.055      338.714       11.551      860.567
03/10/2014  03:45:00     -245.437      -83.611      -16.575       91.164       65.376       44.617     8310.949     4273.995     1990.681        4.104        0.729      259.288       40.915        0.025      338.617       11.386      860.611
03/10/2014  03:46:00     -188.571      -60.686       -7.209      151.697       82.349       70.071    23012.074     6781.277     4909.982        3.699        1.735      198.096       86.509        0.191      338.738       11.590      860.684
03/10/2014  03:47:00     -266.748      -58.441      -26.174       66.412       50.648       43.964     4410.508     2565.208     1932.861        4.208        0.445      273.075       31.823        0.014      338.776       11.655      860.764
03/10/2014  03:48:00     -312.639      -85.534       -7.733       90.179       69.904       38.206     8132.307     4886.560     1459.669        5.980        0.724      324.129       35.720        0.012      338.623       11.397      860.801
03/10/2014  03:49:00     -248.237      -25.065       -9.496      132.982       84.883       45.797    17684.131     7205.193     2097.399        4.466        1.349      249.499       43.422        0.030      338.567       11.306      860.825
03/10/2014  03:50:00     -202.692      -79.569       13.172      157.345       99.958       54.149    24757.592     9991.688     2932.137        4.263        1.884      217.751       81.213        0.139      338.553       11.282      860.864
03/10/2014  03:51:00     -170.993      -41.108        3.456       98.150       95.265       49.399     9633.338     9075.419     2440.306        2.604        1.057      175.865       45.552        0.067      338.517       11.221      860.903
03/10/2014  03:52:00     -272.227      -57.683      -21.029      155.592      152.610       72.439    24209.007    23289.897     5247.407        6.530        2.637      278.271       65.427        0.055      338.482       11.160      860.924
03/10/2014  03:53:00     -468.384       44.439      -46.169      211.319      137.018       82.241    44655.609    18773.972     6763.552       14.683        3.510      470.487       98.477        0.044      338.443       11.094      860.940
03/10/2014  03:54:00     -554.009      -95.307      -44.054      173.170      158.288       80.507    29987.885    25055.020     6481.373       18.972        3.076      562.147       76.479        0.019      338.440       11.088      860.976
03/10/2014  03:55:00     -430.847     -104.471      -35.008      138.449      124.940       66.374    19168.255    15610.112     4405.492       11.847        1.959      443.332       67.813        0.023      338.427       11.066      860.998
03/10/2014  03:56:00     -533.314     -129.361      -40.566      255.781      167.747       95.681    65424.117    28138.922     9154.905       20.274        5.136      548.779      120.422        0.048      338.441       11.090      860.985
03/10/2014  03:57:00     -430.715     -101.073      -19.855      192.302      185.705       87.922    36980.240    34486.337     7730.216       13.765        3.960      442.415       85.324        0.037      338.420       11.057      860.960
03/10/2014  03:58:00     -491.916     -101.619      -11.230      276.669      188.661      105.545    76545.466    35592.889    11139.791       18.783        6.164      502.302      119.063        0.056      338.363       10.961      860.915
03/10/2014  03:59:00     -502.217      -65.140      -17.023      258.226      187.150      100.706    66680.906    35025.033    10141.787       18.428        5.592      506.423      124.529        0.060      338.334       10.912      860.894
03/10/2014  04:00:00     -577.872     -130.785      -26.415      281.826      157.559       97.192    79426.099    24824.996     9446.224       23.270        5.685      592.487      110.508        0.035      338.259       10.785      860.852
03/10/2014  04:01:00     -464.937     -124.522      -20.673      205.040      182.265       98.352    42041.306    33220.695     9673.048       15.850        4.247      481.323      111.644        0.054      338.243       10.759      860.810
03/10/2014  04:02:00     -393.610     -157.512       -6.575      180.523      152.447       88.143    32588.533    23239.945     7769.273       12.168        3.180      423.957       88.427        0.044      338.233       10.742      860.744
03/10/2014  04:03:00     -335.687     -124.137        2.569      161.601      145.340       77.610    26114.761    21123.636     6023.313        9.067        2.663      357.905       77.268        0.047      338.215       10.710      860.735
03/10/2014  04:04:00     -378.877      -66.770        0.191      180.777      194.056       86.469    32680.491    37657.703     7476.956       11.289        3.891      384.715       97.063        0.064      338.201       10.689      860.661
03/10/2014  04:05:00     -517.846      -37.551      -30.164      243.111      151.593       91.437    59102.836    22980.552     8360.686       18.045        4.522      519.206       95.894        0.034      338.154       10.608      860.640
03/10/2014  04:06:00     -513.566      -80.059       -8.304      288.907      233.761      106.437    83467.259    54644.279    11328.730       20.980        7.472      519.769      114.140        0.048      338.128       10.563      860.558
03/10/2014  04:07:00     -553.104     -103.800      -10.068      224.810      186.843      103.582    50539.360    34910.487    10729.294       20.647        4.809      562.760      116.674        0.043      338.109       10.532      860.543
03/10/2014  04:08:00     -551.495     -103.770       -5.696      268.350      175.284      101.635    72011.641    30724.495    10329.659       21.398        5.653      561.173      120.584        0.046      338.080       10.485      860.542
03/10/2014  04:09:00     -537.976      -44.705      -15.765      221.380      172.324       85.895    49009.300    29695.517     7377.938       18.886        4.304      539.830      104.470        0.037      338.054       10.441      860.453
03/10/2014  04:10:00     -507.300     -111.481      -11.463      216.779      161.414       95.473    46993.226    26054.550     9115.030       17.602        4.108      519.404      110.581        0.045      338.057       10.447      860.409
03/10/2014  04:11:00     -360.807      -87.083      -13.851      203.967      204.834       96.457    41602.723    41956.995     9303.885       11.539        4.643      371.168       96.415        0.067      338.074       10.475      860.400
03/10/2014  04:12:00     -488.409     -127.728      -17.703      186.982      170.374       96.242    34962.114    29027.339     9262.464       16.420        3.663      504.834       83.145        0.027      338.038       10.415      860.397
03/10/2014  04:13:00     -591.908      -64.868      -18.961      190.218      145.352       87.024    36182.736    21127.067     7573.098       20.989        3.244      595.452       85.596        0.021      338.033       10.408      860.384
03/10/2014  04:14:00     -326.351      -94.230       -4.245      159.706      133.233       70.938    25505.869    17751.091     5032.245        8.184        2.414      339.682       79.849        0.055      338.034       10.409      860.367
03/10/2014  04:15:00     -358.384     -112.985       -5.743      171.463      113.507       67.239    29399.497    12883.773     4521.112        9.401        2.340      375.772       77.463        0.042      338.023       10.389      860.334
03/10/2014  04:16:00     -396.502     -100.556      -29.395      213.765      120.537       73.630    45695.596    14529.126     5421.419       11.690        3.282      409.054       93.551        0.052      338.058       10.449      860.261
03/10/2014  04:17:00     -365.421     -177.977      -16.369      172.615      161.931       91.730    29796.000    26221.575     8414.449       11.494        3.222      406.458      100.434        0.061      338.044       10.425      860.177
03/10/2014  04:18:00     -259.500     -190.258        2.567      165.986      126.701       68.211    27551.464    16053.139     4652.716        7.589        2.413      321.774       61.112        0.036      338.042       10.422      860.112
03/10/2014  04:19:00     -426.768     -102.246      -20.844      164.174      142.204       75.149    26952.963    20222.059     5647.428       12.291        2.641      438.845       82.010        0.035      338.015       10.377      860.083
03/10/2014  04:20:00     -428.909       -9.908      -15.660      163.547      125.546       81.934    26747.506    15761.799     6713.244       11.675        2.461      429.023       84.091        0.038      338.004       10.359      860.067
03/10/2014  04:21:00     -436.067      -66.157      -18.058      124.041      126.139       62.743    15386.136    15911.007     3936.650       11.504        1.762      441.057       58.802        0.018      338.012       10.371      860.057
03/10/2014  04:22:00     -335.821      -59.962       -3.487      139.049      107.433       68.287    19334.672    11541.885     4663.108        7.595        1.777      341.132       70.669        0.043      338.006       10.362      860.057
03/10/2014  04:23:00     -227.601      -77.763      -14.884      151.394      112.059       76.878    22920.219    12557.126     5910.271        4.972        2.069      240.519       59.640        0.061      338.026       10.396      860.074
03/10/2014  04:24:00     -290.266      -46.048        8.472      175.965      128.919       69.935    30963.800    16620.189     4890.892        6.945        2.624      293.896       83.915        0.082      338.042       10.422      860.080
03/10/2014  04:25:00     -339.431      -35.691       -3.519      158.550      130.460       64.687    25138.019    17019.750     4184.417        8.141        2.317      341.302       74.873        0.048      338.032       10.406      860.070
03/10/2014  04:26:00     -330.186      -54.599      -15.160      147.674      137.768       69.323    21807.527    18979.971     4805.663        7.890        2.280      334.670       61.309        0.034      338.046       10.428      860.028
03/10/2014  04:27:00     -336.641      -75.164       -6.178      174.824      132.640       61.482    30563.260    17593.382     3779.987        8.547        2.597      344.930       74.521        0.047      338.039       10.418      859.989
03/10/2014  04:28:00     -466.796      -70.837      -15.989      189.511      155.648       71.510    35914.435    24226.438     5113.650       14.420        3.263      472.140       84.482        0.032      338.022       10.388      859.915
03/10/2014  04:29:00     -449.769     -115.230      -19.166      196.286      111.973       68.285    38528.045    12537.932     4662.872       13.582        2.786      464.296       78.450        0.029      338.027       10.398      859.855
03/10/2014  04:30:00     -382.513      -58.168      -17.182      175.845      145.087       72.509    30921.318    21050.208     5257.534       10.360        2.861      386.910       79.919        0.043      338.034       10.410      859.832
03/10/2014  04:31:00     -421.340      -57.257       -7.947      223.604      142.990       74.208    49998.698    20446.058     5506.870       12.839        3.798      425.212       87.306        0.042      338.013       10.374      859.837
03/10/2014  04:32:00     -414.493     -100.839       -6.960      167.905      127.151       75.028    28192.046    16167.267     5629.236       11.599        2.499      426.582       81.398        0.036      337.957       10.279      859.791
03/10/2014  04:33:00     -452.659      -50.698      -10.425      208.668      152.958       90.832    43542.238    23396.019     8250.398       14.137        3.759      455.489      100.211        0.048      337.954       10.275      859.666
03/10/2014  04:34:00     -668.798     -231.228       -9.967      227.015      177.898       97.010    51535.954    31647.569     9410.943       29.671        4.630      707.642      105.882        0.022      337.980       10.317      859.631
03/10/2014  04:35:00     -559.008     -196.243      -55.762      155.091      137.185       73.184    24053.203    18819.651     5355.913       20.116        2.411      592.453       70.249        0.014      337.975       10.310      859.755
03/10/2014  04:36:00     -362.065     -117.479      -23.702      207.488      106.458       71.426    43051.251    11333.205     5101.726       10.246        2.974      380.648       72.743        0.037      337.968       10.298      859.752
03/10/2014  04:37:00     -383.020      -27.407      -36.249      145.193       89.889       53.945    21081.128     8079.992     2910.089        9.041        1.604      383.999       61.958        0.026      337.934       10.239      859.759
03/10/2014  04:38:00     -315.695      -50.783      -35.336      105.908       93.242       54.931    11216.513     8694.031     3017.423        6.320        1.146      319.753       39.402        0.015      337.881       10.150      859.718
03/10/2014  04:39:00     -423.047     -122.640      -14.563      156.047      130.030       71.904    24350.513    16907.706     5170.126       12.032        2.321      440.465       77.542        0.031      337.783        9.988      859.676
03/10/2014  04:40:00     -267.678      -98.880       -6.686      194.834      126.840       77.904    37960.297    16088.369     6068.963        7.078        3.006      285.358       91.441        0.103      337.789        9.998      859.623
03/10/2014  04:41:00     -397.467       -1.475      -33.059      160.604       86.933       60.692    25793.685     7557.406     3683.500        9.805        1.852      397.469       80.825        0.041      337.795       10.007      859.558
03/10/2014  04:42:00     -299.730      -93.905      -10.353      122.872      122.155       55.349    15097.498    14921.869     3063.534        6.592        1.654      314.096       39.361        0.016      337.922       10.221      859.504
03/10/2014  04:43:00     -235.650     -112.786       -3.359      178.952      116.557       79.327    32023.919    13585.548     6292.837        6.007        2.595      261.251       78.964        0.091      337.901       10.185      859.512
03/10/2014  04:44:00     -221.507     -125.566      -11.775      114.744       94.731       52.404    13166.266     8973.992     2746.168        4.492        1.244      254.621       53.777        0.045      337.780        9.982      859.496
03/10/2014  04:45:00     -128.285      -22.428       -2.745       88.069      119.699       66.077     7756.206    14327.764     4366.234        2.170        1.323      130.231       47.957        0.136      337.822       10.054      859.429
03/10/2014  04:46:00     -299.973     -121.353       -9.042      198.983      128.877       70.026    39594.197    16609.192     4903.684        8.294        3.055      323.590       76.674        0.056      337.955       10.275      859.366
03/10/2014  04:47:00     -400.325      -47.010       -9.448      217.001      154.102       83.165    47089.364    23747.432     6916.438       12.014        3.888      403.075       90.592        0.051      337.936       10.244      859.368
03/10/2014  04:48:00     -566.860      -82.831      -36.048      176.421      145.535       87.342    31124.315    21180.311     7628.574       19.470        2.997      572.880       82.466        0.021      337.893       10.171      859.409
03/10/2014  04:49:00     -456.549      -43.479      -27.507      162.665      115.186       69.123    26459.855    13267.801     4778.012       12.779        2.225      458.615       80.472        0.031      337.834       10.072      859.525
03/10/2014  04:50:00     -324.429        6.100      -16.190      152.256      144.511       67.341    23181.853    20883.343     4534.820        7.707        2.430      324.486       76.460        0.056      337.831       10.066      859.576
03/10/2014  04:51:00     -366.129      -90.301       -1.639      160.507      141.733       70.625    25762.566    20088.279     4987.930        9.651        2.542      377.100       66.299        0.031      337.785        9.991      859.610
03/10/2014  04:52:00     -149.412      -73.716       -2.302      106.017       90.477       57.677    11239.664     8186.153     3326.584        2.525        1.138      166.607       59.223        0.126      337.763        9.957      859.656
03/10/2014  04:53:00      -93.701      -38.635        4.576       85.107       76.062       48.849     7243.207     5785.373     2386.235        1.285        0.771      101.353       48.034        0.225      337.776        9.979      859.615
03/10/2014  04:54:00     -222.028       -1.869      -21.092       94.864       63.061       35.141     8999.090     3976.662     1234.901        3.197        0.711      222.036       30.850        0.019      337.713        9.872      859.477
03/10/2014  04:55:00     -229.162     -141.694      -15.178      142.216       91.278       56.316    20225.331     8331.751     3171.470        5.227        1.586      269.429       67.553        0.063      337.654        9.771      859.363
03/10/2014  04:56:00     -514.801     -135.169      -19.970      205.959      165.311       87.891    42418.981    27327.644     7724.849       18.057        3.874      532.251       85.705        0.026      337.619        9.712      859.368
03/10/2014  04:57:00     -459.429     -108.632       -2.154      221.003      173.111       88.453    48842.106    29967.577     7823.990       15.474        4.332      472.097       95.816        0.041      337.639        9.746      859.397
03/10/2014  04:58:00     -635.092      -80.841      -33.718      169.199      142.017       75.195    28628.254    20168.816     5654.239       23.272        2.723      640.217       79.580        0.015      337.684        9.822      859.433
03/10/2014  04:59:00     -453.348      -50.651      -13.810      197.409      122.982       82.813    38970.501    15124.571     6858.057       13.460        3.048      456.169       88.328        0.037      337.617        9.709      859.453
03/10/2014  05:00:00     -462.055     -117.064      -40.255      152.453      116.661       68.945    23241.896    13609.889     4753.371       13.520        2.080      476.654       64.082        0.018      337.580        9.645      859.456
03/10/2014  05:01:00     -396.600     -141.777      -57.420      106.155      101.104       65.232    11268.979    10221.952     4255.261       10.321        1.287      421.179       53.659        0.016      337.606        9.691      859.461
03/10/2014  05:02:00     -402.366      -11.758      -53.394      122.414      123.804       48.976    14985.106    15327.322     2398.629        9.879        1.636      402.538       49.469        0.015      337.569        9.625      859.609
03/10/2014  05:03:00     -100.577       49.138       -9.689       84.348       65.473       46.506     7114.508     4286.733     2162.776        1.309        0.678      111.939       22.273        0.040      337.624        9.724      859.555
03/10/2014  05:04:00     -388.314      -10.086      -25.972      205.216      149.669       74.564    42113.440    22400.855     5559.763       11.081        3.504      388.445       67.082        0.030      337.502        9.515      859.423
03/10/2014  05:05:00     -523.381     -165.652      -17.592      178.794      147.493       88.054    31967.442    21754.143     7753.580       18.156        3.074      548.971       76.214        0.019      337.509        9.526      859.349
03/10/2014  05:06:00     -493.056     -109.839      -12.313      191.080      141.094       74.637    36511.556    19907.378     5570.726       15.864        3.099      505.142       80.110        0.025      337.559        9.610      859.387
03/10/2014  05:07:00     -485.912      -96.996       -8.890      194.241      145.356       74.615    37729.470    21128.268     5567.433       15.500        3.221      495.498       82.843        0.028      337.643        9.752      859.412
03/10/2014  05:08:00     -455.840      -77.163      -22.660      150.402      159.905       72.209    22620.612    25569.746     5214.100       13.382        2.670      462.325       76.719        0.028      337.658        9.778      859.381
03/10/2014  05:09:00     -412.612     -141.049      -16.825      164.039      125.128       75.340    26908.912    15657.113     5676.063       11.932        2.412      436.054       72.317        0.028      337.716        9.875      859.380
03/10/2014  05:10:00     -404.510      -95.666       -8.427      149.666      131.396       76.978    22399.928    17265.005     5925.539       10.921        2.280      415.668       79.476        0.037      337.754        9.939      859.411
03/10/2014  05:11:00     -343.880     -131.944       -0.787      146.846      142.201       84.931    21563.861    20221.165     7213.314        9.232        2.450      368.325       72.748        0.039      337.749        9.932      859.402
03/10/2014  05:12:00     -438.372      -55.902      -37.507      166.459      114.447       80.088    27708.461    13098.115     6414.158       12.195        2.361      441.922       84.639        0.037      337.759        9.946      859.385
03/10/2014  05:13:00     -424.028     -212.778      -21.152      167.439      135.749       87.735    28035.727    18427.848     7697.457       13.983        2.708      474.419       77.819        0.027      337.761        9.950      859.352
03/10/2014  05:14:00     -471.526     -118.594      -33.636      161.315      106.318       65.359    26022.403    11303.429     4271.813       13.956        2.080      486.212       77.740        0.026      337.807       10.027      859.348
03/10/2014  05:15:00     -323.974      -73.810      -15.178      115.489      100.553       61.400    13337.815    10110.985     3769.929        6.892        1.361      332.276       62.072        0.035      337.878       10.145      859.355
03/10/2014  05:16:00     -404.353      -40.745      -34.771       95.854      110.948       55.235     9187.993    12309.523     3050.907        9.545        1.227      406.401       57.823        0.020      337.923       10.219      859.381
03/10/2014  05:17:00     -306.674      -90.567      -22.130       88.102       95.041       55.493     7762.035     9032.866     3079.510        6.130        0.994      319.768       48.192        0.023      337.924       10.221      859.429
03/10/2014  05:18:00     -298.722      -45.369       -8.503      149.664      119.683       64.972    22399.386    14324.080     4221.354        6.615        2.047      302.148       76.591        0.064      337.956       10.276      859.427
03/10/2014  05:19:00     -255.453      -37.123      -29.114       72.048       89.729       59.288     5190.936     8051.219     3515.038        4.212        0.838      258.136       39.119        0.023      337.962       10.287      859.361
03/10/2014  05:20:00     -155.101        4.883      -12.852      121.714       58.210       44.959    14814.382     3388.400     2021.339        2.223        1.011      155.178       42.749        0.076      337.978       10.316      859.364
03/10/2014  05:21:00     -175.553      -43.703        1.086       87.384       60.358       41.389     7635.945     3643.093     1713.062        2.286        0.650      180.911       40.579        0.050      337.981       10.320      859.425
03/10/2014  05:22:00     -170.305     -120.468       11.474      124.523       90.695       56.841    15506.033     8225.579     3230.878        3.530        1.348      208.606       50.406        0.058      337.991       10.338      859.430
03/10/2014  05:23:00     -208.385       30.886       -0.610      151.755       90.248       55.687    23029.456     8144.714     3101.082        3.932        1.714      210.661       68.435        0.106      337.979       10.315      859.385
03/10/2014  05:24:00     -249.209       44.165      -32.633       51.680       92.486       31.587     2670.836     8553.644      997.710        3.867        0.611      253.092       27.772        0.012      337.936       10.243      859.351
03/10/2014  05:25:00     -125.394       36.402      -16.933       63.156       98.447       37.259     3988.669     9691.853     1388.229        1.620        0.753      130.571       45.090        0.119      337.918       10.216      859.368
03/10/2014  05:26:00      -74.667      119.504      -21.577       70.678       58.769       40.630     4995.379     3453.801     1650.795        1.521        0.505      140.912       36.963        0.069      337.952       10.272      859.404
03/10/2014  05:27:00       35.461       54.738        1.790       57.670       41.681       37.318     3325.885     1737.303     1392.638        0.536        0.323       65.221       34.367        0.278      338.108       10.534      859.404
03/10/2014  05:28:00       63.573       59.450      -10.715       55.685       43.253       23.606     3100.863     1870.832      557.238        0.661        0.276       87.039       17.131        0.039      338.027       10.400      859.396
03/10/2014  05:29:00       60.909       76.069        6.392       64.194       75.418       47.309     4120.861     5687.904     2238.113        1.079        0.602       97.450       37.553        0.149      338.014       10.378      859.355
03/10/2014  05:30:00       88.785       53.464       11.207       47.592       44.418       35.978     2264.992     1972.952     1294.444        0.820        0.277      103.640       18.536        0.032      337.946       10.263      859.319
03/10/2014  05:31:00      -69.139      -22.950      -10.884       61.513       41.510       35.045     3783.809     1723.096     1228.155        0.608        0.337       72.848       22.766        0.098      338.047       10.434      859.329
03/10/2014  05:32:00       26.492        2.947       23.543       39.003       30.751       30.582     1521.226      945.636      935.281        0.233        0.170       26.655       24.466        0.843      338.085       10.498      859.381
03/10/2014  05:33:00       73.183       91.055      123.040       72.448       80.995       64.740     5248.785     6560.154     4191.280        2.239        0.800      116.820       68.856        0.347      338.087       10.497      859.367
03/10/2014  05:34:00       30.796       81.129      119.644       63.509       87.443       60.986     4033.405     7646.297     3719.346        1.862        0.770       86.777       56.870        0.429      338.123       10.559      859.338
03/10/2014  05:35:00       58.731       -5.793       72.324       71.972      114.359       71.396     5179.898    13077.881     5097.447        1.603        1.168       59.016       77.107        1.707      338.247       10.768      859.375
03/10/2014  05:36:00        1.591     -101.953      -10.419      107.006       72.868       35.332    11450.220     5309.707     1248.361        1.425        0.900      101.965       47.425        0.216      338.299       10.856      859.425
03/10/2014  05:37:00        2.458       12.534       20.960       55.517       18.437       18.725     3082.181      339.907      350.613        0.219        0.189       12.773        9.589        0.564      338.304       10.863      859.420
03/10/2014  05:38:00       55.797       42.523       25.097       24.972       25.667       16.879      623.579      658.805      284.906        0.356        0.078       70.153        5.526        0.006      338.306       10.867      859.378
03/10/2014  05:39:00      -42.590      -28.296       -1.907       39.967       54.935       23.401     1597.360     3017.853      547.609        0.389        0.258       51.133       25.141        0.242      338.439       11.092      859.306
03/10/2014  05:40:00     -117.683     -157.330      -19.217       43.617       70.417       28.203     1902.478     4958.591      795.397        2.331        0.383      196.474       24.466        0.016      338.538       11.257      859.250
03/10/2014  05:41:00      -40.706     -106.795       -9.437       59.003       71.719       32.345     3481.348     5143.674     1046.212        1.141        0.484      114.289       33.147        0.084      338.548       11.273      859.183
03/10/2014  05:42:00       92.891      -95.788        4.821       92.081       98.472       70.226     8478.942     9696.735     4931.693        2.046        1.155      133.432       60.625        0.206      338.522       11.228      859.145
03/10/2014  05:43:00      105.678      -30.301       56.986      101.021      140.023       95.044    10205.300    19606.450     9033.404        2.708        1.942      109.936      108.209        0.969      338.362       10.959      859.088
03/10/2014  05:44:00       61.014      -88.414       32.989      138.346      206.295      108.384    19139.725    42557.726    11747.141        4.302        3.672      107.423      130.275        1.471      338.370       10.971      859.107
03/10/2014  05:45:00     -134.106     -113.791       13.614      120.966       83.115       55.390    14632.671     6908.173     3068.033        2.786        1.230      175.877       52.852        0.090      338.407       11.034      859.239
03/10/2014  05:46:00      -51.867      -67.345       14.126      106.476       80.772       41.340    11337.052     6524.166     1708.999        1.349        0.979       85.003       55.347        0.424      338.368       10.972      859.237
03/10/2014  05:47:00      -27.793      -98.167        3.231       71.993       70.076       41.220     5183.009     4910.611     1699.063        1.110        0.590      102.026       29.854        0.086      338.403       11.030      859.205
03/10/2014  05:48:00      -25.952      -23.676       10.476       76.141       92.707       57.354     5797.483     8594.642     3289.531        0.951        0.884       35.130       38.987        1.232      338.409       11.040      859.216
03/10/2014  05:49:00       -9.246      -71.584       45.638      125.925       96.756       58.270    15857.230     9361.774     3395.444        1.795        1.431       72.179       35.439        0.241      338.348       10.938      859.220
03/10/2014  05:50:00      -94.301     -146.052        3.992      110.157      109.941       65.146    12134.588    12087.055     4244.025        2.935        1.423      173.851       48.782        0.079      338.340       10.923      859.262
03/10/2014  05:51:00      -52.184     -182.855        2.252      122.996      127.022       65.515    15128.100    16134.464     4292.280        3.585        1.778      190.155       34.379        0.033      338.341       10.925      859.281
03/10/2014  05:52:00     -129.067     -118.578       -8.741      161.233      106.728       53.342    25996.198    11390.826     2845.363        3.551        2.012      175.269       36.868        0.044      338.308       10.870      859.306
03/10/2014  05:53:00     -220.050     -215.351        9.083      222.803      203.422       89.241    49641.335    41380.438     7963.907        9.691        4.949      307.893       98.340        0.102      338.276       10.815      859.306
03/10/2014  05:54:00       13.226     -216.993        4.072      145.126      112.197       57.498    21061.632    12588.159     3306.062        4.211        1.848      217.396       49.239        0.051      338.329       10.903      859.301
03/10/2014  05:55:00      -30.770      -45.354        6.961      164.806       96.863       59.209    27161.101     9382.388     3505.714        2.154        2.002       54.806       54.548        0.991      338.290       10.840      859.338
03/10/2014  05:56:00      -99.192     -156.043      -10.700      110.108       63.301       48.831    12123.777     4007.050     2384.419        2.641        0.926      184.902       39.952        0.047      338.287       10.833      859.374
03/10/2014  05:57:00     -201.374     -107.519       -2.696      102.771       87.254       41.717    10561.966     7613.177     1740.317        3.601        0.996      228.280       49.177        0.046      338.200       10.687      859.446
03/10/2014  05:58:00     -304.453     -198.025       -8.055      170.814      111.801       61.071    29177.583    12499.534     3729.661        8.868        2.270      363.188       74.860        0.042      338.124       10.560      859.477
03/10/2014  05:59:00     -338.408     -126.277      -12.993      122.285      117.001       58.738    14953.634    13689.294     3450.102        8.136        1.605      361.201       53.247        0.022      338.098       10.516      859.442
03/10/2014  06:00:00     -286.080      -79.362       -0.896      115.692       91.996       70.012    13384.601     8463.201     4901.706        5.744        1.337      296.884       63.293        0.045      338.084       10.492      859.400
03/10/2014  06:01:00     -311.564     -118.904       -5.718      114.882      120.433       51.608    13197.785    14504.111     2663.343        7.080        1.518      333.482       51.360        0.024      338.061       10.454      859.451
03/10/2014  06:02:00     -218.845     -145.492       -9.621      154.877      119.295       68.595    23986.989    14231.241     4705.267        5.603        2.146      262.794       86.632        0.109      338.066       10.464      859.516
03/10/2014  06:03:00     -337.795     -120.722      -22.582      146.416      133.739       55.764    21437.754    17886.109     3109.604        8.580        2.122      358.719       56.016        0.024      338.032       10.404      859.547
03/10/2014  06:04:00     -288.657     -149.545       -5.585      148.997      114.425       70.362    22200.207    13093.078     4950.814        7.297        2.012      325.095       78.638        0.059      337.996       10.345      859.546
03/10/2014  06:05:00     -237.416     -138.277       -2.675      109.237      111.665       66.739    11932.631    12468.986     4454.071        5.217        1.443      274.749       65.577        0.057      338.006       10.361      859.510
03/10/2014  06:06:00     -241.607     -207.262      -14.205      104.995       95.594       59.958    11023.957     9138.152     3594.916        6.264        1.188      318.326       44.212        0.019      338.005       10.360      859.532
03/10/2014  06:07:00     -169.297     -143.640        4.982      105.582       69.277       55.188    11147.591     4799.262     3045.727        3.415        0.950      222.022       61.055        0.076      338.020       10.385      859.590
03/10/2014  06:08:00     -117.326      -97.691        2.802       63.478       66.810       31.291     4029.493     4463.626      979.150        1.639        0.474      152.673       20.424        0.018      338.027       10.398      859.545
03/10/2014  06:09:00      -49.395      -71.449       11.685       60.108       40.634       34.384     3612.996     1651.119     1182.246        0.706        0.322       86.861       38.223        0.194      338.014       10.379      859.540
03/10/2014  06:10:00      -59.308     -124.876       -6.895       40.826       40.862       27.849     1666.797     1669.705      775.589        1.163        0.206      138.244       11.282        0.007      338.053       10.444      859.550
03/10/2014  06:11:00      -13.352     -120.406      -20.887       60.490       57.868       39.684     3659.033     3348.746     1574.786        1.185        0.429      121.144       33.044        0.074      338.113       10.544      859.575
03/10/2014  06:12:00      -53.991     -139.254        7.615       47.948       67.748       37.271     2299.040     4589.748     1389.104        1.532        0.414      149.355       30.741        0.042      338.185       10.665      859.593
03/10/2014  06:13:00       38.872       56.970       48.869       61.472       49.243       36.381     3778.828     2424.863     1323.573        0.733        0.376       68.968       23.067        0.112      338.117       10.553      859.482
03/10/2014  06:14:00       47.430      -57.343      -12.585       79.447      143.148       36.204     6311.898    20491.306     1310.759        1.690        1.406       74.417       19.428        0.068      338.121       10.556      859.367
03/10/2014  06:15:00       72.779      -70.854       32.048       57.346      137.402       62.026     3288.517    18879.324     3847.193        1.867        1.301      101.573       80.214        0.624      338.175       10.646      859.292
03/10/2014  06:16:00       45.884      -15.397      120.493      122.482      197.944      112.938    15001.850    39181.762    12754.906        4.189        3.347       48.398      130.587        7.280      338.165       10.627      859.299
03/10/2014  06:17:00       13.952     -139.522       15.127      105.743      104.825       55.631    11181.535    10988.309     3094.817        2.257        1.263      140.218       54.414        0.151      338.295       10.848      859.386
03/10/2014  06:18:00     -130.672      -77.077        7.337      117.303       78.733       45.354    13759.974     6198.904     2056.961        2.254        1.101      151.710       51.070        0.113      338.146       10.598      859.394
03/10/2014  06:19:00     -121.759     -197.060       10.939       96.224      109.853       57.738     9259.081    12067.731     3333.706        3.921        1.233      231.642       57.924        0.063      338.126       10.563      859.386
03/10/2014  06:20:00      -38.526      -39.940       21.303       50.481       53.404       34.078     2548.333     2852.004     1161.297        0.505        0.328       55.493       27.445        0.245      338.193       10.679      859.243
03/10/2014  06:21:00     -174.041     -128.771      -10.119      134.722       79.567       42.587    18149.981     6330.974     1813.692        3.663        1.315      216.499       41.608        0.037      338.142       10.589      859.211
03/10/2014  06:22:00     -267.299      -87.469        6.054      142.901      111.528       61.893    20420.751    12438.597     3830.713        5.791        1.835      281.247       70.284        0.062      338.094       10.509      859.294
03/10/2014  06:23:00      -91.613      -95.549        4.577       95.897       78.710       48.992     9196.142     6195.341     2400.239        1.766        0.890      132.373       36.010        0.074      338.134       10.577      859.334
03/10/2014  06:24:00       91.488     -274.322      -19.031      123.053      140.928       83.815    15142.110    19860.825     7024.968        6.300        2.101      289.176       31.422        0.012      338.127       10.564      859.316
03/10/2014  06:25:00       87.813     -141.019        3.727      102.489       93.877       50.925    10503.933     8812.938     2593.329        2.476        1.096      166.125       46.951        0.080      338.073       10.476      859.179
03/10/2014  06:26:00     -297.326     -188.110       -9.047      156.743      136.536       62.023    24568.455    18642.108     3846.833        8.545        2.353      351.835       72.216        0.042      338.040       10.418      859.193
03/10/2014  06:27:00     -403.797     -170.888       -8.675      172.136      175.826       85.547    29630.827    30914.743     7318.254       13.008        3.393      438.468       90.539        0.043      337.989       10.334      859.282
03/10/2014  06:28:00     -472.843      -74.736      -20.377      182.208      131.816       77.980    33199.681    17375.512     6080.952       14.311        2.833      478.712       75.476        0.025      338.025       10.393      859.376
03/10/2014  06:29:00     -302.576     -161.847       -7.126      119.767      139.859       68.143    14344.167    19560.523     4643.490        7.816        1.927      343.142       61.656        0.032      338.050       10.435      859.483
03/10/2014  06:30:00     -221.027     -167.772        3.368      160.439       98.686       72.477    25740.566     9738.953     5252.963        5.886        2.037      277.489       90.857        0.107      338.034       10.409      859.588
03/10/2014  06:31:00     -192.683      -75.660       -0.219      120.734      121.949       67.235    14576.720    14871.438     4520.541        3.840        1.698      207.005       75.089        0.132      337.975       10.310      859.584
03/10/2014  06:32:00      -76.821      -85.340        5.155       87.235      119.878       51.524     7609.985    14370.711     2654.724        1.892        1.232      114.823       43.621        0.144      337.998       10.351      859.519
03/10/2014  06:33:00     -160.053     -150.855        4.299      121.584      107.178       53.884    14782.734    11487.180     2903.501        3.878        1.459      219.941       49.345        0.050      338.011       10.371      859.451
03/10/2014  06:34:00     -129.939      -95.375       -0.587       65.445       63.878       34.516     4282.984     4080.453     1191.363        1.777        0.478      161.185       28.629        0.032      337.989       10.335      859.354
03/10/2014  06:35:00        0.601     -124.462      -11.474       53.514       50.100       34.892     2863.722     2509.979     1217.480        1.111        0.330      124.464       25.038        0.040      338.127       10.567      859.353
03/10/2014  06:36:00     -100.498     -127.040        0.653      151.851      113.478       51.816    23058.579    12877.165     2684.907        3.242        1.931      161.985       48.107        0.088      338.078       10.485      859.346
03/10/2014  06:37:00     -137.592      -95.997       -2.300       91.229       81.185       43.142     8322.649     6591.050     1861.206        2.246        0.839      167.770       35.818        0.046      337.945       10.261      859.259
03/10/2014  06:38:00     -138.406     -171.123       10.272      114.666      103.583       53.611    13148.242    10729.410     2874.145        3.764        1.338      220.089       55.015        0.062      337.961       10.287      859.220
03/10/2014  06:39:00     -156.179     -211.606       -8.742       89.293       69.249       51.125     7973.233     4795.363     2613.764        4.231        0.769      263.000       52.307        0.040      337.921       10.217      859.209
03/10/2014  06:40:00     -214.514     -151.797       -0.684      128.641       74.453       56.408    16548.621     5543.237     3181.813        4.716        1.264      262.790       56.484        0.046      337.923       10.221      859.207
03/10/2014  06:41:00     -324.211     -159.185        2.350      182.458      110.764       67.286    33290.753    12268.599     4527.445        9.026        2.504      361.182       86.697        0.058      337.867       10.127      859.176
03/10/2014  06:42:00      -59.447     -158.048       34.208      113.901      144.769       70.932    12973.450    20958.121     5031.296        3.432        1.948      168.858       77.554        0.211      337.900       10.184      859.064
03/10/2014  06:43:00      -65.549     -145.004        1.375      124.637      121.960       68.257    15534.473    14874.225     4658.967        3.019        1.753      159.132       47.639        0.090      337.947       10.264      858.884
03/10/2014  06:44:00      -88.010     -190.102       -6.724      141.168      110.827       59.044    19928.316    12282.545     3486.147        3.981        1.785      209.486       42.146        0.040      337.963       10.289      858.822
03/10/2014  06:45:00     -304.473     -232.122       -7.105      194.675      139.416       75.817    37898.370    19436.773     5748.268       10.485        3.154      382.864       87.112        0.052      337.896       10.176      858.852
03/10/2014  06:46:00       60.789      -68.723       39.832      113.224      130.306       58.844    12819.690    16979.658     3462.579        2.163        1.663       91.750       59.119        0.415      338.007       10.364      858.920
03/10/2014  06:47:00      -87.286     -100.546        6.160      109.412      121.029       55.069    11970.979    14648.112     3032.582        2.370        1.483      133.148       54.126        0.165      338.000       10.352      858.993
03/10/2014  06:48:00     -268.196     -158.645        2.922      116.622       85.021       62.885    13600.604     7228.594     3954.497        6.094        1.239      311.605       55.617        0.032      337.886       10.158      859.065
03/10/2014  06:49:00     -199.722     -139.718       -3.114      141.499      121.462       67.489    20022.010    14753.008     4554.816        4.937        1.966      243.742       76.485        0.098      337.869       10.131      859.136
03/10/2014  06:50:00     -186.391     -149.827       11.775      152.568      171.685       67.112    23277.051    29475.771     4504.084        5.728        2.863      239.144       87.372        0.133      337.861       10.119      859.146
03/10/2014  06:51:00     -327.018     -114.854        2.196      166.771      128.719       65.223    27812.588    16568.466     4254.090        8.438        2.432      346.601       68.970        0.040      337.813       10.036      859.119
03/10/2014  06:52:00     -254.985     -115.512        7.710      188.734      145.090       77.922    35620.582    21051.252     6071.764        7.057        3.137      279.929       76.450        0.075      337.793       10.005      859.020
03/10/2014  06:53:00     -297.229     -183.419        5.820      170.022      121.476       73.547    28907.384    14756.507     5409.215        8.554        2.454      349.267       66.186        0.036      337.803       10.019      859.057
03/10/2014  06:54:00      -99.407      -87.935       20.596      154.708      120.383       62.319    23934.462    14492.026     3883.629        3.017        2.116      132.719       65.781        0.246      337.883       10.155      859.162
03/10/2014  06:55:00     -202.515     -149.625       -8.436      124.375      106.016       54.119    15469.129    11239.401     2928.909        4.655        1.482      251.793       48.446        0.037      337.801       10.017      859.128
03/10/2014  06:56:00     -152.746     -126.742        4.238       91.260      116.816       50.574     8328.445    13645.947     2557.755        3.197        1.227      198.481       43.170        0.047      337.803       10.020      859.027
03/10/2014  06:57:00      -87.663      -88.634        2.075       80.733      120.993       41.160     6517.796    14639.391     1694.137        1.919        1.143      124.663       34.449        0.076      337.812       10.037      859.064
03/10/2014  06:58:00     -220.535     -180.578      -17.064       87.857       82.054       53.957     7718.931     6732.889     2911.402        4.945        0.868      285.034       44.349        0.024      337.785        9.991      859.115
03/10/2014  06:59:00     -218.932     -157.132      -17.208       84.576       58.654       45.352     7153.043     3440.330     2056.812        4.278        0.633      269.484       33.506        0.015      337.785        9.989      859.132
03/10/2014  07:00:00     -165.392     -108.713        7.752       76.473      101.658       48.011     5848.085    10334.298     2305.025        2.886        0.924      197.922       49.175        0.062      337.767        9.960      859.213
03/10/2014  07:01:00     -253.525     -239.941      -10.873      151.348      141.453       69.638    22906.177    20008.918     4849.450        8.485        2.388      349.065       68.783        0.039      337.805       10.023      859.292
03/10/2014  07:02:00     -224.216     -213.139      -17.288      103.861      137.332       68.395    10787.010    18860.101     4677.899        6.516        1.716      309.356       73.597        0.057      337.855       10.107      859.330
03/10/2014  07:03:00      -78.732        6.670       11.801      154.281      106.241       70.044    23802.752    11287.175     4906.191        2.318        2.000       79.014       54.152        0.470      337.899       10.183      859.319
03/10/2014  07:04:00     -244.720      -16.551       -9.984       99.107       82.725       56.235     9822.110     6843.393     3162.333        4.004        0.991      245.280       49.732        0.041      337.825       10.056      859.319
03/10/2014  07:05:00     -252.449     -102.251       -1.777      112.791       88.228       51.448    12721.868     7784.220     2646.856        4.867        1.158      272.371       52.036        0.036      337.840       10.082      859.293
03/10/2014  07:06:00     -266.868     -101.857       -2.345      135.756      110.104       61.544    18429.676    12122.895     3787.714        5.796        1.717      285.646       49.520        0.030      337.879       10.148      859.285
03/10/2014  07:07:00     -161.284     -117.674       27.095      123.926      184.036       61.815    15357.722    33869.173     3821.136        4.681        2.652      199.649       61.864        0.096      337.880       10.151      859.406
03/10/2014  07:08:00     -297.959     -253.896       12.892      243.871      160.399      106.610    59472.942    25727.917    11365.785       12.497        4.828      391.462      125.009        0.102      337.688        9.828      859.501
03/10/2014  07:09:00     -210.040      -54.470       -0.918      118.453      103.889       67.166    14031.202    10792.977     4511.216        3.820        1.467      216.988       58.173        0.072      337.627        9.726      859.552
03/10/2014  07:10:00     -295.719      -55.860       -5.800      213.533      127.260       78.358    45596.273    16195.213     6139.936        7.925        3.397      300.948       98.928        0.108      337.450        9.430      859.576
03/10/2014  07:11:00     -304.355      -28.168       14.445      211.301      178.729      101.119    44648.084    31943.905    10224.962        9.021        4.341      305.656      118.628        0.151      337.410        9.361      859.539
03/10/2014  07:12:00     -412.482     -152.395      -23.132      170.155      124.193       70.861    28952.611    15423.909     5021.323       12.164        2.470      439.733       78.336        0.032      337.339        9.244      859.603
03/10/2014  07:13:00     -347.158      -88.441       -1.803      203.683      134.239       75.833    41486.723    18020.051     5750.575        9.679        3.263      358.246       88.697        0.061      337.335        9.236      859.563
03/10/2014  07:14:00     -362.807     -113.095       -4.043      213.980      122.062       78.685    45787.303    14899.067     6191.339       10.564        3.344      380.025       84.932        0.050      337.426        9.390      859.565
03/10/2014  07:15:00     -560.992      -58.290       -5.935      211.336      179.308       98.502    44662.711    32151.186     9702.554       20.231        4.326      564.013      104.284        0.034      337.324        9.219      859.691
03/10/2014  07:16:00     -292.288     -108.418      -10.863      216.613      161.230       79.914    46921.203    25994.964     6386.287        8.829        3.965      311.748       95.448        0.094      337.285        9.155      859.776
03/10/2014  07:17:00     -462.502     -244.019      -27.979      238.578      209.773      100.033    56919.681    44004.762    10006.600       19.256        5.547      522.928      112.451        0.046      337.274        9.137      859.806
03/10/2014  07:18:00     -607.169     -217.029      -21.032      330.644      264.561      119.786   109325.271    69992.655    14348.587       30.489        9.683      644.791      151.303        0.055      337.339        9.244      859.812
03/10/2014  07:19:00     -654.339     -239.936      -14.343      224.585      165.371       87.468    50438.510    27347.564     7650.646       28.567        4.272      696.943       89.627        0.017      337.319        9.209      859.908
03/10/2014  07:20:00     -530.738     -237.829        9.034      278.658      241.275      112.675    77650.492    58213.420    12695.725       24.341        7.428      581.589      142.245        0.060      337.476        9.473      859.986
03/10/2014  07:21:00     -591.077     -228.182      -16.523      249.259      188.303      100.198    62130.075    35458.102    10039.652       25.465        5.381      633.592      115.051        0.033      337.448        9.427      860.076
03/10/2014  07:22:00     -477.020     -227.055      -17.612      247.847      185.163       92.676    61428.304    34285.412     8588.818       19.184        5.215      528.301       93.293        0.031      337.361        9.279      860.097
03/10/2014  07:23:00     -387.582     -160.578       -6.559      155.634      163.214       69.174    24221.995    26638.899     4785.053       11.584        2.782      419.530       66.319        0.025      337.331        9.229      860.040
03/10/2014  07:24:00     -305.910     -117.520       -5.972      191.441      135.050       86.950    36649.649    18238.504     7560.377        8.493        3.122      327.707       83.603        0.065      337.334        9.236      860.040
03/10/2014  07:25:00     -370.250      -65.396      -19.554      160.881      160.417       80.573    25882.740    25733.571     6492.031        9.991        2.905      375.981       70.304        0.035      337.381        9.313      860.034
03/10/2014  07:26:00     -572.864      -55.101       -3.358      255.332      189.855      110.511    65194.339    36044.951    12212.575       22.231        5.673      575.508      131.256        0.052      337.285        9.153      860.070
03/10/2014  07:27:00     -605.967     -120.791      -18.320      239.707      196.772       99.552    57459.236    38719.205     9910.518       24.408        5.304      617.889      110.146        0.032      337.235        9.071      860.145
03/10/2014  07:28:00     -491.009      -89.768      -10.417      261.322      203.201       91.771    68289.109    41290.516     8421.944       18.361        5.900      499.148      104.435        0.044      337.240        9.078      860.191
03/10/2014  07:29:00     -324.889     -169.700        7.174      263.278      189.654      132.193    69315.412    35968.553    17475.034       12.856        6.138      366.539      137.570        0.141      337.253        9.099      860.243
03/10/2014  07:30:00     -266.597     -226.139       -1.649      198.860      182.198      102.903    39545.340    33196.243    10589.073       10.276        4.167      349.589       97.018        0.077      337.206        9.022      860.271
03/10/2014  07:31:00     -457.268     -253.141      -12.211      219.139      205.716       93.260    48021.889    42319.017     8697.450       18.616        4.952      522.661      110.480        0.045      337.186        8.987      860.317
03/10/2014  07:32:00     -619.579     -173.539      -35.565      220.510      231.726       99.424    48624.582    53697.029     9885.068       26.371        5.610      643.424       99.820        0.024      337.139        8.909      860.378
03/10/2014  07:33:00     -359.629     -203.839       -8.865      228.462      183.536       85.981    52194.933    33685.363     7392.768       13.210        4.664      413.380       88.166        0.045      337.133        8.897      860.504
03/10/2014  07:34:00     -112.883     -233.141       -1.391      132.976      101.280       57.926    17682.737    10257.541     3355.410        4.919        1.565      259.031       51.401        0.039      337.173        8.965      860.489
03/10/2014  07:35:00     -511.368     -179.082      -21.542      279.956      175.146       87.724    78375.579    30676.238     7695.477       20.537        5.837      541.819      104.287        0.037      337.164        8.950      860.535
03/10/2014  07:36:00     -430.233      -24.324        2.768      289.892      196.203      109.869    84037.145    38495.807    12071.260       16.013        6.730      430.920      124.999        0.084      337.174        8.968      860.619
03/10/2014  07:37:00     -570.675      -87.719      -19.921      305.357      184.661       90.439    93243.089    34099.613     8179.130       23.461        6.776      577.378      113.771        0.039      337.063        8.781      860.699
03/10/2014  07:38:00     -426.477     -161.467      -26.569      242.652      203.985       94.321    58879.771    41609.797     8896.535       15.900        5.469      456.020      116.389        0.065      337.014        8.699      860.667
03/10/2014  07:39:00     -331.615      -81.038       -0.526      258.442      162.742       99.098    66792.011    26484.970     9820.389       10.980        5.155      341.373      123.660        0.131      337.010        8.693      860.614
03/10/2014  07:40:00     -230.581     -116.283        3.879      263.814      157.358      101.011    69597.754    24761.486    10203.233        8.561        5.228      258.243      114.658        0.197      337.013        8.697      860.626
03/10/2014  07:41:00     -337.356     -169.747        1.359      222.482      169.088       97.598    49498.268    28590.642     9525.442       11.510        4.381      377.655      107.996        0.082      336.969        8.623      860.641
03/10/2014  07:42:00     -536.603     -173.235        3.714      249.861      202.004      112.923    62430.704    40805.701    12751.628       21.695        5.799      563.873      127.027        0.051      336.972        8.628      860.643
03/10/2014  07:43:00     -338.394     -113.421       -7.184      223.861      205.030      107.818    50113.682    42037.197    11624.743       11.558        5.189      356.896      119.526        0.112      337.022        8.711      860.713
03/10/2014  07:44:00     -395.319     -236.641      -18.627      246.998      201.013      109.278    61007.878    40406.362    11941.738       16.297        5.668      460.734      117.204        0.065      336.969        8.623      860.767
03/10/2014  07:45:00     -482.624     -193.042      -11.144      259.237      217.248      109.800    67203.623    47196.746    12056.033       19.836        6.323      519.799      136.601        0.069      336.938        8.572      860.831
03/10/2014  07:46:00     -343.720     -145.675       11.038      267.340      228.347      116.740    71470.693    52142.351    13628.122       13.834        6.862      373.316      142.983        0.147      336.862        8.445      860.873
03/10/2014  07:47:00     -575.615      -88.830       -4.158      357.781      174.229      106.843   128007.020    30355.689    11415.417       25.448        8.489      582.428      123.044        0.045      336.837        8.405      860.844
03/10/2014  07:48:00     -654.560     -108.530      -15.555      328.661      230.095      130.678   108017.956    52943.553    17076.827       30.922        8.902      663.497      153.355        0.053      336.806        8.352      860.786
03/10/2014  07:49:00     -553.736      -41.457        5.617      242.876      240.197      124.702    58988.754    57694.670    15550.664       22.028        6.612      555.286      124.484        0.050      336.812        8.361      860.874
03/10/2014  07:50:00     -376.814     -149.673       10.886      287.180      188.037      103.036    82472.516    35357.832    10616.468       14.645        6.422      405.451      127.218        0.098      336.831        8.394      860.991
03/10/2014  07:51:00     -488.433      -11.245      -22.414      310.969      194.966       97.046    96701.960    38011.927     9417.994       19.164        7.207      488.563      130.013        0.071      336.744        8.246      861.010
03/10/2014  07:52:00     -625.153       16.157      -23.613      265.816      181.507      107.856    70658.142    32944.841    11632.875       25.341        5.762      625.361      121.959        0.038      336.653        8.097      860.965
03/10/2014  07:53:00     -849.637     -177.081      -50.514      291.341      198.561      106.705    84879.697    39426.497    11386.047       44.572        6.785      867.895      112.778        0.017      336.605        8.016      860.993
03/10/2014  07:54:00     -676.798     -136.417      -43.943      248.511      179.415      101.485    61757.479    32189.868    10299.136       29.140        5.212      690.409      107.003        0.024      336.602        8.012      861.103
03/10/2014  07:55:00     -214.497      -64.047       36.286      292.475      210.164      113.521    85541.879    44168.939    12886.911        9.698        7.130      223.854      134.394        0.360      336.694        8.166      861.134
03/10/2014  07:56:00     -396.120     -232.079      -19.546      249.552      215.515      109.184    62276.301    46446.819    11921.040       16.587        6.032      459.099      123.972        0.073      336.556        7.934      861.043
03/10/2014  07:57:00     -313.772     -107.447       -4.126      205.989      198.333       86.663    42431.394    39336.093     7510.538        9.963        4.464      331.659       92.653        0.078      336.582        7.979      861.023
03/10/2014  07:58:00     -651.918     -110.948      -24.241      327.743      221.922      106.647   107415.628    49249.172    11373.596       30.293        8.402      661.292      130.998        0.039      336.481        7.808      861.010
03/10/2014  07:59:00     -343.166     -100.748      -22.286      206.488      221.767      114.868    42637.380    49180.614    13194.759       11.669        5.251      357.649      112.887        0.100      336.488        7.820      861.047
03/10/2014  08:00:00     -443.233     -160.806       -3.167      307.784      276.201      134.153    94731.200    76287.171    17997.011       20.563        9.451      471.502      147.123        0.097      336.430        7.723      861.106
03/10/2014  08:01:00     -295.156      -38.048        0.890      363.755      188.838      112.623   132317.652    35659.887    12683.859       13.458        9.033      297.599      131.165        0.194      336.445        7.748      861.247
03/10/2014  08:02:00     -230.072      -48.520      -30.348      152.041      144.002       72.950    23116.353    20736.684     5321.737        5.268        2.459      235.133       68.149        0.084      336.418        7.704      861.267
03/10/2014  08:03:00     -261.351      -68.648        3.508      255.638      180.991       95.480    65350.882    32757.854     9116.492        9.011        5.361      270.217       71.796        0.071      336.382        7.641      861.183
03/10/2014  08:04:00     -633.988     -241.388      -54.293      229.932      187.086      113.169    52868.527    35000.989    12807.155       28.190        5.034      678.387      127.962        0.036      336.278        7.469      861.186
03/10/2014  08:05:00     -553.730      -56.684      -28.162      231.356      156.872      102.277    53525.468    24608.959    10460.669       19.959        4.430      556.624      113.287        0.041      336.261        7.440      861.283
03/10/2014  08:06:00     -656.566      -48.964      -35.527      251.637      204.302      108.582    63320.970    41739.454    11790.106       27.577        5.843      658.389      129.815        0.039      336.226        7.381      861.378
03/10/2014  08:07:00     -225.821      -36.061       37.237      203.909      155.887       96.503    41578.681    24300.681     9312.763        6.442        3.760      228.682      103.816        0.206      336.309        7.519      861.411
03/10/2014  08:08:00     -442.266        4.296      -35.331      193.671      172.680       77.231    37508.444    29818.555     5964.636       13.506        3.665      442.287       53.181        0.014      336.220        7.371      861.423
03/10/2014  08:09:00     -533.440      -81.615      -23.610      259.262      218.908      103.039    67216.891    47920.687    10617.133       20.874        6.288      539.647      109.989        0.042      336.172        7.292      861.387
03/10/2014  08:10:00     -523.807     -118.911        1.977      198.175      134.833       72.968    39273.149    18180.072     5324.362       17.564        3.139      537.135       77.208        0.021      336.171        7.291      861.395
03/10/2014  08:11:00     -560.151      -47.743      -29.428      194.144      154.580       92.130    37691.765    23895.021     8487.935       19.348        3.504      562.182       92.437        0.027      336.163        7.278      861.452
03/10/2014  08:12:00     -427.876      -30.876      -12.706      206.107      142.651       78.747    42480.102    20349.379     6201.084       12.660        3.452      428.988       69.880        0.027      336.182        7.308      861.406
03/10/2014  08:13:00     -601.427      -98.631      -15.424      206.090      176.895       99.288    42472.973    31291.849     9858.133       22.763        4.181      609.460      111.331        0.033      336.076        7.131      861.339
03/10/2014  08:14:00     -531.009      -64.098      -16.661      236.560      194.972       99.272    55960.760    38013.896     9854.897       19.507        5.191      534.863      102.811        0.037      336.065        7.114      861.354
03/10/2014  08:15:00     -454.898      -72.533        4.977      217.296      173.234       98.161    47217.414    30009.980     9635.554       14.952        4.343      460.645      106.931        0.054      336.057        7.100      861.378
03/10/2014  08:16:00     -686.499      -72.399      -43.798      248.649      194.771      110.254    61826.186    37935.796    12155.896       29.516        5.596      690.306      106.641        0.024      336.043        7.077      861.384
03/10/2014  08:17:00     -354.115      -62.360      -23.294      209.568      166.968       85.574    43918.900    27878.408     7322.849       10.446        3.956      359.564       86.911        0.058      336.112        7.191      861.423
03/10/2014  08:18:00     -388.951     -115.001       -6.779      192.441      157.736       77.009    37033.580    24880.710     5930.319       11.619        3.392      405.596       89.218        0.048      336.072        7.126      861.447
03/10/2014  08:19:00     -501.031     -138.574      -12.349      318.979      195.968       99.494   101747.915    38403.347     9899.062       21.019        7.503      519.841      115.845        0.050      336.053        7.094      861.426
03/10/2014  08:20:00     -564.427     -179.137      -23.105      219.531      230.509      113.379    48194.048    53134.264    12854.704       23.267        5.709      592.172      113.707        0.037      335.983        6.977      861.440
03/10/2014  08:21:00     -549.337      -46.394      -23.235      203.730      177.045       92.403    41505.893    31344.970     8538.293       19.291        4.069      551.293       96.150        0.030      335.993        6.993      861.556
03/10/2014  08:22:00     -388.131      -44.970      -10.834      261.286      134.015       93.923    68270.415    17959.905     8821.499       12.390        4.753      390.727      116.584        0.089      336.035        7.064      861.665
03/10/2014  08:23:00     -480.361     -165.626        1.411      221.542      217.573       99.396    49080.700    47337.953     9879.465       18.222        5.315      508.113      112.965        0.049      336.033        7.061      861.706
03/10/2014  08:24:00     -725.915     -151.134      -37.749      304.622      224.893      119.282    92794.442    50576.839    14228.219       35.438        7.880      741.481      126.838        0.029      335.987        6.985      861.819
03/10/2014  08:25:00     -733.267     -164.101      -30.994      287.292      240.325      110.001    82536.791    57756.133    12100.139       35.895        7.620      751.405      126.333        0.028      335.994        6.995      861.864
03/10/2014  08:26:00     -685.295      -49.045      -55.041      266.618      313.228      112.997    71085.213    98112.090    12768.403       32.848        9.098      687.048      108.686        0.025      335.994        6.996      861.849
03/10/2014  08:27:00     -436.764      -44.528       -7.067      242.718      156.857       97.923    58911.822    24604.259     9588.861       14.293        4.655      439.028      121.288        0.076      336.058        7.102      861.980
03/10/2014  08:28:00     -476.654     -177.662       -7.860      340.302      257.268      127.602   115805.779    66186.939    16282.337       22.851        9.914      508.688      162.410        0.102      336.025        7.046      861.987
03/10/2014  08:29:00     -734.805     -161.061      -22.507      228.018      205.190      110.269    51991.988    42103.005    12159.282       33.630        5.313      752.249      122.891        0.027      335.953        6.926      861.974
03/10/2014  08:30:00     -417.572     -235.490      -14.078      216.834      199.458      108.725    47017.091    39783.656    11821.074       16.430        4.931      479.398      108.502        0.051      336.008        7.018      861.993
03/10/2014  08:31:00     -454.100     -228.987        8.404      324.746      204.985      126.919   105459.725    42018.962    16108.532       21.112        8.179      508.569      145.959        0.082      335.946        6.915      862.017
03/10/2014  08:32:00     -533.516     -134.207      -10.724      248.985      208.924      110.926    61993.732    43649.396    12304.545       21.033        5.897      550.137      119.536        0.047      335.944        6.912      862.071
03/10/2014  08:33:00     -690.099     -131.560      -16.330      417.067      242.461      138.603   173944.576    58787.102    19210.913       37.283       12.597      702.527      185.187        0.069      335.925        6.880      862.186
03/10/2014  08:34:00     -647.461     -150.611      -19.344      247.642      241.282      132.002    61326.397    58217.176    17424.396       28.959        6.848      664.747      122.038        0.034      335.887        6.816      862.297
03/10/2014  08:35:00     -580.327       34.164      -24.305      277.162      193.809      119.025    76818.766    37561.799    14167.037       23.352        6.427      581.332      138.207        0.057      335.874        6.796      862.342
03/10/2014  08:36:00     -241.842     -100.480        4.875      193.013      172.923       96.205    37254.112    29902.209     9255.394        7.249        3.821      261.885       99.249        0.144      335.939        6.904      862.435
03/10/2014  08:37:00     -262.761     -148.034       11.013      213.623      143.521       98.898    45634.979    20598.239     9780.889        8.353        3.801      301.591      112.477        0.139      335.935        6.898      862.496
03/10/2014  08:38:00     -514.375      -56.986      -25.318      251.381      214.122      115.786    63192.620    45848.146    13406.420       19.543        6.122      517.522      124.935        0.058      335.849        6.753      862.535
03/10/2014  08:39:00     -608.310      -33.184      -25.477      297.270      187.810      111.157    88369.329    35272.657    12355.861       25.387        6.800      609.215      141.076        0.054      335.789        6.652      862.585
03/10/2014  08:40:00     -470.268     -170.887        0.465      370.861      205.872      121.061   137537.697    42383.426    14655.744       22.243        9.729      500.354      151.949        0.092      335.755        6.597      862.728
03/10/2014  08:41:00     -566.363     -197.605      -35.476      281.320      244.368      119.226    79141.159    59715.691    14214.924       25.704        7.654      599.845      120.323        0.040      335.692        6.493      862.801
03/10/2014  08:42:00     -602.019     -266.471      -44.207      228.091      247.902      100.647    52025.376    61455.371    10129.912       27.948        6.181      658.357       87.191        0.018      335.602        6.341      862.962
03/10/2014  08:43:00     -612.615     -278.707      -30.705      290.933      226.096      132.016    84642.086    51119.566    17428.275       30.352        7.659      673.034      149.488        0.049      335.506        6.182      863.015
03/10/2014  08:44:00     -552.764     -307.973      -11.382      342.894      214.437      152.994   117576.231    45983.294    23407.068       29.371        9.348      632.768      161.141        0.065      335.464        6.113      863.165
03/10/2014  08:45:00     -377.100     -230.214        6.348      283.812      193.857      112.316    80549.159    37580.530    12614.884       16.297        6.537      441.818      138.288        0.098      335.458        6.103      863.236
03/10/2014  08:46:00     -387.837     -268.636      -17.197      246.307      204.797      114.501    60666.963    41941.836    13110.518       16.928        5.786      471.786      110.931        0.055      335.429        6.053      863.137
03/10/2014  08:47:00     -281.411     -175.354        2.180      201.810      201.347      108.989    40727.461    40540.633    11878.648       10.153        4.657      331.574      114.177        0.119      335.415        6.031      862.995
03/10/2014  08:48:00     -353.751     -129.835        1.225      243.087      172.674       86.114    59091.184    29816.390     7415.697       11.914        4.816      376.825       92.528        0.060      335.394        5.994      862.848
03/10/2014  08:49:00     -353.751      -96.146        6.609      242.777      226.476      100.143    58940.803    51291.564    10028.659       12.732        6.013      366.584      122.364        0.111      335.431        6.058      862.705
03/10/2014  08:50:00     -270.015     -256.258        9.162      193.765      149.473       93.028    37545.029    22342.315     8654.298       10.359        3.427      372.258       94.188        0.064      335.429        6.053      862.500
03/10/2014  08:51:00     -216.636     -215.839      -10.584      116.638      121.106       63.945    13604.423    14666.558     4089.013        6.299        1.618      305.806       63.706        0.043      335.435        6.064      862.352
03/10/2014  08:52:00     -131.493      -56.011        8.284      110.066       94.823       62.575    12114.595     8991.467     3915.611        2.275        1.251      142.926       62.343        0.190      335.425        6.049      862.177
03/10/2014  08:53:00      -39.110      -20.961        7.329       41.285       50.069       21.243     1704.444     2506.941      451.277        0.334        0.233       44.373       17.962        0.164      335.450        6.092      862.011
03/10/2014  08:54:00       -9.199       -3.194       18.657       19.777       25.119       16.769      391.137      630.964      281.197        0.087        0.065        9.738       12.458        1.637      335.506        6.184      861.955
03/10/2014  08:55:00       -0.690       15.949        2.671       42.177       23.261       21.073     1778.859      541.082      444.091        0.151        0.138       15.964       19.665        1.517      335.546        6.251      861.867
03/10/2014  08:56:00     -118.403       14.345      -17.593       66.760       39.510       36.137     4456.929     1561.033     1305.854        1.093        0.366      119.269       25.920        0.047      335.493        6.162      861.872
03/10/2014  08:57:00     -126.691       12.737       -7.365       53.244       36.874       19.656     2834.976     1359.680      386.362        1.042        0.229      127.329       13.902        0.012      335.548        6.256      861.890
03/10/2014  08:58:00     -205.420       29.496      -18.662       66.414       51.457       26.936     4410.879     2647.848      725.530        2.560        0.389      207.527       29.705        0.020      335.584        6.313      861.844
03/10/2014  08:59:00     -155.985      124.623      -31.106       54.906       65.145       34.228     3014.691     4243.851     1171.524        2.463        0.422      199.655       34.461        0.030      335.589        6.320      861.843
03/10/2014  09:00:00     -197.204        3.392       -9.196       68.121       85.943       37.806     4640.517     7386.206     1429.315        2.622        0.673      197.233       28.418        0.021      335.694        6.496      861.855
03/10/2014  09:01:00     -271.258       20.682      -43.450      108.760      125.885       58.872    11828.667    15847.012     3465.910        5.351        1.557      272.045       47.617        0.031      335.722        6.541      861.924
03/10/2014  09:02:00      -64.968      -19.151        4.302       81.053       55.816       61.166     6569.559     3115.470     3741.238        0.901        0.671       67.731       49.145        0.526      335.846        6.751      861.949
03/10/2014  09:03:00     -410.751      -88.054      -27.378      216.700      138.514       68.527    46958.689    19186.128     4695.938       12.402        3.542      420.083       84.454        0.040      335.850        6.755      861.940
03/10/2014  09:04:00     -496.398     -130.354      -38.181      199.076      140.794       79.097    39631.255    19822.811     6256.266       16.527        3.286      513.228       57.112        0.012      336.018        7.034      862.015
03/10/2014  09:05:00     -503.342     -112.228      -32.831      174.442      117.586       77.244    30430.054    13826.409     5966.652       15.861        2.511      515.702       84.558        0.027      336.182        7.308      862.108
03/10/2014  09:06:00     -291.624     -123.429      -11.486      136.538      114.263       67.820    18642.563    13055.939     4599.530        6.835        1.815      316.670       65.992        0.043      336.271        7.457      862.097
03/10/2014  09:07:00     -373.500      -89.154      -31.870      142.332      116.082       61.196    20258.477    13475.025     3745.001        9.296        1.874      383.993       47.290        0.015      336.539        7.906      862.052
03/10/2014  09:08:00     -341.838     -212.962        3.311      186.581      162.470       90.893    34812.315    26396.417     8261.612       11.583        3.474      402.748       80.246        0.040      336.799        8.340      861.990
03/10/2014  09:09:00     -306.704     -166.030        7.213      129.002      134.508       78.212    16641.491    18092.524     6117.075        8.126        2.043      348.760       68.276        0.038      336.775        8.300      861.883
03/10/2014  09:10:00     -151.811     -239.925       17.541       97.368      133.564       71.181     9480.543    17839.404     5066.751        5.665        1.619      283.920       57.971        0.042      336.804        8.348      861.869
03/10/2014  09:11:00     -107.673     -209.687       17.364      105.848      134.248       60.321    11203.705    18022.444     3638.638        4.436        1.643      235.717       67.184        0.081      336.824        8.382      861.864
03/10/2014  09:12:00     -128.897     -194.755       -7.701      120.939       91.892       50.991    14626.267     8444.061     2600.078        4.013        1.284      233.546       64.369        0.076      336.875        8.468      861.916
03/10/2014  09:13:00     -176.257     -162.733      -10.148      106.533      106.953       55.364    11349.177    11438.876     3065.140        4.175        1.293      239.893       51.863        0.047      336.982        8.646      861.907
03/10/2014  09:14:00      -18.496     -123.517       -4.454       72.098       72.724       48.109     5198.135     5288.713     2314.506        1.421        0.640      124.894       37.239        0.089      337.135        8.904      861.870
03/10/2014  09:15:00       50.020      -85.593       12.323       97.303      104.785       50.797     9467.905    10979.803     2580.304        1.650        1.151       99.138       61.069        0.379      337.190        8.997      861.924
03/10/2014  09:16:00       59.975     -114.058        4.709      104.695       95.021       67.988    10961.145     9029.035     4622.330        2.062        1.231      128.866       62.765        0.237      337.173        8.967      861.863
03/10/2014  09:17:00      -34.921       12.596       91.405       73.608      121.048       69.661     5418.158    14652.655     4852.636        1.732        1.246       37.123       75.653        4.153      337.186        8.989      861.781
03/10/2014  09:18:00       42.800     -114.129       32.202      118.392      153.877       81.584    14016.567    23678.062     6655.894        3.011        2.218      121.890       94.661        0.603      337.091        8.831      861.827
03/10/2014  09:19:00       -8.464     -126.808       26.069      100.313      124.856       58.909    10062.729    15589.010     3470.222        2.297        1.456      127.090       60.573        0.227      337.140        8.912      861.903
03/10/2014  09:20:00       10.252     -165.962       23.541      101.103      141.887       80.194    10221.871    20131.814     6431.019        3.249        1.839      166.279       62.154        0.140      337.144        8.917      861.915
03/10/2014  09:21:00       67.384     -236.128        7.003      134.500      152.012       85.453    18090.179    23107.548     7302.269        5.441        2.425      245.554       71.396        0.085      337.043        8.748      861.925
03/10/2014  09:22:00      107.590      -78.385       22.894      102.270      125.687       75.937    10459.068    15797.188     5766.431        2.513        1.601      133.116       80.935        0.370      337.008        8.689      861.843
03/10/2014  09:23:00      -47.957     -101.587       15.817      100.251      108.935       58.555    10050.280    11866.770     3428.690        1.910        1.267      112.338       42.126        0.141      337.016        8.706      861.972
03/10/2014  09:24:00      -28.207     -196.366       -9.232      101.739      106.649       53.109    10350.787    11374.096     2820.530        3.199        1.227      198.381       51.479        0.067      337.089        8.826      862.009
03/10/2014  09:25:00     -170.580     -157.081       -6.665       86.775       97.543       43.533     7529.873     9514.662     1895.137        3.637        0.947      231.888       32.808        0.020      336.924        8.548      862.050
03/10/2014  09:26:00      -55.827     -233.608      -13.339       89.572      119.436       51.397     8023.212    14264.984     2641.683        4.139        1.246      240.186       35.228        0.022      336.719        8.207      862.001
03/10/2014  09:27:00      -83.906     -144.506      -16.271      103.021       71.472       44.023    10613.312     5108.220     1938.024        2.292        0.883      167.100       22.925        0.019      336.946        8.586      861.957
03/10/2014  09:28:00     -178.911     -120.440       -4.294      107.733       91.202       49.308    11606.407     8317.868     2431.328        3.444        1.118      215.674       55.792        0.067      336.882        8.477      862.031
03/10/2014  09:29:00     -117.099     -213.485      -13.059       93.059       60.853       38.390     8659.990     3703.065     1473.827        3.664        0.692      243.492       45.211        0.034      336.656        8.103      861.985
03/10/2014  09:30:00     -106.412      -68.685      -10.974       55.586       61.754       39.621     3089.749     3813.583     1569.798        1.232        0.424      126.654       31.045        0.060      336.807        8.355      862.003
03/10/2014  09:31:00     -256.486     -158.218        8.815      113.570      115.679       59.456    12898.224    13381.744     3535.055        6.035        1.491      301.360       63.727        0.045      336.815        8.366      862.158
03/10/2014  09:32:00     -142.319     -246.289       -1.326      124.792      108.598       60.658    15572.931    11793.546     3679.423        5.597        1.552      284.452       63.592        0.050      336.848        8.422      862.174
03/10/2014  09:33:00       26.110     -109.508       -8.751      114.211       88.035       51.602    13044.151     7750.140     2662.722        1.810        1.173      112.578       38.813        0.119      337.112        8.865      861.975
03/10/2014  09:34:00     -253.908     -205.259      -11.363      184.295       88.313       61.033    33964.688     7799.195     3725.088        7.610        2.274      326.497       58.522        0.032      336.968        8.622      862.103
03/10/2014  09:35:00     -114.010     -131.380       18.963      132.944      125.916       69.782    17674.053    15854.876     4869.467        3.450        1.920      173.951       60.818        0.122      337.321        9.214      862.049
03/10/2014  09:36:00      -93.903     -157.070       -1.323       57.674      118.697       48.635     3326.315    14089.030     2365.366        2.663        0.989      182.999       46.864        0.066      337.302        9.181      862.089
03/10/2014  09:37:00      -86.872      -58.423       -4.542       69.611       61.810       41.653     4845.722     3820.460     1734.975        1.069        0.520      104.691       39.067        0.139      337.219        9.044      862.166
03/10/2014  09:38:00      -90.723     -164.354      -13.542       99.268       83.819       46.212     9854.106     7025.555     2135.543        2.722        0.951      187.731       34.278        0.033      336.974        8.633      862.182
03/10/2014  09:39:00       48.389      -15.191       90.188      170.457      196.860      112.133    29055.521    38753.886    12573.802        4.553        4.019       50.717      136.703        7.265      337.011        8.694      862.159
03/10/2014  09:40:00      -37.162     -132.198       30.740      100.310      198.121       67.542    10062.181    39251.763     4561.977        3.683        2.694      137.322       43.503        0.100      337.308        9.193      862.137
03/10/2014  09:41:00       53.747     -253.056       -6.832      140.847      168.337       70.380    19837.964    28337.345     4953.365        6.004        2.656      258.701       60.787        0.055      337.419        9.378      862.109
03/10/2014  09:42:00     -134.056     -359.890       14.408      194.935      278.733       95.249    37999.670    77692.078     9072.283       13.621        6.238      384.046      111.451        0.084      337.385        9.320      862.151
03/10/2014  09:43:00     -115.281     -172.928      -13.583      153.324      140.727       85.900    23508.121    19804.165     7378.773        4.702        2.535      207.831       66.321        0.102      337.474        9.470      861.992
03/10/2014  09:44:00     -259.017     -302.309      -20.314      189.862      191.329      101.274    36047.688    36606.839    10256.454       12.089        4.146      398.096      103.867        0.068      337.451        9.431      862.042
03/10/2014  09:45:00     -476.472     -263.669       -1.835      250.261      175.448       99.436    62630.370    30781.893     9887.430       19.990        5.165      544.561      117.800        0.047      337.432        9.398      861.899
03/10/2014  09:46:00     -404.549     -144.932      -13.536      195.657      142.923       90.131    38281.532    20427.060     8123.637       12.583        3.342      429.727       85.539        0.040      337.402        9.347      861.853
03/10/2014  09:47:00     -385.669     -248.944        0.831      282.659      191.865      107.211    79895.981    36812.264    11494.199       16.943        6.410      459.035      125.339        0.075      337.407        9.358      861.754
03/10/2014  09:48:00     -434.425     -120.738      -25.939      214.419      143.660       70.052    45975.374    20638.100     4907.336       13.773        3.576      450.891       86.014        0.036      337.328        9.225      861.752
03/10/2014  09:49:00     -228.860      -76.972       -9.392      123.645      117.039       54.642    15288.168    13698.020     2985.725        4.517        1.599      241.457       46.691        0.037      337.345        9.254      861.720
03/10/2014  09:50:00     -307.926     -193.621       11.335      246.310      204.911      118.979    60668.692    41988.715    14155.935       12.460        5.841      363.741      124.836        0.118      337.374        9.303      861.625
03/10/2014  09:51:00     -605.407     -325.710      -20.573      360.450      267.653      135.507   129924.333    71638.024    18362.016       34.643       10.996      687.462      157.969        0.053      337.381        9.314      861.665
03/10/2014  09:52:00     -636.707     -306.809      -36.534      290.115      208.109      108.624    84166.765    43309.302    11799.203       32.004        6.964      706.773      123.113        0.030      337.401        9.346      861.655
03/10/2014  09:53:00     -626.156     -383.080      -31.462      306.262      248.937      133.214    93796.248    61969.855    17746.086       35.663        8.676      734.044      134.970        0.034      337.391        9.330      861.626
03/10/2014  09:54:00     -611.548     -244.511      -27.397      208.454      203.442      107.360    43453.213    41388.518    11526.243       26.543        4.818      658.617       94.272        0.020      337.406        9.356      861.641
03/10/2014  09:55:00     -257.238     -109.094        7.843      187.029      169.998       89.516    34979.977    28899.248     8013.045        7.500        3.595      279.415       99.285        0.126      337.485        9.488      861.680
03/10/2014  09:56:00     -562.188     -435.364       -3.571      301.476      267.258      139.683    90887.614    71426.933    19511.414       34.368        9.091      711.054      149.423        0.044      337.417        9.374      861.659
03/10/2014  09:57:00     -503.413     -354.268        2.464      280.919      226.968      141.922    78915.219    51514.336    20141.895       26.472        7.529      615.573      150.591        0.060      337.471        9.463      861.638
03/10/2014  09:58:00     -472.749     -163.906        9.128      311.934      241.142      125.096    97302.908    58149.318    15648.955       21.074        8.555      500.357      147.196        0.087      337.525        9.555      861.625
03/10/2014  09:59:00     -480.410     -259.199       23.821      340.760      268.395      163.652   116117.353    72036.141    26781.859       25.670       10.747      545.873      197.843        0.131      337.533        9.567      861.609
03/10/2014  10:00:00     -503.076     -296.799       -9.985      320.163      243.037      123.590   102504.029    59066.792    15274.465       25.903        8.842      584.102      146.160        0.063      337.540        9.580      861.573
03/10/2014  10:01:00     -306.061     -217.203       13.144      230.721      189.076      103.121    53232.358    35749.851    10634.034       12.030        4.981      375.301      109.485        0.085      337.620        9.715      861.630
03/10/2014  10:02:00     -405.342     -138.236       -5.830      254.759      194.137      112.249    64902.031    37689.236    12599.930       14.930        5.760      428.266      138.347        0.104      337.651        9.767      861.596
03/10/2014  10:03:00     -456.915     -115.997        9.793      282.901      180.301      121.868    80033.085    32508.562    14851.756       17.483        6.370      471.409      142.565        0.091      337.645        9.756      861.573
03/10/2014  10:04:00     -479.927     -233.744      -14.623      232.716      148.368       88.494    54156.844    22013.117     7831.134       18.457        4.200      533.822       95.955        0.032      337.687        9.827      861.590
03/10/2014  10:05:00     -390.862     -367.343       -1.209      256.852      215.537      132.907    65973.045    46456.207    17664.210       20.888        6.505      536.389      139.011        0.067      337.670        9.800      861.581
03/10/2014  10:06:00     -343.518     -189.877      -10.873      202.947      133.123       94.823    41187.469    17721.640     8991.420       11.102        3.395      392.502       98.416        0.063      337.688        9.828      861.610
03/10/2014  10:07:00     -317.294     -282.584      -20.083      208.745      154.995       99.645    43574.495    24023.387     9929.057       12.921        3.876      424.888      113.856        0.072      337.722        9.885      861.687
03/10/2014  10:08:00     -351.102     -254.642        9.545      249.575      179.634      110.565    62287.550    32268.510    12224.671       14.747        5.339      433.723      124.214        0.082      337.721        9.883      861.634
03/10/2014  10:09:00     -380.178     -263.157       -3.157      273.665      221.990      126.731    74892.316    49279.565    16060.847       17.699        7.012      462.371      149.107        0.104      337.812       10.036      861.603
03/10/2014  10:10:00     -421.086     -109.495      -18.295      226.520      220.038       98.760    51311.136    48416.677     9753.628       14.954        5.474      435.089       87.238        0.040      337.914       10.207      861.637
03/10/2014  10:11:00     -247.510     -201.601       -4.800      186.170      169.504       89.972    34659.432    28731.470     8094.881        8.669        3.574      319.225       86.593        0.074      338.011       10.371      861.630
03/10/2014  10:12:00     -523.855     -325.099       -5.222      301.295      208.610      124.143    90778.456    43518.045    15411.448       26.489        7.485      616.534      143.741        0.054      337.956       10.277      861.615
03/10/2014  10:13:00     -456.518     -219.338      -21.948      221.726      205.042       99.235    49162.615    42042.058     9847.566       17.901        5.053      506.476       95.192        0.035      337.991       10.336      861.684
03/10/2014  10:14:00     -332.938     -277.915      -12.781      179.760      196.826       90.544    32313.696    38740.602     8198.292       13.373        3.963      433.687      102.497        0.056      337.977       10.313      861.698
03/10/2014  10:15:00     -376.184     -230.761        7.335      259.542      209.729      122.384    67362.260    43986.337    14977.867       16.055        6.316      441.322      147.071        0.111      337.890       10.165      861.681
03/10/2014  10:16:00     -303.355     -177.299       17.762      201.018      161.425       98.382    40408.070    26058.157     9678.932        9.994        3.807      351.368      110.043        0.098      338.007       10.363      861.678
03/10/2014  10:17:00     -331.497     -162.169       13.547      208.961      161.225       97.164    43664.721    25993.517     9440.825       10.772        3.955      369.038      104.240        0.080      337.938       10.249      861.658
03/10/2014  10:18:00     -370.294     -125.018      -27.117      201.100      194.578      108.614    40441.225    37860.739    11796.988       12.177        4.505      390.829      111.564        0.081      337.998       10.346      861.702
03/10/2014  10:19:00     -352.197     -263.324      -14.749      216.579      145.543      101.379    46906.445    21182.859    10277.649       13.597        3.918      439.752       94.328        0.046      337.918       10.212      861.598
03/10/2014  10:20:00     -520.943       16.138      -31.611      193.693      148.141       96.679    37516.789    21945.702     9346.744       17.071        3.440      521.193       98.765        0.036      338.060       10.453      861.632
03/10/2014  10:21:00     -400.419     -131.159      -21.922      264.695      113.485       91.690    70063.703    12878.816     8407.066       13.467        4.567      421.353      104.882        0.062      338.178       10.649      861.640
03/10/2014  10:22:00     -350.262     -101.255       -7.988      261.572      139.111       83.904    68420.060    19351.954     7039.846       11.389        4.741      364.604      113.825        0.097      338.218       10.717      861.618
03/10/2014  10:23:00     -469.676     -115.386      -12.544      304.806      230.197      113.100    92906.631    52990.815    12791.709       19.635        7.934      483.642      132.142        0.075      338.147       10.597      861.580
03/10/2014  10:24:00     -246.966     -152.318       21.223      216.928      158.269       97.715    47057.809    25049.195     9548.253        8.313        4.083      290.160      114.598        0.156      338.375       10.981      861.612
03/10/2014  10:25:00     -305.395     -151.997        3.348      223.231      195.741      101.119    49832.083    38314.375    10225.131       10.736        4.919      341.129      117.527        0.119      338.288       10.835      861.648
03/10/2014  10:26:00     -662.585     -204.978      -28.670      282.389      229.856      117.954    79743.654    52833.620    13913.163       31.414        7.325      693.567      130.662        0.035      338.110       10.535      861.615
03/10/2014  10:27:00     -605.801     -270.528      -12.935      320.206      245.094      137.170   102532.085    60070.883    18815.572       31.085        9.071      663.461      172.130        0.067      338.187       10.663      861.595
03/10/2014  10:28:00     -569.479     -291.704        0.147      371.591      241.520      132.706   138080.069    58331.730    17610.760       31.167       10.701      639.842      178.101        0.077      338.224       10.727      861.576
03/10/2014  10:29:00     -371.011     -268.443       15.243      330.622      227.620      153.668   109311.213    51810.839    23613.884       19.730        9.237      457.942      166.090        0.132      338.182       10.654      861.572
03/10/2014  10:30:00     -625.092     -229.356       -6.765      352.123      297.845      124.444   123990.437    88711.562    15486.191       33.574       11.409      665.841      154.323        0.054      338.117       10.546      861.609
03/10/2014  10:31:00     -424.801     -300.511       -3.677      259.115      229.320      109.345    67140.526    52587.616    11956.361       20.120        6.584      520.349      114.217        0.048      338.095       10.510      861.609
03/10/2014  10:32:00     -336.850     -178.149       25.005      273.487      189.407      119.680    74795.293    35875.137    14323.331       13.539        6.250      381.058      154.240        0.164      338.323       10.892      861.625
03/10/2014  10:33:00     -409.165      -85.053       -6.789      341.474      198.916       95.337   116604.462    39567.773     9089.207       16.995        8.263      417.912      126.122        0.091      338.362       10.959      861.621
03/10/2014  10:34:00     -585.715     -110.695      -27.724      270.091      180.476       99.785    72949.174    32571.408     9957.137       23.576        5.774      596.083      122.737        0.042      338.230       10.737      861.521
03/10/2014  10:35:00     -426.329     -120.695       -1.135      280.740      173.939      105.044    78814.927    30254.675    11034.254       15.819        6.005      443.084      136.981        0.096      338.445       11.098      861.600
03/10/2014  10:36:00     -360.360     -273.050       16.803      264.114      190.526      112.063    69756.462    36300.234    12558.227       16.163        5.931      452.124      129.274        0.082      338.446       11.101      861.619
03/10/2014  10:37:00     -276.147      -87.324        6.751      223.395      189.039      100.414    49905.201    35735.696    10082.997        8.981        4.786      289.625       99.464        0.118      338.506       11.200      861.577
03/10/2014  10:38:00     -490.896     -273.435       23.950      318.522      227.216      133.390   101456.338    51627.024    17792.787       24.356        8.544      561.913      148.164        0.070      338.399       11.022      861.631
03/10/2014  10:39:00     -369.864     -238.218       37.119      339.133      239.761      131.096   115011.275    57485.128    17186.229       19.227        9.484      439.940      164.352        0.140      338.344       10.927      861.639
03/10/2014  10:40:00     -370.794     -340.725       -2.312      227.860      209.460      114.770    51920.006    43873.452    13172.072       18.125        5.448      503.569      124.350        0.061      338.354       10.946      861.639
03/10/2014  10:41:00     -488.363     -182.514       -4.146      240.024      144.353      105.315    57611.540    20837.718    11091.277       18.067        4.477      521.354      104.909        0.040      338.384       10.995      861.671
03/10/2014  10:42:00     -536.167     -278.558      -15.209      293.552      199.881      102.939    86172.890    39952.498    10596.475       25.098        6.836      604.210      125.175        0.043      338.370       10.973      861.710
03/10/2014  10:43:00     -594.896     -345.765       -5.689      373.163      266.105      130.567   139250.768    70811.794    17047.844       35.025       11.356      688.080      177.726        0.067      338.243       10.759      861.632
03/10/2014  10:44:00     -518.687     -356.065       -6.596      253.265      245.946      114.308    64143.015    60489.324    13066.237       26.675        6.885      629.141      117.337        0.035      338.306       10.864      861.633
03/10/2014  10:45:00     -494.372     -325.885       -0.896      296.056      233.413      122.480    87648.973    54481.653    15001.321       25.384        7.857      592.119      147.539        0.062      338.431       11.074      861.667
03/10/2014  10:46:00     -542.446     -321.579      -20.156      286.818      277.671      130.284    82264.490    77101.334    16973.967       28.717        8.817      630.603      133.949        0.045      338.384       10.995      861.656
03/10/2014  10:47:00     -553.874     -319.161        5.728      324.133      244.566      126.708   105062.117    59812.556    16054.891       29.476        9.046      639.250      168.411        0.069      338.334       10.911      861.686
03/10/2014  10:48:00     -367.906     -160.987        7.348      245.692      206.470      105.208    60364.717    42629.952    11068.753       13.767        5.703      401.586      125.179        0.097      338.441       11.092      861.684
03/10/2014  10:49:00     -622.698     -432.324        6.092      346.578      339.252      142.940   120116.474   115092.090    20431.956       41.512       12.782      758.061      158.443        0.044      338.272       10.805      861.659
03/10/2014  10:50:00     -660.475     -472.534       -4.044      325.479      251.599      142.854   105936.527    63302.237    20407.278       42.455        9.482      812.105      157.909        0.038      338.257       10.780      861.658
03/10/2014  10:51:00     -412.769     -271.548      -15.397      356.560      225.474      122.538   127135.025    50838.353    15015.530       21.863        9.649      494.082      155.264        0.099      338.389       11.005      861.665
03/10/2014  10:52:00     -366.502     -312.845        9.401      240.970      226.274      134.855    58066.682    51199.979    18186.002       17.984        6.373      481.867      135.394        0.079      338.438       11.086      861.637
03/10/2014  10:53:00     -512.006     -141.278      -10.259      240.367      203.549      103.902    57776.276    41432.029    10795.645       19.609        5.500      531.140       96.136        0.033      338.552       11.276      861.678
03/10/2014  10:54:00     -381.658     -125.532        3.527      252.391      150.974      105.429    63701.205    22793.121    11115.239       12.950        4.880      401.772      111.157        0.077      338.671       11.477      861.741
03/10/2014  10:55:00     -354.088     -287.538       21.009      335.287      250.019      139.901   112417.421    62509.287    19572.310       20.146        9.725      456.132      178.786        0.154      338.530       11.242      861.746
03/10/2014  10:56:00     -649.973     -450.611       -4.666      381.944      333.954      166.695   145881.022   111525.281    27787.069       45.531       14.260      790.895      206.129        0.068      338.211       10.705      861.686
03/10/2014  10:57:00     -556.733     -403.712        1.155      385.248      288.544      167.548   148416.247    83257.550    28072.443       36.629       12.987      687.703      197.782        0.083      338.221       10.722      861.655
03/10/2014  10:58:00     -534.545     -431.996       -7.619      351.268      270.732      147.155   123388.875    73295.701    21654.732       34.533       10.917      687.284      179.321        0.068      338.318       10.886      861.682
03/10/2014  10:59:00     -582.475     -292.767       -5.087      270.237      255.623      121.149    73028.258    65343.111    14676.999       28.900        7.652      651.912      135.084        0.043      338.281       10.824      861.734
03/10/2014  11:00:00     -483.607     -337.188       12.797      309.981      223.711      129.868    96087.931    50046.481    16865.799       25.534        8.150      589.552      150.526        0.065      338.419       11.054      861.711
03/10/2014  11:01:00     -710.754     -449.250      -28.266      320.544      295.607      135.485   102748.427    87383.258    18356.115       45.810       10.424      840.830      146.578        0.030      338.188       10.666      861.767
03/10/2014  11:02:00     -545.258     -288.074        3.098      277.434      241.886      114.994    76969.673    58509.044    13223.538       26.447        7.435      616.679      120.908        0.038      338.248       10.767      861.799
03/10/2014  11:03:00     -341.381     -191.609        6.674      204.684      196.544       97.280    41895.380    38629.652     9463.302       12.163        4.499      391.478      100.556        0.066      338.438       11.086      861.827
03/10/2014  11:04:00     -746.397     -297.227      -50.375      267.732      252.040      125.792    71680.295    63524.376    15823.524       39.948        7.551      803.401      131.986        0.027      338.269       10.801      861.780
03/10/2014  11:05:00     -586.886     -339.909        0.233      330.223      281.455      146.886   109046.973    79217.110    21575.359       33.486       10.492      678.214      160.041        0.056      338.454       11.113      861.755
03/10/2014  11:06:00     -740.893     -476.122      -20.773      288.282      207.547      132.692    83106.302    43075.790    17607.151       45.989        7.189      880.690      144.827        0.027      338.216       10.714      861.722
03/10/2014  11:07:00     -634.360     -436.786       -5.328      269.732      228.328      116.131    72755.295    52133.866    13486.472       36.577        6.919      770.192      118.644        0.024      338.372       10.973      861.715
03/10/2014  11:08:00     -709.830     -270.854      -13.624      319.502      249.751      121.731   102081.399    62375.597    14818.413       37.831        8.964      759.751      131.664        0.030      338.337       10.916      861.793
03/10/2014  11:09:00     -520.267     -292.728      -15.119      372.588      233.175      115.423   138821.471    54370.743    13322.417       28.151       10.326      596.966      128.944        0.047      338.261       10.791      861.774
03/10/2014  11:10:00     -496.820     -375.537        0.672      286.596      254.051      126.365    82137.321    64541.743    15968.029       27.522        8.132      622.783      158.495        0.065      338.375       10.980      861.773
03/10/2014  11:11:00     -435.028     -371.302        0.132      312.473      272.999      141.751    97639.186    74528.183    20093.204       25.965        9.613      571.940      170.355        0.089      338.334       10.910      861.802
03/10/2014  11:12:00     -596.211     -276.492      -17.003      311.108      229.976      143.270    96788.494    52889.074    20526.291       30.117        8.510      657.203      155.806        0.056      338.355       10.947      861.865
03/10/2014  11:13:00     -799.230     -269.670      -41.624      354.223      282.010      133.075   125474.065    79529.451    17709.014       46.792       11.136      843.499      141.128        0.028      338.248       10.767      861.831
03/10/2014  11:14:00     -715.786     -429.245      -15.942      402.752      254.956      154.989   162209.486    65002.677    24021.592       47.399       12.562      834.627      172.014        0.042      338.029       10.400      861.799
03/10/2014  11:15:00     -598.097     -403.964       -2.808      328.757      248.616      127.682   108081.289    61810.107    16302.774       35.352        9.310      721.739      151.514        0.044      338.107       10.531      861.863
03/10/2014  11:16:00     -697.377     -403.210      -13.431      319.810      263.346      135.136   102278.616    69350.874    18261.685       41.945        9.495      805.551      159.294        0.039      338.265       10.795      861.829
03/10/2014  11:17:00     -510.926     -255.914      -31.930      299.345      224.360      121.039    89607.468    50337.579    14650.326       24.105        7.730      571.435      136.522        0.057      338.356       10.949      861.808
03/10/2014  11:18:00     -453.201     -308.848        9.488      282.159      218.495      138.297    79613.425    47740.188    19126.007       22.365        7.324      548.433      149.121        0.074      338.496       11.183      861.843
03/10/2014  11:19:00     -451.085     -332.698        2.437      274.990      225.662      121.013    75619.252    50923.407    14644.100       22.765        7.059      560.505      126.848        0.051      338.314       10.878      861.847
03/10/2014  11:20:00     -512.098     -425.806       -5.017      300.764      215.870      134.129    90459.059    46599.683    17990.643       29.928        7.752      665.999      151.061        0.051      338.419       11.054      861.836
03/10/2014  11:21:00     -601.611     -448.355      -22.577      310.747      228.518      122.864    96563.669    52220.394    15095.619       36.364        8.194      750.305      157.798        0.044      338.409       11.039      861.768
03/10/2014  11:22:00     -517.811     -314.961       -7.454      274.577      265.577      111.196    75392.327    70531.120    12364.480       26.280        7.914      606.076      117.899        0.038      338.470       11.139      861.830
03/10/2014  11:23:00     -461.821     -343.474        5.686      327.238      248.697      153.609   107084.853    61850.429    23595.646       26.187        9.627      575.546      168.520        0.086      338.285       10.829      861.822
03/10/2014  11:24:00     -454.639     -313.399       13.297      292.262      254.793      135.329    85417.321    64919.699    18313.813       23.684        8.433      552.192      149.726        0.074      338.329       10.903      861.843
03/10/2014  11:25:00     -351.215     -121.164       11.123      320.585      249.710      137.397   102774.809    62355.009    18877.972       16.105        9.200      371.527      153.251        0.170      338.423       11.062      861.841
03/10/2014  11:26:00     -524.671      -86.974      -18.153      313.587      236.157      124.282    98336.647    55770.030    15446.010       22.633        8.478      531.831      146.975        0.076      338.530       11.240      861.836
03/10/2014  11:27:00     -586.920     -295.517      -39.230      375.466      250.094      143.939   140975.020    62546.898    20718.459       32.875       11.212      657.119      158.041        0.058      338.318       10.883      861.872
03/10/2014  11:28:00     -473.221     -336.697       10.987      370.437      225.390      149.922   137223.918    50800.831    22476.733       27.392       10.525      580.778      178.742        0.095      338.303       10.860      861.880
03/10/2014  11:29:00     -582.306     -136.439      -11.615      302.523      252.133      140.097    91520.273    63571.005    19627.090       26.624        8.736      598.076      151.737        0.064      338.250       10.772      861.779
03/10/2014  11:30:00     -668.969     -187.533      -35.229      286.689      265.479      118.517    82190.435    70478.899    14046.388       32.529        8.336      694.758      129.169        0.035      338.315       10.879      861.824
03/10/2014  11:31:00     -459.300     -326.218        8.949      362.702      211.034      147.062   131553.054    44535.290    21627.267       25.755        9.886      563.360      170.834        0.092      338.194       10.676      861.902
03/10/2014  11:32:00     -703.063     -330.115      -27.355      316.680      243.571      123.535   100286.502    59327.070    15260.920       38.941        8.744      776.707      135.990        0.031      338.244       10.759      861.877
03/10/2014  11:33:00     -670.948     -352.749      -45.137      345.796      241.877      139.279   119574.889    58504.674    19398.573       38.702        9.874      758.026      163.287        0.046      338.265       10.795      861.860
03/10/2014  11:34:00     -567.255     -257.941      -17.345      384.975      298.908      118.076   148206.022    89345.998    13941.875       32.000       12.575      623.146      143.202        0.053      338.275       10.813      861.879
03/10/2014  11:35:00     -600.603     -459.312      -14.954      327.146      270.399      159.152   107024.454    73115.568    25329.313       38.865       10.273      756.103      187.168        0.061      338.147       10.599      861.865
03/10/2014  11:36:00     -564.011     -181.729      -11.002      334.769      265.273      142.252   112070.560    70369.847    20235.599       27.692       10.134      592.566      167.190        0.080      338.317       10.885      861.855
03/10/2014  11:37:00     -671.371     -312.972      -15.379      294.361      252.746      120.726    86648.654    63880.447    14574.756       35.698        8.255      740.737      131.587        0.032      338.411       11.041      861.940
03/10/2014  11:38:00     -561.817     -258.556      -20.274      279.979      212.679      126.512    78388.312    45232.170    16005.303       26.124        6.981      618.457      120.998        0.038      338.221       10.723      861.925
03/10/2014  11:39:00     -412.070     -376.951       15.169      304.635      269.940      135.952    92802.211    72867.791    18482.843       24.810        9.208      558.475      142.335        0.065      338.303       10.859      861.869
03/10/2014  11:40:00     -659.576     -394.492       -4.057      310.634      276.933      155.868    96493.184    76691.976    24294.956       39.404        9.874      768.547      172.800        0.051      338.421       11.059      861.871
03/10/2014  11:41:00     -531.565     -145.785        1.019      330.744      280.203      126.023   109391.897    78513.487    15881.685       25.376       10.189      551.194      148.038        0.072      338.505       11.199      861.981
03/10/2014  11:42:00     -614.500     -351.737      -25.799      359.548      345.806      170.162   129274.538   119582.100    28955.013       38.985       13.891      708.046      188.709        0.071      338.382       10.992      861.953
03/10/2014  11:43:00     -602.018     -259.184      -20.867      355.529      261.072      125.435   126401.125    68158.408    15733.824       32.012       10.515      655.440      155.870        0.057      338.282       10.824      861.929
03/10/2014  11:44:00     -218.335     -146.937       18.219      266.830      233.867      121.183    71198.178    54693.940    14685.435       10.506        7.029      263.174      142.907        0.295      338.621       11.394      861.961
03/10/2014  11:45:00     -632.519     -233.152      -33.999      378.138      231.547      123.881   142988.052    53614.243    15346.572       33.373       10.597      674.121      149.087        0.049      338.441       11.091      861.996
03/10/2014  11:46:00     -618.812     -202.055      -46.085      299.993      250.479      116.704    89995.616    62739.828    13619.904       29.608        8.318      650.964      136.406        0.044      338.397       11.019      861.906
03/10/2014  11:47:00     -654.565     -390.657      -25.819      353.943      247.879      145.655   125275.797    61443.902    21215.261       39.479       10.397      762.278      171.824        0.051      338.270       10.804      861.893
03/10/2014  11:48:00     -567.187     -325.023       -6.871      363.559      293.174      154.896   132174.991    85950.724    23992.656       33.470       12.106      653.713      177.048        0.073      338.347       10.933      861.945
03/10/2014  11:49:00     -542.156     -152.243      -16.695      320.896      281.405      127.029   102974.162    79189.035    16136.432       25.781        9.915      563.126      144.972        0.066      338.377       10.984      861.943
03/10/2014  11:50:00     -526.385      -27.655       -7.938      293.833      207.685      118.204    86337.751    43133.006    13972.143       21.065        7.172      527.111      128.082        0.059      338.462       11.127      861.972
03/10/2014  11:51:00     -771.168     -168.779      -21.100      254.893      185.780      110.595    64970.540    34514.215    12231.359       36.765        5.586      789.422      117.027        0.022      338.258       10.784      861.971
03/10/2014  11:52:00     -671.396     -200.424      -17.585      201.554      226.120      107.026    40623.830    51130.109    11454.611       29.721        5.160      700.672      105.219        0.023      338.385       10.998      861.943
03/10/2014  11:53:00     -486.304      -36.174        9.856      307.969      195.045      104.947    94845.049    38042.610    11013.772       19.087        7.195      487.648      127.677        0.069      338.676       11.487      862.002
03/10/2014  11:54:00     -571.969     -284.439        1.416      370.145      248.398      128.703   137007.248    61701.430    16564.420       31.162       10.764      638.791      140.838        0.049      338.596       11.351      861.999
03/10/2014  11:55:00     -666.702     -403.799       -3.021      416.288      273.633      149.109   173295.998    74875.179    22233.578       43.892       13.520      779.452      201.627        0.067      338.311       10.873      861.954
03/10/2014  11:56:00     -551.494     -383.555      -27.423      341.478      245.027      136.297   116607.522    60038.411    18576.992       32.358        9.761      671.759      157.216        0.055      338.398       11.019      861.990
03/10/2014  11:57:00     -782.112     -429.900      -18.288      331.672      285.488      142.584   110006.595    81503.578    20330.161       50.430       10.592      892.476      163.851        0.034      338.350       10.938      862.027
03/10/2014  11:58:00     -770.120     -489.290      -28.460      258.913      235.515      140.515    67035.792    55467.481    19744.448       48.775        7.112      912.408      143.728        0.025      338.345       10.931      862.012
03/10/2014  11:59:00     -522.720     -266.067       -8.272      416.698      287.683      165.421   173636.984    82761.374    27364.270       31.387       14.188      586.539      203.834        0.121      338.459       11.122      862.059
03/10/2014  12:00:00     -529.512      -56.606      -16.857      277.734      187.491      103.269    77136.131    35153.045    10664.510       20.339        6.148      532.529      117.499        0.049      338.695       11.519      862.124
03/10/2014  12:01:00     -350.228      -66.893       -1.210      266.288      177.471       91.782    70909.531    31496.108     8423.888       11.896        5.541      356.560      110.142        0.095      338.735       11.586      862.125
03/10/2014  12:02:00     -579.067     -183.805      -12.272      314.158      231.620      111.508    98695.504    53647.692    12434.004       26.698        8.239      607.539      120.625        0.039      338.544       11.264      862.163
03/10/2014  12:03:00     -423.869     -171.499       -2.784      283.466      183.420      117.480    80353.250    33643.010    13801.437       16.842        6.390      457.249      150.340        0.108      338.613       11.380      862.173
03/10/2014  12:04:00     -429.488     -347.535        8.712      271.086      204.776      127.528    73487.711    41933.404    16263.361       21.847        6.584      552.486      152.612        0.076      338.581       11.326      862.229
03/10/2014  12:05:00     -384.927     -294.426       -8.769      240.964      178.327      117.049    58063.859    31800.405    13700.375       16.923        5.178      484.619      122.497        0.064      338.634       11.415      862.234
03/10/2014  12:06:00     -478.211      -89.491      -17.006      168.684      209.316       85.807    28454.255    43813.334     7362.776       15.829        3.982      486.513       77.232        0.025      338.786       11.671      862.280
03/10/2014  12:07:00     -623.435       29.322      -32.654      224.840      167.195      109.264    50553.248    27954.174    11938.702       24.050        4.522      624.124      116.278        0.035      338.726       11.571      862.313
03/10/2014  12:08:00     -624.668     -140.292      -23.693      265.026      223.702       95.629    70238.680    50042.555     9144.824       26.991        6.471      640.228       99.132        0.024      338.569       11.306      862.302
03/10/2014  12:09:00     -456.110      -27.103      -23.385      307.655      167.026      101.528    94651.305    27897.639    10308.016       17.106        6.643      456.915      122.021        0.071      338.734       11.583      862.292
03/10/2014  12:10:00     -655.852     -205.909      -11.227      255.994      167.007      117.720    65532.678    27891.271    13857.940       28.995        5.364      687.415      118.172        0.030      338.587       11.338      862.205
03/10/2014  12:11:00     -448.270      -97.824      -14.278      232.073      173.285       84.407    53857.701    30027.597     7124.604       15.085        4.550      458.820       80.938        0.031      338.729       11.576      862.265
03/10/2014  12:12:00     -353.971     -233.837        5.083      199.897      133.320       77.577    39958.748    17774.291     6018.195       12.186        3.188      424.234       90.101        0.045      338.907       11.876      862.288
03/10/2014  12:13:00     -501.352     -146.149        7.174      335.582      237.935      126.748   112615.501    56612.960    16065.054       22.899        9.265      522.220      163.031        0.097      338.818       11.725      862.335
03/10/2014  12:14:00     -609.528      -91.869      -49.594      206.890      217.857      101.534    42803.494    47461.586    10309.198       24.148        5.029      616.412      101.165        0.027      338.491       11.175      862.384
03/10/2014  12:15:00     -686.340      -90.468      -48.867      253.766      187.428       99.844    64397.290    35129.340     9968.771       29.554        5.475      692.276      123.753        0.032      338.411       11.041      862.384
03/10/2014  12:16:00     -425.679     -143.693        5.546      190.098      169.404       84.721    36137.309    28697.732     7177.634       13.693        3.601      449.277       95.207        0.045      338.437       11.084      862.329
03/10/2014  12:17:00     -629.747     -214.127      -15.048      278.300      168.697       86.993    77451.141    28458.652     7567.869       27.805        5.674      665.156       99.361        0.022      338.693       11.514      862.371
03/10/2014  12:18:00     -594.139      -59.095      -59.877      275.872      211.486      110.681    76105.369    44726.327    12250.368       24.655        6.654      597.071      130.050        0.047      338.619       11.391      862.336
03/10/2014  12:19:00     -615.234     -130.695      -55.279      314.325      128.222      103.356    98799.943    16440.813    10682.461       26.226        6.296      628.962      130.818        0.043      338.332       10.908      862.332
03/10/2014  12:20:00     -686.210     -125.051      -47.616      254.335      179.782       83.230    64686.135    32321.390     6927.287       29.634        5.197      697.511       74.610        0.011      338.284       10.828      862.296
03/10/2014  12:21:00     -614.202     -213.287      -16.481      267.242      210.534      107.656    71418.159    44324.449    11589.865       27.514        6.367      650.181      128.310        0.039      338.608       11.371      862.284
03/10/2014  12:22:00     -528.186     -240.434       -2.816      208.032      214.876      109.209    43277.302    46171.523    11926.637       21.907        5.069      580.335      103.397        0.032      338.737       11.589      862.347
03/10/2014  12:23:00     -528.933     -260.600      -21.594      214.934      287.635      106.875    46196.679    82733.792    11422.192       24.422        7.018      589.646      103.568        0.031      338.843       11.766      862.323
03/10/2014  12:24:00     -387.467      -95.848       -0.396      208.467      182.702       89.897    43458.298    33380.096     8081.543       12.210        4.246      399.146      106.664        0.071      338.950       11.947      862.412
03/10/2014  12:25:00     -553.124     -311.063       -2.162      243.261      226.888      123.391    59176.144    51478.190    15225.452       26.427        6.294      634.592      109.927        0.030      338.626       11.402      862.330
03/10/2014  12:26:00     -353.927     -262.758       48.385      429.061      320.083      163.747   184093.452   102453.101    26813.127       25.494       15.668      440.801      220.208        0.250      338.737       11.590      862.302
03/10/2014  12:27:00     -397.883     -177.911        4.974      329.280      225.611      133.448   108425.201    50900.175    17808.477       18.352        8.857      435.848      145.238        0.111      338.605       11.365      862.373
03/10/2014  12:28:00     -470.419     -366.898       15.611      286.101      239.549      139.714    81854.005    57383.528    19519.989       25.742        7.938      596.580      155.533        0.068      338.635       11.418      862.329
03/10/2014  12:29:00     -498.634     -292.717        9.575      246.174      231.512      121.341    60601.774    53597.617    14723.570       23.164        6.446      578.203      134.679        0.054      338.736       11.587      862.329
03/10/2014  12:30:00     -345.766     -198.877       -7.605      190.710      183.586       97.920    36370.241    33703.971     9588.379       11.940        3.983      398.882       91.176        0.052      338.907       11.875      862.418
03/10/2014  12:31:00     -356.525      -95.148      -12.030      231.109      174.864       91.693    53411.193    30577.288     8407.554       11.433        4.620      369.003      105.491        0.082      339.064       12.138      862.415
03/10/2014  12:32:00     -290.895     -217.084       23.139      268.864      208.513      106.526    72287.746    43477.688    11347.849       12.967        6.356      362.968      114.567        0.100      338.951       11.949      862.399
03/10/2014  12:33:00     -285.258     -197.339        2.237      174.359      129.026       82.277    30400.981    16647.581     6769.449        8.706        2.691      346.864       86.452        0.062      338.788       11.675      862.340
03/10/2014  12:34:00     -511.215     -103.211      -14.151      204.380      213.769       97.229    41771.006    45697.058     9453.418       18.454        4.846      521.530       86.242        0.027      338.881       11.832      862.367
03/10/2014  12:35:00     -536.821      -81.507      -39.349      219.938      185.886       92.254    48372.528    34553.689     8510.759       19.388        4.572      542.974      104.002        0.037      338.806       11.704      862.350
03/10/2014  12:36:00     -314.419      -25.010        6.433      222.641      176.289       89.382    49568.880    31077.954     7989.056        9.406        4.432      315.412      109.302        0.120      339.157       12.295      862.318
03/10/2014  12:37:00     -513.358       33.475      -24.439      188.605      196.358       85.950    35571.912    38556.367     7387.467       17.337        4.076      514.448       83.969        0.027      338.798       11.690      862.357
03/10/2014  12:38:00     -557.891      -73.781      -29.069      235.298      156.821       97.939    55365.148    24592.917     9591.958       20.352        4.478      562.748      114.185        0.041      338.613       11.381      862.328
03/10/2014  12:39:00     -466.528        7.910      -40.630      212.115      192.836       96.892    44992.752    37185.816     9388.033       15.545        4.578      466.595       98.212        0.044      338.907       11.873      862.275
03/10/2014  12:40:00     -498.242     -159.960      -15.300      272.190      161.907       93.016    74087.496    26213.997     8652.056       19.149        5.448      523.290      101.578        0.038      339.124       12.239      862.302
03/10/2014  12:41:00     -510.528       -4.242       -9.436      227.283      229.544      101.064    51657.515    52690.345    10213.909       18.763        5.728      510.546      116.007        0.052      339.008       12.043      862.308
03/10/2014  12:42:00     -335.316     -169.384        4.565      295.301      206.221      115.492    87202.433    42527.062    13338.496       14.208        7.153      375.670      143.950        0.147      338.801       11.698      862.302
03/10/2014  12:43:00     -214.660     -101.758        8.221      172.904      143.900       74.996    29895.951    20707.109     5624.429        5.635        2.811      237.557       73.819        0.097      338.929       11.912      862.280
03/10/2014  12:44:00     -292.579      -42.950       -3.996      188.042      166.239       81.995    35359.781    27635.241     6723.248        7.858        3.486      295.715       81.858        0.077      339.082       12.169      862.300
03/10/2014  12:45:00     -341.078     -137.212        9.831      155.619      197.879       91.185    24217.340    39156.291     8314.712       10.346        3.584      367.643       90.875        0.061      339.157       12.294      862.314
03/10/2014  12:46:00     -453.688     -102.555       -7.724      279.390      155.904       85.856    78058.604    24306.212     7371.182       16.305        5.487      465.135      103.156        0.049      338.865       11.804      862.289
03/10/2014  12:47:00     -357.802       19.642      -29.449      289.375      171.096       83.968    83737.720    29273.737     7050.561       12.464        6.003      358.341      123.665        0.119      339.183       12.339      862.308
03/10/2014  12:48:00     -786.906     -108.078      -66.489      259.884      243.212      115.305    67539.697    59152.144    13295.254       38.763        6.999      794.294      118.649        0.022      338.642       11.428      862.271
03/10/2014  12:49:00     -602.897      -75.965      -46.190      186.205      171.947      110.778    34672.255    29565.805    12271.816       22.393        3.825      607.664      102.826        0.029      338.814       11.717      862.231
03/10/2014  12:50:00     -269.593      -96.810       26.852      181.599      165.700       93.405    32978.045    27456.462     8724.413        7.595        3.458      286.448       92.138        0.103      339.346       12.614      862.238
03/10/2014  12:51:00     -207.280      -90.476       20.668      182.328      147.482       94.548    33243.610    21750.849     8939.266        5.774        3.197      226.166      111.339        0.242      339.486       12.849      862.273
03/10/2014  12:52:00     -515.978      -66.205      -20.007      243.390      167.173       92.375    59238.700    27946.725     8533.197       18.335        4.786      520.208      106.750        0.042      338.987       12.010      862.327
03/10/2014  12:53:00     -635.562     -102.735      -21.704      211.741      194.447       91.744    44834.052    37809.780     8417.044       25.299        4.553      643.812       87.551        0.018      338.648       11.439      862.325
03/10/2014  12:54:00     -270.059       12.312       -5.112      174.358      128.740       73.985    30400.785    16574.033     5473.780        6.277        2.622      270.340       68.338        0.064      338.952       11.951      862.331
03/10/2014  12:55:00     -514.565     -190.282      -12.612      357.450      183.246      125.272   127770.713    33579.106    15693.181       23.906        8.852      548.621      162.216        0.087      338.710       11.544      862.303
03/10/2014  12:56:00     -557.054     -187.434        0.411      391.568      222.391      136.213   153325.657    49457.681    18554.066       28.334       11.067      587.742      171.084        0.085      338.581       11.327      862.297
03/10/2014  12:57:00     -489.938      -35.527      -36.217      188.591      139.607       87.593    35566.428    19490.083     7672.561       15.266        3.136      491.224       98.626        0.040      338.771       11.647      862.314
03/10/2014  12:58:00     -245.230       -5.167      -21.320      171.183      132.494       73.756    29303.769    17554.777     5439.935        5.645        2.615      245.284       76.509        0.097      339.092       12.186      862.313
03/10/2014  12:59:00     -639.845     -161.958      -26.637      358.013      216.612      103.849   128173.233    46920.886    10784.556       31.107        9.294      660.024      128.492        0.038      338.690       11.511      862.301
03/10/2014  13:00:00     -623.538     -204.371      -46.895      226.884      172.004       77.448    51476.486    29585.487     5998.222       25.990        4.353      656.176       76.067        0.013      338.683       11.498      862.302
03/10/2014  13:01:00     -495.590      -41.533       -6.116      248.774      178.288      100.918    61888.670    31786.567    10184.465       17.560        5.193      497.327      125.104        0.063      338.858       11.793      862.330
03/10/2014  13:02:00     -248.878     -169.673       13.984      269.443      203.263      126.976    72599.716    41315.740    16122.876       11.046        6.502      301.213      139.006        0.213      338.943       11.935      862.308
03/10/2014  13:03:00     -538.922      -84.435      -26.573      226.865      166.286       94.888    51467.589    27650.972     9003.820       19.318        4.406      545.496       97.686        0.032      338.762       11.630      862.389
03/10/2014  13:04:00     -359.118     -293.583       -6.945      237.993      155.719      102.048    56640.689    24248.323    10413.895       15.324        4.565      463.850      108.678        0.055      338.862       11.799      862.370
03/10/2014  13:05:00     -343.409      -94.169        3.517      211.407      172.237       97.851    44692.774    29665.459     9574.771       10.535        4.197      356.086       98.525        0.077      339.084       12.172      862.428
03/10/2014  13:06:00     -271.429     -141.983       13.391      277.356      235.358      109.054    76926.191    55393.265    11892.694       11.908        7.211      306.322      132.478        0.187      339.201       12.370      862.429
03/10/2014  13:07:00     -321.066      -73.843      -13.583      170.717      193.941       84.601    29144.188    37612.924     7157.286        9.130        3.696      329.448       80.947        0.060      338.892       11.849      862.453
03/10/2014  13:08:00     -406.739      -54.918      -15.415      201.317      133.208       75.111    40528.443    17744.258     5641.644       11.629        3.196      410.430       92.965        0.051      339.053       12.120      862.494
03/10/2014  13:09:00     -441.220      -18.733      -27.633      223.314      196.639       88.983    49869.009    38666.705     7917.967       14.610        4.823      441.618      111.793        0.064      339.158       12.295      862.534
03/10/2014  13:10:00     -585.096      -84.614      -33.094      206.172      178.151       99.673    42506.813    31737.796     9934.741       21.737        4.209      591.183       95.749        0.026      338.851       11.780      862.543
03/10/2014  13:11:00     -499.321     -181.970      -19.652      225.551      154.290       88.368    50873.410    23805.507     7808.911       18.264        4.124      531.446       90.319        0.029      338.830       11.746      862.494
03/10/2014  13:12:00     -628.404     -136.744      -51.162      264.808      185.423       83.755    70123.067    34381.789     7014.930       26.384        5.576      643.110       77.740        0.015      338.630       11.408      862.472
03/10/2014  13:13:00     -485.993      -11.021      -34.363      208.958      151.054       86.961    43663.381    22817.445     7562.131       15.575        3.702      486.118       89.477        0.034      338.950       11.947      862.516
03/10/2014  13:14:00     -410.532      -91.097      -27.344      256.828      193.242       89.656    65960.445    37342.527     8038.149       14.444        5.567      420.518      113.262        0.073      339.067       12.144      862.498
03/10/2014  13:15:00     -342.042     -139.941        8.454      253.742      193.928      107.207    64384.766    37607.943    11493.289       12.504        5.674      369.563      120.378        0.106      339.107       12.211      862.450
03/10/2014  13:16:00     -306.214       24.630      -78.910      225.642      164.522       96.177    50914.151    27067.547     9249.978        9.390        4.362      307.203       91.882        0.089      338.982       12.001      862.431
03/10/2014  13:17:00     -450.086      -86.760      -33.169      310.250      175.700       82.455    96254.894    30870.594     6798.746       17.254        6.696      458.372      101.786        0.049      338.987       12.009      862.473
03/10/2014  13:18:00     -490.439      -61.123      -20.154      251.789      174.660      104.672    63397.804    30506.175    10956.183       17.475        5.243      494.233       83.397        0.028      338.933       11.919      862.524
03/10/2014  13:19:00     -557.679     -139.946      -11.217      241.421      184.989       91.573    58284.151    34220.893     8385.558       21.578        5.045      574.970       97.684        0.029      338.736       11.586      862.507
03/10/2014  13:20:00     -571.306     -109.809      -14.855      321.385      176.293      111.468   103288.350    31079.053    12425.119       24.270        7.340      581.764      139.793        0.058      338.748       11.608      862.520
03/10/2014  13:21:00     -467.576     -171.274      -38.064      199.577      173.385       80.252    39830.989    30062.217     6440.434       16.286        3.817      497.958       80.567        0.026      338.950       11.947      862.565
03/10/2014  13:22:00     -267.168      -53.858       -2.428      217.133      187.447       87.120    47146.721    35136.500     7589.877        8.206        4.494      272.543       76.133        0.078      339.108       12.214      862.594
03/10/2014  13:23:00     -350.668       -4.683      -22.897      249.666      210.019      123.730    62333.211    44107.973    15309.069       12.261        6.088      350.699      125.874        0.129      338.898       11.859      862.589
03/10/2014  13:24:00     -345.820      -81.217      -17.683      232.310      205.379      100.057    53967.791    42180.471    10011.448       11.631        5.308      355.229       78.966        0.049      338.784       11.669      862.576
03/10/2014  13:25:00     -154.557       23.925      -20.850      179.956      179.366       91.352    32384.067    32172.235     8345.185        4.888        3.645      156.397       62.496        0.160      338.993       12.022      862.554
03/10/2014  13:26:00     -229.797      130.946      -18.667      193.868      167.925      104.643    37584.837    28198.704    10950.081        7.350        3.837      264.487      102.057        0.149      338.901       11.863      862.594
03/10/2014  13:27:00     -407.657      -59.848      -59.806      201.878      181.934       87.249    40754.567    33099.868     7612.373       12.739        4.073      412.027       76.035        0.034      338.902       11.866      862.585
03/10/2014  13:28:00     -209.578     -107.952      -16.922      215.463      133.178      103.115    46424.304    17736.358    10632.639        6.531        3.740      235.747       69.392        0.087      338.732       11.581      862.548
03/10/2014  13:29:00     -435.910     -113.676       -2.058      232.560      216.541      105.563    54084.158    46890.196    11143.469       15.751        5.606      450.488      110.794        0.060      338.723       11.564      862.536
03/10/2014  13:30:00     -274.086       76.844       -5.174      211.495      115.630       91.183    44730.321    13370.185     8314.370        7.372        3.321      284.654      110.485        0.151      338.974       11.988      862.594
03/10/2014  13:31:00     -296.496       49.205      -43.223      126.153      141.976       79.843    15914.474    20157.260     6374.891        6.731        2.122      300.551       61.639        0.042      338.749       11.610      862.637
03/10/2014  13:32:00     -296.226      124.941      -36.218      203.783      211.199      129.326    41527.406    44605.224    16725.258       10.374        5.143      321.496      102.482        0.102      338.566       11.301      862.657
03/10/2014  13:33:00     -363.262      171.827      -34.048      234.538      190.340      120.130    55008.094    36229.168    14431.102       13.413        5.283      401.850      118.974        0.088      338.580       11.325      862.626
03/10/2014  13:34:00     -321.784      112.879      -38.962      204.513      195.450      113.661    41825.633    38200.704    12918.867       10.536        4.647      341.009      113.865        0.111      338.741       11.596      862.656
03/10/2014  13:35:00     -294.620      -19.304      -48.893      127.414      220.586       86.006    16234.228    48657.999     7397.069        8.091        3.614      295.251       93.452        0.100      338.850       11.780      862.654
03/10/2014  13:36:00     -278.354      -22.116      -23.092      169.367      222.941       96.060    28685.248    49702.764     9227.616        8.304        4.381      279.231       84.840        0.092      339.036       12.092      862.699
03/10/2014  13:37:00     -330.805       91.817      -39.402      245.764      213.070      131.366    60399.784    45398.763    17256.986       12.121        6.153      343.310      143.012        0.174      338.588       11.338      862.711
03/10/2014  13:38:00     -315.264       24.234      -53.476      183.417      244.952       87.524    33641.740    60001.565     7660.511       10.205        5.065      316.194       33.495        0.011      338.704       11.533      862.696
03/10/2014  13:39:00     -555.817       28.742      -49.317      280.891      212.564      109.952    78899.715    45183.579    12089.485       22.415        6.809      556.560      118.407        0.045      338.634       11.415      862.701
03/10/2014  13:40:00     -526.400     -131.728      -12.567      249.707      195.281      100.455    62353.666    38134.671    10091.137       20.257        5.529      542.632      103.851        0.037      338.668       11.471      862.722
03/10/2014  13:41:00     -782.563      -61.035      -66.122      201.135      224.534      113.175    40455.378    50415.458    12808.688       36.207        5.184      784.940      112.018        0.020      338.468       11.136      862.752
03/10/2014  13:42:00     -577.009      -30.903      -50.898      158.181      151.122       75.292    25021.214    22837.789     5668.918       19.500        2.676      577.836       73.385        0.016      338.606       11.367      862.765
03/10/2014  13:43:00     -574.646      -24.347      -56.773      232.775      174.929       88.904    54184.244    30600.084     7903.997       21.334        4.634      575.162       72.174        0.016      338.646       11.436      862.842
03/10/2014  13:44:00     -530.651      -14.897      -41.635      267.967      179.752      102.996    71806.458    32310.859    10608.260       19.911        5.736      530.860      107.509        0.041      338.501       11.193      862.828
03/10/2014  13:45:00     -190.706       98.331       -5.051      179.370      153.438       89.049    32173.616    23543.345     7929.656        5.484        3.182      214.564       68.303        0.101      338.773       11.650      862.763
03/10/2014  13:46:00     -272.597      -36.597      -34.043      174.938      162.081       88.711    30603.384    26270.094     7869.646        7.076        3.237      275.043       78.027        0.080      339.139       12.265      862.797
03/10/2014  13:47:00     -527.719     -123.736      -31.161      264.868      161.064       96.611    70155.167    25941.758     9333.738       20.008        5.272      542.031      104.396        0.037      339.003       12.037      862.870
03/10/2014  13:48:00     -388.293     -115.846       -7.804      308.314      204.816      127.986    95057.772    41949.702    16380.295       15.879        7.669      405.206      148.935        0.135      338.908       11.876      862.908
03/10/2014  13:49:00     -454.077     -192.010      -18.493      289.195      185.353      111.461    83633.901    34355.572    12423.508       18.688        6.521      493.005      125.037        0.064      338.601       11.360      862.886
03/10/2014  13:50:00     -454.487       95.007      -63.719      210.836      214.135      103.559    44451.833    45853.803    10724.478       16.032        5.052      464.311       85.894        0.034      338.579       11.323      862.899
03/10/2014  13:51:00     -422.417      -83.377      -16.744      220.302      187.546      110.739    48533.045    35173.325    12263.131       14.080        4.798      430.567       96.878        0.051      338.733       11.582      862.908
03/10/2014  13:52:00     -409.870     -126.369      -11.251      262.711      206.480      106.351    69016.902    42634.044    11310.475       15.350        6.148      428.908      107.358        0.063      338.605       11.366      862.875
03/10/2014  13:53:00     -235.989      -22.415      -20.764      226.318      125.484       75.738    51219.840    15746.278     5736.255        6.465        3.635      237.051       87.239        0.135      339.062       12.135      862.933
03/10/2014  13:54:00     -240.838       48.410      -16.824      198.160      132.903       79.963    39267.527    17663.282     6394.080        6.196        3.166      245.655       82.109        0.112      338.951       11.950      862.903
03/10/2014  13:55:00     -406.538     -122.945       -8.556      310.702      191.878      112.723    96535.518    36817.266    12706.530       16.323        7.303      424.722      130.064        0.094      338.999       12.030      862.914
03/10/2014  13:56:00     -580.582      -91.099      -30.867      283.082      219.983      110.041    80135.389    48392.607    12109.061       24.345        7.032      587.686      126.296        0.046      338.585       11.332      862.942
03/10/2014  13:57:00     -802.769       61.024      -65.015      227.075      239.264      114.914    51562.971    57247.207    13205.293       38.718        6.101      805.085      106.863        0.018      338.322       10.892      862.898
03/10/2014  13:58:00     -297.000      -50.910        8.173      195.831      163.390       91.349    38349.753    26696.402     8344.562        8.211        3.670      301.332       94.875        0.099      338.762       11.631      862.868
03/10/2014  13:59:00     -153.597      -18.069        0.492      117.159      124.075       67.927    13726.335    15394.599     4614.085        2.882        1.687      154.656       66.087        0.183      339.113       12.220      862.895
03/10/2014  14:00:00     -310.875      -30.120       -8.050      176.348      133.411       72.545    31098.741    17798.582     5262.831        7.588        2.708      312.331       68.184        0.048      339.165       12.309      862.912
03/10/2014  14:01:00     -434.064      -92.165      -12.589      220.164      189.399       95.415    48472.064    35871.870     9104.058       14.524        4.672      443.740       96.477        0.047      338.886       11.839      862.973
03/10/2014  14:02:00     -613.361     -135.591      -51.763      255.001      248.204      100.455    65025.760    61605.386    10091.285       26.697        6.836      628.169       84.307        0.018      338.522       11.226      862.933
03/10/2014  14:03:00     -654.080     -175.130      -43.656      249.435      278.587      126.593    62217.774    77610.572    16025.702       30.809        7.793      677.119      114.059        0.028      338.453       11.110      862.950
03/10/2014  14:04:00     -434.749     -159.285        1.792      240.272      161.854       90.803    57730.829    26196.824     8245.195       15.326        4.609      463.010      110.908        0.057      338.800       11.695      862.972
03/10/2014  14:05:00     -394.411     -178.605       -2.971      302.247      153.900       82.605    91353.523    23685.267     6823.551       15.464        6.093      432.966       82.828        0.037      338.770       11.646      863.005
03/10/2014  14:06:00     -273.519       22.494       -2.975      222.556      122.066       87.894    49531.203    14900.195     7725.407        7.373        3.608      274.442      110.792        0.163      339.091       12.185      863.027
03/10/2014  14:07:00     -547.162      -97.044      -58.636      342.639      233.940      102.114   117401.487    54727.813    10427.201       24.736        9.128      555.701      123.648        0.050      338.806       11.706      863.028
03/10/2014  14:08:00     -783.880     -176.508      -65.094      230.701      226.195      109.926    53222.927    51164.174    12083.744       38.314        5.824      803.507       91.179        0.013      338.460       11.122      863.030
03/10/2014  14:09:00     -459.101      -91.619      -22.699      213.064      216.388       96.266    45396.205    46823.632     9267.174       16.057        5.074      468.154       90.193        0.037      338.597       11.353      863.031
03/10/2014  14:10:00     -172.806      -38.183        5.061      198.708      169.421       71.782    39484.933    28703.598     5152.594        5.233        3.667      176.974       74.385        0.177      338.983       12.005      863.031
03/10/2014  14:11:00     -108.371      107.479       -1.779      133.014       86.232       70.414    17692.736     7435.949     4958.074        2.669        1.504      152.631       56.888        0.139      339.201       12.372      863.040
03/10/2014  14:12:00     -200.146      105.171      -13.899      132.099      130.522       72.812    17450.188    17035.999     5301.525        4.554        1.989      226.096       71.842        0.101      338.912       11.884      863.048
03/10/2014  14:13:00     -336.193      -40.580      -16.059      180.491      164.880       83.688    32577.039    27185.311     7003.652        9.083        3.338      338.633       67.117        0.039      338.726       11.569      863.048
03/10/2014  14:14:00     -184.316      -24.135        4.069      155.529      128.747       83.528    24189.146    16575.694     6976.852        4.115        2.387      185.890       74.545        0.161      338.882       11.834      863.061
03/10/2014  14:15:00     -317.949      -87.072      -20.503      229.189      172.653       94.256    52527.556    29809.121     8884.144       10.014        4.561      329.656      111.687        0.115      338.917       11.892      863.058
03/10/2014  14:16:00     -485.310      -59.513      -16.149      189.983      205.268      112.714    36093.726    42134.915    12704.554       16.511        4.547      488.945      102.507        0.044      338.564       11.298      863.093
03/10/2014  14:17:00     -356.683       -9.037      -41.901      209.324      193.678       85.832    43816.552    37510.984     7367.159       10.886        4.435      356.798       87.887        0.061      338.777       11.656      863.090
03/10/2014  14:18:00     -326.980      -47.025      -31.257      154.189      150.568       78.860    23774.283    22670.750     6218.910        8.137        2.633      330.344       78.572        0.057      338.636       11.418      863.089
03/10/2014  14:19:00     -336.243       17.938      -27.412      262.729      192.681      100.779    69026.273    37125.880    10156.341       11.520        5.815      336.721      112.760        0.112      338.754       11.618      863.061
03/10/2014  14:20:00     -469.905     -197.722       -8.424      268.613      208.458      113.549    72152.884    43454.586    12893.484       19.421        6.425      509.808       95.446        0.035      338.701       11.528      863.075
03/10/2014  14:21:00     -642.998     -199.290      -15.606      210.486      215.109      108.857    44304.455    46271.964    11849.772       27.790        5.121      673.174       90.959        0.018      338.406       11.032      863.088
03/10/2014  14:22:00     -468.558      -64.698      -49.002      247.014      147.765      110.805    61015.985    21834.422    12277.746       16.061        4.756      473.004      122.648        0.067      338.637       11.421      863.089
03/10/2014  14:23:00     -488.287     -104.271      -30.422      204.914      137.153       79.095    41989.802    18811.037     6256.067       15.863        3.353      499.297       79.287        0.025      338.506       11.201      863.103
03/10/2014  14:24:00     -592.249       -4.313      -55.861      212.482      169.634       78.391    45148.606    28775.691     6145.138       21.697        4.003      592.265       79.384        0.018      338.445       11.098      863.113
03/10/2014  14:25:00     -623.268      -50.713      -35.056      201.174      195.446      111.112    40471.148    38199.020    12345.819       24.162        4.551      625.328      108.574        0.030      338.598       11.355      863.108
03/10/2014  14:26:00     -377.288     -106.042        0.706      202.496      209.467      102.151    41004.674    43876.633    10434.751       12.444        4.766      391.907      116.649        0.089      338.887       11.842      863.098
03/10/2014  14:27:00     -557.464      -14.877      -38.742      281.157      208.357      112.492    79049.031    43412.799    12654.467       22.378        6.756      557.662      131.232        0.055      338.592       11.346      863.133
03/10/2014  14:28:00     -574.469       21.990      -39.934      234.894      206.883       99.143    55175.157    42800.706     9829.366       21.993        5.390      574.890      100.273        0.030      338.719       11.557      863.158
03/10/2014  14:29:00     -618.689     -236.413      -21.869      278.150      212.564      110.025    77367.266    45183.502    12105.598       28.687        6.733      662.320      130.584        0.039      338.380       10.988      863.169
03/10/2014  14:30:00     -617.229     -178.118      -10.834      223.684      184.473       93.731    50034.525    34030.163     8785.562       25.281        4.643      642.415      103.968        0.026      338.525       11.234      863.168
03/10/2014  14:31:00     -418.312     -113.076      -31.691      211.063      173.341       88.117    44547.389    30047.003     7764.642       13.555        4.118      433.326       89.790        0.043      338.586       11.335      863.181
03/10/2014  14:32:00     -440.732       -2.958      -28.443      216.280      183.863       99.202    46777.250    33805.743     9841.081       14.273        4.521      440.742      103.972        0.056      338.649       11.442      863.200
03/10/2014  14:33:00     -376.825     -164.171       -7.852      226.330      192.519      101.749    51225.279    37063.511    10352.941       13.381        4.932      411.034       97.125        0.056      338.795       11.686      863.216
03/10/2014  14:34:00     -271.133        2.333      -36.962      210.600      120.117       74.349    44352.396    14428.025     5527.753        6.958        3.215      271.143       95.158        0.123      338.784       11.670      863.277
03/10/2014  14:35:00     -380.412      -28.543      -32.673      249.546      138.480       84.520    62273.111    19176.752     7143.639       11.758        4.430      381.481       91.853        0.058      338.321       10.890      863.290
03/10/2014  14:36:00     -461.176     -110.722      -38.844      226.295      160.558       88.241    51209.521    25778.895     7786.398       15.560        4.239      474.281       90.208        0.036      338.409       11.039      863.269
03/10/2014  14:37:00     -245.531      -66.987       -9.788      176.654      139.394       64.237    31206.618    19430.781     4126.365        5.981        2.738      254.505       66.369        0.068      338.490       11.173      863.288
03/10/2014  14:38:00     -343.116     -102.646      -14.454      187.696      123.208       74.809    35229.958    15180.289     5596.349        9.223        2.800      358.141       58.009        0.026      338.507       11.201      863.281
03/10/2014  14:39:00     -437.064     -151.137        0.919      319.461      170.631      100.390   102055.357    29115.057    10078.212       17.753        7.062      462.457      127.321        0.076      338.728       11.573      863.251
03/10/2014  14:40:00     -466.702      -64.587      -31.306      235.153      172.845       88.911    55296.862    29875.382     7905.126       15.800        4.654      471.150      103.003        0.048      338.601       11.360      863.307
03/10/2014  14:41:00     -401.189       32.638      -45.637      240.000      144.361      106.702    57599.801    20840.011    11385.223       12.694        4.491      402.514      129.369        0.103      338.578       11.321      863.337
03/10/2014  14:42:00     -441.540      -79.431      -30.854      239.418      212.671      107.582    57320.859    45229.153    11573.951       15.815        5.706      448.627      110.764        0.061      338.502       11.194      863.346
03/10/2014  14:43:00     -399.311       26.370      -72.001      119.081      181.921       73.869    14180.307    33095.175     5456.671       10.902        2.637      400.181       46.470        0.013      338.564       11.298      863.383
03/10/2014  14:44:00     -401.050     -103.040      -52.147      189.849      115.176       82.286    36042.713    13265.480     6771.009       11.512        2.804      414.076       79.886        0.037      338.379       10.987      863.401
03/10/2014  14:45:00     -278.270       -4.351      -18.328      187.798      135.350       84.273    35268.125    18319.575     7101.866        6.923        3.034      278.304       99.608        0.128      338.458       11.120      863.387
03/10/2014  14:46:00     -128.487      -98.452       -1.933      178.372       78.141       69.266    31816.562     6106.011     4797.720        3.445        2.136      161.869       67.624        0.175      338.737       11.590      863.371
03/10/2014  14:47:00     -586.890     -110.849      -33.076      259.661      175.001      107.175    67423.983    30625.403    11486.386       23.366        5.477      597.266      124.701        0.044      338.338       10.920      863.337
03/10/2014  14:48:00     -381.939      -93.581      -16.077      293.450      147.792       77.630    86112.866    21842.547     6026.378       13.442        5.699      393.237       92.857        0.056      338.681       11.495      863.360
03/10/2014  14:49:00     -427.796      -82.876      -43.127      210.581      142.253       89.370    44344.503    20236.045     7987.000       13.214        3.628      435.750       87.028        0.040      338.424       11.063      863.402
03/10/2014  14:50:00     -373.655      -46.075      -42.079      173.651      171.359       78.920    30154.590    29363.774     6228.413       10.462        3.287      376.485       68.238        0.033      338.436       11.081      863.395
03/10/2014  14:51:00     -223.606       -5.849      -17.812      101.992       90.846       49.462    10402.375     8252.988     2446.469        3.572        1.055      223.682       40.790        0.033      338.484       11.166      863.407
03/10/2014  14:52:00     -125.606      -69.593       -1.908      104.845       82.071       46.767    10992.566     6735.633     2187.174        2.027        0.996      143.597       48.184        0.113      338.569       11.307      863.351
03/10/2014  14:53:00     -482.268      -19.297      -41.730      186.995      179.162       68.533    34967.296    32098.991     4696.746       15.322        3.588      482.654       56.075        0.013      338.565       11.299      863.340
03/10/2014  14:54:00     -370.675     -127.416      -31.405      177.296      158.346       90.342    31433.750    25073.587     8161.633       10.963        3.233      391.963       87.906        0.050      338.507       11.203      863.345
03/10/2014  14:55:00     -538.745       -8.030      -32.998      140.351      125.557       79.901    19698.534    15764.597     6384.223       16.661        2.092      538.805       76.387        0.020      338.445       11.098      863.378
03/10/2014  14:56:00     -272.573       -2.919      -37.679      184.465      132.756       90.202    34027.171    17624.183     8136.478        6.774        2.989      272.588       84.660        0.096      338.582       11.329      863.386
03/10/2014  14:57:00     -140.940       46.740       13.977      166.488      107.702       81.714    27718.093    11599.710     6677.219        3.411        2.300      148.488       83.449        0.316      338.574       11.316      863.361
03/10/2014  14:58:00     -195.251      -15.768      -11.282      133.465      114.856       81.127    17812.874    13191.937     6581.655        3.804        1.879      195.887       67.291        0.118      338.370       10.973      863.381
03/10/2014  14:59:00     -308.333       89.622      -43.361      137.726      175.485       73.739    18968.381    30795.158     5437.506        8.008        2.760      321.094       65.336        0.041      338.210       10.703      863.424
03/10/2014  15:00:00     -272.264       56.379      -44.771      111.894      153.419       68.249    12520.230    23537.275     4657.924        6.000        2.036      278.040       48.497        0.030      338.311       10.873      863.431
03/10/2014  15:01:00      -94.425       13.116       16.046      105.444       75.786       48.998    11118.352     5743.529     2400.840        1.430        0.963       95.332       49.282        0.267      338.753       11.618      863.400
03/10/2014  15:02:00     -169.022      -59.652        5.631      194.596      187.013       79.903    37867.689    34974.011     6384.417        5.568        3.961      179.239       85.827        0.229      338.725       11.570      863.390
03/10/2014  15:03:00     -439.824     -130.352      -28.194      187.700      160.465       84.524    35231.412    25748.977     7144.370       13.966        3.406      458.734       90.202        0.039      338.542       11.261      863.405
03/10/2014  15:04:00     -536.758       30.219      -48.270      197.395      161.899       87.754    38964.818    26211.166     7700.696       18.210        3.644      537.608       90.230        0.028      338.197       10.681      863.384
03/10/2014  15:05:00     -449.950       82.851      -41.572      173.094      138.508       72.777    29961.613    19184.496     5296.558       13.273        2.722      457.514       74.002        0.026      338.391       11.007      863.347
03/10/2014  15:06:00     -376.915      -68.949      -18.471      241.385      155.941       83.646    58266.910    24317.444     6996.672       11.835        4.479      383.170      121.503        0.101      338.549       11.274      863.283
03/10/2014  15:07:00     -276.834     -131.651        1.190      235.558      161.862       99.333    55487.445    26199.188     9867.086        9.274        4.578      306.544      108.810        0.126      338.787       11.673      863.284
03/10/2014  15:08:00     -527.858     -132.416      -23.531      187.779      166.591       75.120    35260.962    27752.488     5642.991       18.268        3.433      544.213       70.711        0.017      338.706       11.536      863.319
03/10/2014  15:09:00     -244.260      -58.801        7.971      195.042      116.652       84.089    38041.442    13607.689     7070.920        6.094        2.936      251.238       89.147        0.126      338.699       11.526      863.310
03/10/2014  15:10:00     -198.964       55.088       17.135      172.739      132.357       83.571    29838.804    17518.483     6984.152        4.862        2.717      206.449       84.987        0.169      339.106       12.211      863.301
03/10/2014  15:11:00     -257.165      -20.729       -8.021      128.886       96.911       57.912    16611.545     9391.724     3353.766        4.799        1.468      257.999       57.933        0.050      339.082       12.169      863.334
03/10/2014  15:12:00     -338.712       73.131      -47.336      196.000      120.112       77.263    38416.036    14426.917     5969.530        9.055        2.941      346.516       90.566        0.068      338.955       11.955      863.373
03/10/2014  15:13:00     -227.721      104.031      -24.733      126.997      195.434       89.315    16128.158    38194.320     7977.229        6.278        3.115      250.358       76.387        0.093      338.931       11.916      863.374
03/10/2014  15:14:00     -291.489      -84.831      -15.118      193.243      124.785       68.865    37342.787    15571.266     4742.334        7.501        2.883      303.582       68.055        0.050      338.833       11.751      863.358
03/10/2014  15:15:00     -335.618     -115.539       -3.639      264.953      166.094      104.356    70200.194    27587.078    10890.109       11.732        5.434      354.949      127.615        0.129      338.711       11.545      863.325
03/10/2014  15:16:00     -290.415       54.779      -32.038      158.407      136.197       89.526    25092.671    18549.490     8014.982        7.000        2.583      295.536       71.900        0.059      338.550       11.276      863.426
03/10/2014  15:17:00     -118.064      -37.596        4.005      140.412      123.301       69.841    19715.668    15203.223     4877.823        2.757        1.990      123.906       72.750        0.345      338.804       11.703      863.417
03/10/2014  15:18:00     -212.553      121.152      -45.120      168.447      159.097      100.283    28374.289    25311.859    10056.580        6.280        3.187      244.656      119.958        0.240      338.763       11.633      863.422
03/10/2014  15:19:00     -183.415       65.459        1.039      184.565      195.268       85.216    34064.183    38129.688     7261.691        5.868        3.973      194.745       93.091        0.228      338.853       11.783      863.396
03/10/2014  15:20:00     -297.861      151.651      -35.260      183.583      138.625       91.070    33702.615    19216.920     8293.789        8.708        3.061      334.244       86.041        0.066      338.334       10.913      863.383
03/10/2014  15:21:00     -226.572      125.629      -29.305      155.489      139.832       79.075    24176.715    19553.073     6252.934        5.897        2.499      259.070       95.211        0.135      338.433       11.078      863.367
03/10/2014  15:22:00     -123.649       44.821       -6.522      121.199      141.594       58.578    14689.153    20048.883     3431.415        2.775        1.908      131.522       52.679        0.160      338.854       11.786      863.328
03/10/2014  15:23:00     -318.582      -58.903      -14.503      177.338      121.828       78.542    31448.909    14842.112     6168.908        7.881        2.623      323.981       60.796        0.035      338.652       11.446      863.374
03/10/2014  15:24:00     -329.892      131.839      -51.517      204.219      118.288       77.666    41705.300    13992.039     6032.010        9.528        3.086      355.261       94.572        0.071      338.308       10.868      863.337
03/10/2014  15:25:00     -228.805      129.391      -23.548      128.264      139.239       85.638    16451.778    19387.420     7333.794        5.640        2.159      262.857       76.692        0.085      338.584       11.332      863.356
03/10/2014  15:26:00     -273.344      -20.190       -8.255      218.082      173.375       89.470    47559.935    30058.746     8004.917        8.039        4.281      274.089       99.167        0.131      338.447       11.102      863.314
03/10/2014  15:27:00     -246.008       29.657      -29.513      169.311      135.385       78.334    28666.198    18329.077     6136.166        5.769        2.657      247.790       79.938        0.104      338.568       11.305      863.356
03/10/2014  15:28:00     -136.254      -40.862       27.680      137.917      121.474       81.786    19020.985    14755.824     6689.008        3.073        2.023      142.250       78.843        0.307      338.855       11.790      863.332
03/10/2014  15:29:00     -123.372       -4.653        3.671      109.589      106.719       52.820    12009.812    11388.886     2789.984        2.072        1.309      123.459       57.131        0.214      338.963       11.969      863.325
03/10/2014  15:30:00     -343.877      -19.049      -41.512      202.270      169.453       70.186    40913.215    28714.173     4926.125        9.743        3.728      344.404       96.260        0.078      338.805       11.705      863.334
03/10/2014  15:31:00     -387.783      -61.824      -52.293      191.029      167.505       72.440    36492.014    28058.000     5247.571       11.335        3.490      392.680       70.528        0.032      338.426       11.065      863.353
03/10/2014  15:32:00     -119.277       -5.107      -24.682       97.637       75.050       56.523     9532.915     5632.459     3194.876        1.661        0.918      119.387       52.517        0.194      339.021       12.068      863.373
03/10/2014  15:33:00     -183.312      106.090      -33.453      200.963      158.291       79.408    40386.119    25055.962     6305.690        5.885        3.587      211.798       84.801        0.160      339.024       12.073      863.376
03/10/2014  15:34:00     -231.264       31.690      -24.197      148.983      154.566       95.518    22195.900    23890.513     9123.703        5.513        2.761      233.425       83.563        0.128      338.656       11.454      863.389
03/10/2014  15:35:00     -153.467       76.873      -30.731       97.047      159.690       70.704     9418.068    25500.866     4999.045        3.515        1.996      171.643       30.251        0.031      338.769       11.643      863.401
03/10/2014  15:36:00     -130.210      178.243      -17.161      118.662      149.013       68.046    14080.607    22204.908     4630.294        4.496        2.046      220.738       58.189        0.069      338.641       11.428      863.439
03/10/2014  15:37:00     -187.924      259.218      -41.018      153.308      155.663       88.161    23503.329    24231.078     7772.357        7.984        2.775      320.171       96.207        0.090      338.386       10.999      863.451
03/10/2014  15:38:00     -164.464      366.768      -29.901      163.592      217.818       88.519    26762.394    47444.835     7835.661       12.224        4.102      401.954       91.062        0.051      338.434       11.079      863.431
03/10/2014  15:39:00     -308.153      298.165      -66.121      131.958      149.491       77.108    17412.937    22347.686     5945.710       11.696        2.285      428.790       66.020        0.024      338.336       10.915      863.442
03/10/2014  15:40:00     -255.148      368.699      -58.204      152.321      168.637       88.774    23201.738    28438.536     7880.894       13.196        2.976      448.374       91.670        0.042      338.298       10.851      863.414
03/10/2014  15:41:00     -227.259      315.127      -54.029      112.827      115.298       67.581    12729.835    13293.671     4567.165        9.222        1.530      388.525       66.541        0.029      338.431       11.075      863.359
03/10/2014  15:42:00     -237.675      376.663      -55.906      149.994      258.984       78.323    22498.170    67072.732     6134.528       14.858        4.785      445.382       72.328        0.026      338.546       11.268      863.356
03/10/2014  15:43:00     -236.636      106.702      -25.311      183.492      178.945       86.659    33669.167    32021.186     7509.764        7.060        3.660      259.580      103.286        0.158      338.802       11.699      863.401
03/10/2014  15:44:00     -253.216       71.026      -29.120      139.175      137.426       74.298    19369.656    18885.776     5520.156        5.688        2.189      262.988       64.421        0.060      338.847       11.773      863.419
03/10/2014  15:45:00     -262.689      -82.870      -31.816      129.609      128.707       62.285    16798.480    16565.520     3879.478        5.706        1.862      275.451       49.313        0.032      338.754       11.617      863.407
03/10/2014  15:46:00     -422.080      -71.519      -37.959      213.618      137.552       74.056    45632.460    18920.436     5484.219       12.736        3.502      428.096       95.157        0.049      338.557       11.285      863.440
03/10/2014  15:47:00     -424.334     -122.276      -32.978      174.374      131.683       89.487    30406.361    17340.376     8008.005       12.591        2.788      441.600       94.097        0.045      338.349       10.939      863.435
03/10/2014  15:48:00     -240.565        1.263      -28.551      116.116       99.233       53.960    13482.857     9847.118     2911.673        4.246        1.312      240.568       59.247        0.061      338.499       11.188      863.446
03/10/2014  15:49:00      -64.494       25.968        8.492       86.568       94.142       46.491     7493.939     8862.733     2161.367        1.171        0.926       69.526       43.526        0.392      338.757       11.625      863.411
03/10/2014  15:50:00     -138.550       63.514       -2.862       83.712       90.932       51.717     7007.632     8268.635     2674.632        2.059        0.898      152.414       35.188        0.053      338.906       11.875      863.405
03/10/2014  15:51:00     -116.003      161.500      -19.588       70.702       95.828       48.629     4998.769     9183.004     2364.773        2.823        0.827      198.844       35.330        0.032      338.928       11.910      863.394
03/10/2014  15:52:00     -148.922      374.661      -32.551      137.187      185.806       91.429    18820.160    34523.826     8359.174       11.264        3.085      403.173       90.248        0.050      338.673       11.481      863.402
03/10/2014  15:53:00     -129.109      351.592      -37.387       90.070      116.755       66.312     8112.536    13631.628     4397.308        8.391        1.307      374.548       68.004        0.033      338.363       10.960      863.426
03/10/2014  15:54:00     -185.677      310.267      -41.618      131.726      135.913       85.253    17351.815    18472.308     7268.022        8.777        2.155      361.582       92.764        0.066      338.543       11.264      863.442
03/10/2014  15:55:00     -240.674      314.200      -54.419      167.733      135.570       90.376    28134.447    18379.153     8167.842       10.713        2.734      395.785       98.050        0.061      338.561       11.293      863.471
03/10/2014  15:56:00     -262.873      458.064      -52.839      150.902      190.104       99.359    22771.340    36139.476     9872.258       17.524        3.439      528.133       85.661        0.026      338.365       10.963      863.455
03/10/2014  15:57:00     -266.553      131.187      -62.375      138.105      172.005       71.811    19073.101    29585.880     5156.809        7.297        2.691      297.087       63.245        0.045      338.719       11.557      863.453
03/10/2014  15:58:00     -260.433      189.460      -40.699      181.805      136.532       83.929    33052.931    18640.861     7044.123        8.205        2.937      322.056       81.788        0.064      338.527       11.237      863.488
03/10/2014  15:59:00     -360.622       98.987      -47.362      211.412      166.452       93.054    44694.829    27706.359     8659.069       11.156        4.053      373.961       97.734        0.068      338.432       11.076      863.477
03/10/2014  16:00:00     -336.688      101.280      -39.701      218.970      210.839       94.304    47947.784    44453.053     8893.296       11.322        5.065      351.591      111.710        0.101      338.476       11.152      863.486
03/10/2014  16:01:00     -212.240       78.890      -11.549      134.228      162.988       85.303    18017.155    26565.217     7276.630        5.162        2.593      226.428       71.274        0.099      338.709       11.541      863.497
03/10/2014  16:02:00     -337.003       55.219      -51.782      151.634      166.408       83.763    22992.877    27691.699     7016.313        8.849        2.885      341.497       66.933        0.038      338.638       11.422      863.502
03/10/2014  16:03:00     -196.470      127.380      -11.411      118.724      169.934       72.866    14095.391    28877.710     5309.505        5.161        2.414      234.149       61.552        0.069      338.795       11.687      863.549
03/10/2014  16:04:00     -165.585      152.844      -26.856      122.648      136.811       74.593    15042.486    18717.246     5564.090        4.540        1.966      225.344       69.983        0.096      338.938       11.928      863.593
03/10/2014  16:05:00     -293.229      137.708      -32.088      183.248      118.052       85.997    33579.793    13936.335     7395.505        8.043        2.746      323.955       93.819        0.084      338.437       11.084      863.615
03/10/2014  16:06:00     -321.993      272.022      -65.542      167.794      174.005       96.577    28154.807    30277.777     9327.202       12.485        3.388      421.516       92.903        0.049      338.307       10.867      863.597
03/10/2014  16:07:00     -342.929      125.887      -43.139      177.156      175.317       98.943    31384.169    30735.938     9789.722       10.359        3.595      365.305      103.942        0.081      338.465       11.130      863.605
03/10/2014  16:08:00     -387.107      132.036      -41.182      213.164      192.466       95.337    45438.878    37043.193     9089.094       13.026        4.579      409.005      115.367        0.080      338.450       11.106      863.633
03/10/2014  16:09:00     -314.705       57.591      -50.236      174.148      161.756       69.405    30327.520    26165.002     4817.021        8.308        3.065      319.931       64.917        0.041      338.347       10.935      863.648
03/10/2014  16:10:00     -149.600      122.135      -21.485       76.256      142.580       52.262     5815.007    20328.991     2731.343        3.331        1.444      193.125       46.248        0.057      338.612       11.380      863.652
03/10/2014  16:11:00     -125.772      295.937      -31.732       81.450      124.359       56.428     6634.082    15465.132     3184.074        6.484        1.264      321.555       52.034        0.026      338.273       10.810      863.672
03/10/2014  16:12:00      -80.504       48.189      -13.421       90.759       82.134       44.871     8237.200     6745.970     2013.398        1.299        0.850       93.825       36.008        0.147      338.525       11.235      863.647
03/10/2014  16:13:00     -199.538      -14.806       -8.909      126.958      123.718       60.771    16118.253    15306.245     3693.096        3.761        1.756      200.086       55.434        0.077      338.444       11.099      863.653
03/10/2014  16:14:00     -186.958      237.704      -22.939      142.669      199.252       81.941    20354.549    39701.189     6714.390        7.936        3.339      302.418       97.558        0.104      338.442       11.093      863.644
03/10/2014  16:15:00     -260.071      121.082      -49.052      127.339      177.513       85.744    16215.234    31511.024     7352.043        6.988        2.754      286.876       63.339        0.049      338.484       11.163      863.611
03/10/2014  16:16:00     -234.416       98.650      -27.420      196.450      101.665       80.763    38592.776    10335.821     6522.633        6.043        2.773      254.328       78.996        0.096      338.584       11.333      863.588
03/10/2014  16:17:00     -109.560      314.883      -29.786      101.933      142.437       81.186    10390.417    20288.243     6591.102        7.465        1.863      333.398       79.806        0.057      338.378       10.986      863.564
03/10/2014  16:18:00     -132.512      233.795      -16.410      216.227      154.802       78.300    46754.090    23963.658     6130.912        7.465        3.842      268.737       89.687        0.111      338.486       11.168      863.572
03/10/2014  16:19:00     -149.360      408.510      -44.654      157.217      198.540       85.811    24717.086    39418.300     7363.603       13.133        3.575      434.959       90.340        0.043      338.268       10.801      863.600
03/10/2014  16:20:00     -198.528      419.497      -58.845      146.702      156.185       85.446    21521.346    24393.728     7300.949       13.602        2.661      464.102       93.685        0.041      338.155       10.610      863.667
03/10/2014  16:21:00     -146.515      384.795      -35.402      127.437      165.267       90.401    16240.166    27313.043     8172.427       11.125        2.586      411.745       73.926        0.032      338.294       10.843      863.691
03/10/2014  16:22:00     -114.895      389.361      -38.804      107.520      133.587       71.637    11560.594    17845.529     5131.806       10.042        1.727      405.959       57.098        0.020      338.344       10.927      863.726
03/10/2014  16:23:00     -123.165      379.477      -39.306      101.271      132.093       64.229    10255.770    17448.538     4125.340        9.627        1.591      398.964       65.308        0.027      338.235       10.745      863.757
03/10/2014  16:24:00     -176.222      377.295      -51.220      142.103      138.461       86.194    20193.357    19171.431     7429.402       11.140        2.340      416.420       85.009        0.042      337.963       10.289      863.787
03/10/2014  16:25:00      -64.509      518.889      -52.362      114.462      156.646       71.690    13101.471    24537.982     5139.405       15.946        2.139      522.883       71.978        0.019      337.777        9.977      863.765
03/10/2014  16:26:00      -39.062      546.116      -66.841      114.350      161.043       79.172    13075.976    25934.855     6268.216       17.475        2.264      547.511       78.843        0.021      337.736        9.908      863.727
03/10/2014  16:27:00      -68.586      520.326      -64.436      141.323      214.265       87.477    19972.100    45909.494     7652.282       17.655        3.677      524.827      110.351        0.044      337.796       10.008      863.702
03/10/2014  16:28:00       28.265      464.116      -58.485      118.413      193.414       81.009    14021.623    37409.072     6562.537       13.880        2.900      464.976       89.772        0.037      337.917       10.211      863.669
03/10/2014  16:29:00      -44.010      351.689      -27.571      116.482      138.386       75.452    13568.065    19150.662     5693.070        8.239        1.921      354.432       75.216        0.045      338.009       10.366      863.678
03/10/2014  16:30:00      -16.707      505.916      -46.448      113.853      216.554       99.864    12962.533    46895.702     9972.912       16.410        3.492      506.192      106.598        0.044      337.809       10.030      863.686
03/10/2014  16:31:00      -40.847      400.398      -40.377       92.066      116.211       70.357     8476.079    13505.051     4950.146        9.527        1.347      402.476       62.652        0.024      337.820       10.050      863.678
03/10/2014  16:32:00      -77.912      520.461      -66.481       94.166      162.656       75.301     8867.194    26457.068     5670.296       16.117        2.050      526.260       77.690        0.022      337.644        9.755      863.693
03/10/2014  16:33:00       -7.018      432.488      -46.578       98.617      201.938       72.742     9725.340    40779.040     5291.455       12.252        2.790      432.545       84.841        0.038      337.835       10.074      863.680
03/10/2014  16:34:00       59.387      322.466      -26.430      129.703      188.911      106.713    16822.879    35687.405    11387.589        8.604        3.195      327.889      115.182        0.123      337.921       10.219      863.661
03/10/2014  16:35:00       56.398      420.377      -26.376      107.267      210.443      115.117    11506.189    44286.139    13251.936       12.480        3.452      424.143      118.571        0.078      337.858       10.112      863.721
03/10/2014  16:36:00       44.107      501.811      -63.795      140.904      223.414       98.030    19854.003    49913.969     9609.978       16.859        3.969      503.746      109.620        0.047      337.745        9.924      863.742
03/10/2014  16:37:00       -0.433      401.930      -28.800      167.163      211.771      103.872    27943.308    44847.153    10789.488       12.296        4.179      401.931      112.972        0.079      337.853       10.104      863.749
03/10/2014  16:38:00       74.420      402.972      -34.910      122.553      211.859      119.215    15019.148    44884.265    14212.172       12.161        3.706      409.786      134.850        0.108      337.904       10.189      863.768
03/10/2014  16:39:00      -64.503      430.063      -46.070      129.748      209.634       83.089    16834.464    43946.385     6903.729       12.945        3.384      434.873       86.879        0.040      337.916       10.209      863.808
03/10/2014  16:40:00      -68.715      533.215      -55.273       85.990      159.864       70.859     7394.308    25556.602     5021.028       16.503        1.899      537.624       77.686        0.021      337.752        9.934      863.836
03/10/2014  16:41:00     -111.711      474.377      -63.624      149.404      162.660       76.999    22321.689    26458.228     5928.771       14.812        2.735      487.353       76.577        0.025      337.782        9.986      863.829
03/10/2014  16:42:00     -248.026      338.162      -63.754      124.918      145.604       78.806    15604.519    21200.573     6210.415       11.147        2.151      419.369       65.948        0.025      337.806       10.025      863.848
03/10/2014  16:43:00      -92.395      476.158      -55.477      147.343      226.842       77.013    21709.836    51457.085     5930.973       15.870        3.955      485.040      103.654        0.046      337.794       10.006      863.828
03/10/2014  16:44:00        6.941      605.596      -84.964      132.212      193.913       92.026    17479.916    37602.244     8468.834       21.877        3.178      605.636      106.593        0.031      337.886       10.159      863.810
03/10/2014  16:45:00      -90.361      536.720      -52.645       79.847      229.830       56.266     6375.469    52821.841     3165.868       18.067        3.118      544.273       63.999        0.014      337.824       10.055      863.856
03/10/2014  16:46:00     -120.339      199.599      -12.700      109.209      153.268       54.128    11926.665    23491.050     2929.870        4.641        1.917      233.069       52.277        0.050      338.133       10.575      863.850
03/10/2014  16:47:00      -91.618      355.646      -31.585      102.138      176.163       73.413    10432.270    31033.396     5389.434        9.136        2.343      367.258       87.804        0.057      337.952       10.271      863.868
03/10/2014  16:48:00      -55.800      466.462      -51.750      114.435      155.159       67.785    13095.473    24074.428     4594.808       13.256        2.088      469.788       60.850        0.017      337.759        9.946      863.887
03/10/2014  16:49:00      -40.290      445.048      -46.692       91.964      134.174       63.499     8457.459    18002.613     4032.088       11.618        1.525      446.868       49.322        0.012      337.804       10.024      863.869
03/10/2014  16:50:00      -95.325      366.450      -38.253       83.276      171.368       67.298     6934.856    29366.985     4528.982        9.283        2.042      378.646       79.288        0.044      337.752        9.935      863.848
03/10/2014  16:51:00      -47.713      234.111      -23.036      106.689      115.475       66.559    11382.490    13334.561     4430.164        4.338        1.457      238.923       64.633        0.073      338.029       10.401      863.844
03/10/2014  16:52:00        8.089      209.584       -1.069       97.651      184.453       74.405     9535.649    34022.803     5536.147        4.653        2.455      209.740       93.858        0.200      338.024       10.391      863.820
03/10/2014  16:53:00     -119.417      419.226      -51.234       86.498      168.487       56.224     7481.953    28387.714     3161.090       11.583        1.952      435.902       64.020        0.022      337.816       10.042      863.844
03/10/2014  16:54:00       18.636      315.899      -21.792      120.136      175.441       83.532    14432.732    30779.638     6977.587        7.639        2.609      316.448       94.290        0.089      338.010       10.370      863.822
03/10/2014  16:55:00       21.645      294.358      -24.090      124.133      191.012      108.602    15408.999    36485.539    11794.468        7.568        3.184      295.153      107.303        0.132      338.022       10.388      863.822
03/10/2014  16:56:00       89.063      273.669        6.161      149.594      224.702      126.029    22378.432    50490.953    15883.346        8.579        4.438      287.797      135.781        0.223      337.940       10.251      863.797
03/10/2014  16:57:00       24.091      438.609      -54.155       97.556      183.862       91.668     9517.114    33805.391     8403.094       12.380        2.586      439.270      108.276        0.061      337.841       10.084      863.826
03/10/2014  16:58:00     -100.470      378.897      -49.478      108.945      142.025       59.399    11869.116    20171.021     3528.255        9.583        1.778      391.991       57.309        0.021      337.864       10.123      863.870
03/10/2014  16:59:00      -18.352      351.033      -49.995       86.584      103.878       44.357     7496.707    10790.557     1967.530        7.315        1.013      351.512       40.802        0.013      337.875       10.140      863.892
03/10/2014  17:00:00     -146.493      464.813      -58.530      128.517      149.571       76.983    16516.740    22371.532     5926.344       14.287        2.241      487.351       79.079        0.026      337.863       10.121      863.913
03/10/2014  17:01:00     -115.614      444.441      -40.669       85.206      144.931       76.989     7260.061    21004.948     5927.353       12.336        1.710      459.232       66.957        0.021      337.755        9.939      863.943
03/10/2014  17:02:00      -84.232      451.195      -62.710      114.952      148.315       56.326    13213.926    21997.213     3172.650       12.649        1.919      458.990       49.479        0.012      337.788        9.996      863.923
03/10/2014  17:03:00      -14.093      508.772      -66.788       68.846      150.399       49.382     4739.761    22619.838     2438.594       14.665        1.490      508.967       50.090        0.010      337.782        9.985      863.931
03/10/2014  17:04:00      -71.135      385.380      -38.412       84.790      107.633       55.368     7189.338    11584.892     3065.662        8.844        1.092      391.890       38.600        0.010      337.857       10.111      863.949
03/10/2014  17:05:00      -88.666      363.982      -30.407      119.062      114.633       68.662    14175.675    13140.739     4714.424        8.664        1.602      374.626       67.225        0.032      337.897       10.178      863.959
03/10/2014  17:06:00     -175.559      189.064      -16.188      114.616      102.607       71.804    13136.718    10528.149     5155.842        4.782        1.441      258.004       51.183        0.039      338.119       10.550      863.940
03/10/2014  17:07:00     -167.809      301.002      -29.061      105.644      119.781       68.886    11160.620    14347.412     4745.300        7.492        1.513      344.619       67.017        0.038      338.058       10.449      863.959
03/10/2014  17:08:00      -60.274      196.471      -25.065       99.128       88.744       59.819     9826.435     7875.519     3578.367        3.207        1.064      205.509       54.984        0.072      338.215       10.712      863.976
03/10/2014  17:09:00      -83.203      322.333      -48.745      104.020      129.991       59.561    10820.192    16897.764     3547.490        7.223        1.563      332.899       66.096        0.039      338.296       10.848      864.015
03/10/2014  17:10:00      -76.911      123.880       -1.916       70.573       82.132       49.782     4980.540     6745.677     2478.280        1.773        0.710      145.814       35.828        0.060      338.432       11.079      864.060
03/10/2014  17:11:00     -140.698      186.489      -32.878       90.975       77.852       60.684     8276.464     6060.952     3682.553        3.683        0.901      233.611       48.928        0.044      338.220       10.721      864.085
03/10/2014  17:12:00     -121.234      346.225      -42.308       89.827      177.948       61.887     8068.926    31665.648     3830.030        8.995        2.178      366.837       68.823        0.035      338.061       10.454      864.082
03/10/2014  17:13:00      -46.411      465.730      -56.394       92.080      129.511       57.492     8478.796    16773.078     3305.373       12.539        1.428      468.037       63.738        0.019      337.739        9.914      864.059
03/10/2014  17:14:00     -130.416      276.579      -41.298       91.722      133.306       49.424     8412.927    17770.597     2442.778        6.191        1.431      305.784       48.216        0.025      337.909       10.198      864.042
03/10/2014  17:15:00      -84.196      304.114      -55.724       83.412      121.323       48.770     6957.541    14719.346     2378.466        6.336        1.203      315.554       46.253        0.021      338.120       10.554      864.012
03/10/2014  17:16:00     -181.792      334.798      -48.735      103.008      114.151       67.238    10610.565    13030.507     4520.954        8.783        1.408      380.970       66.769        0.031      338.022       10.388      864.014
03/10/2014  17:17:00      -55.709      438.362      -64.964      119.446      165.104       58.113    14267.363    27259.339     3377.073       12.219        2.245      441.888       64.408        0.021      337.950       10.266      864.014
03/10/2014  17:18:00       29.989      417.755      -62.015       88.986      194.853       67.498     7918.455    37967.871     4555.983       11.484        2.522      418.830       84.682        0.041      337.906       10.194      864.003
03/10/2014  17:19:00      -63.727      424.666      -75.585      114.656      124.677       51.677    13145.921    15544.240     2670.543       11.073        1.568      429.421       51.012        0.014      338.065       10.460      864.032
03/10/2014  17:20:00     -116.438      402.089      -64.595       67.759      112.248       39.900     4591.253    12599.717     1591.982        9.909        0.939      418.609       40.693        0.009      337.935       10.242      864.066
03/10/2014  17:21:00     -113.213      267.846      -27.069       90.624      135.665       57.053     8212.689    18405.004     3254.998        5.758        1.494      290.789       64.422        0.049      338.155       10.611      864.076
03/10/2014  17:22:00     -164.911      380.150      -36.527      116.039      155.181       74.399    13465.106    24081.070     5535.277       10.805        2.154      414.379       82.182        0.039      338.022       10.387      864.085
03/10/2014  17:23:00      -89.783      317.292      -41.741       73.158      160.653       62.908     5352.162    25809.321     3957.453        7.279        1.756      329.750       78.180        0.056      338.031       10.404      864.092
03/10/2014  17:24:00     -114.226      238.693      -37.677       90.923      121.585       63.326     8266.928    14782.913     4010.123        4.925        1.353      264.616       59.118        0.050      338.143       10.590      864.097
03/10/2014  17:25:00     -112.443      204.485      -28.689       95.821       96.790       52.279     9181.708     9368.282     2733.081        3.828        1.064      233.361       49.259        0.045      338.255       10.779      864.117
03/10/2014  17:26:00      -72.383      442.271      -58.967      120.376      224.114       73.686    14490.449    50226.952     5429.623       13.722        3.507      448.155       90.079        0.040      338.029       10.400      864.102
03/10/2014  17:27:00      -41.410      331.721      -56.783      107.863      139.843       57.000    11634.334    19556.177     3249.016        7.470        1.722      334.296       66.918        0.040      338.091       10.504      864.118
03/10/2014  17:28:00      -82.925      478.033      -55.459       76.317      132.348       62.081     5824.235    17516.006     3854.027       13.283        1.360      485.172       74.764        0.024      337.998       10.348      864.156
03/10/2014  17:29:00     -180.261      401.978      -61.004      118.068      140.283       64.256    13940.110    19679.257     4128.793       11.777        1.887      440.546       58.376        0.018      337.922       10.220      864.232
03/10/2014  17:30:00     -172.484      419.517      -47.375       92.161      146.078       63.957     8493.619    21338.729     4090.450       12.095        1.696      453.591       66.007        0.021      337.781        9.985      864.260
03/10/2014  17:31:00     -169.457      248.839      -24.029       82.306      157.990       64.577     6774.217    24960.794     4170.239        6.355        1.795      301.059       68.230        0.051      337.963       10.289      864.239
03/10/2014  17:32:00     -159.405      207.433      -36.310       90.268      116.656       61.112     8148.275    13608.591     3734.649        4.762        1.275      261.607       65.745        0.063      338.218       10.717      864.234
03/10/2014  17:33:00      -94.030      244.285      -32.557       79.420      145.617       52.536     6307.605    21204.404     2760.016        4.992        1.514      261.757       53.758        0.042      338.132       10.573      864.224
03/10/2014  17:34:00     -117.356      246.231      -41.548       98.534      100.539       60.857     9708.980    10108.069     3703.583        4.982        1.176      272.768       60.030        0.048      338.030       10.402      864.208
03/10/2014  17:35:00      -99.605      155.506      -14.007       84.790       90.051       49.212     7189.307     8109.101     2421.870        2.601        0.886      184.671       33.504        0.033      338.312       10.877      864.197
03/10/2014  17:36:00      -88.283      242.413      -34.287       82.199      101.800       54.375     6756.701    10363.293     2956.628        4.390        1.004      257.988       41.906        0.026      338.242       10.758      864.172
03/10/2014  17:37:00     -115.455      296.933      -44.023       78.222      119.039       53.384     6118.607    14170.296     2849.843        6.328        1.157      318.589       50.093        0.025      337.975       10.308      864.188
03/10/2014  17:38:00     -214.015      248.219      -48.782       88.284      174.485       52.486     7794.027    30444.878     2754.810        7.539        2.050      327.742       52.672        0.026      338.002       10.354      864.213
03/10/2014  17:39:00     -155.670      134.631      -21.812      104.859      116.509       56.574    10995.369    13574.354     3200.646        3.530        1.389      205.812       58.928        0.082      338.160       10.621      864.231
03/10/2014  17:40:00     -152.147      303.721      -44.727      132.263      135.677       65.186    17493.475    18408.297     4249.243        7.877        2.008      339.698       51.476        0.023      338.038       10.414      864.257
03/10/2014  17:41:00     -165.660      225.319      -43.009       93.315       98.563       58.816     8707.738     9714.574     3459.350        5.097        1.094      279.664       56.352        0.041      338.046       10.429      864.281
03/10/2014  17:42:00     -195.386      282.525      -43.472       90.765      100.724       62.036     8238.230    10145.368     3848.457        7.105        1.112      343.506       58.551        0.029      338.032       10.404      864.324
03/10/2014  17:43:00     -101.629      113.253      -13.010       64.469       99.915       56.158     4156.276     9982.943     3153.671        2.030        0.865      152.167       50.585        0.111      338.304       10.862      864.337
03/10/2014  17:44:00     -145.429       57.419      -13.327       89.668      100.935       48.496     8040.404    10187.816     2351.872        2.260        1.029      156.354       23.849        0.023      338.442       11.095      864.318
03/10/2014  17:45:00     -132.874       31.179        8.801       79.665       76.350       51.017     6346.460     5829.354     2602.744        1.674        0.739      136.483       40.341        0.087      338.313       10.878      864.293
03/10/2014  17:46:00     -156.334       54.247      -26.698       78.151      127.472       57.419     6107.587    16249.229     3296.985        2.687        1.283      165.479       38.477        0.054      338.438       11.088      864.297
03/10/2014  17:47:00     -147.129       61.816      -14.436      116.595      104.302       74.348    13594.422    10878.804     5527.587        2.783        1.500      159.587       70.119        0.193      338.346       10.932      864.283
03/10/2014  17:48:00     -191.656       97.574      -12.546      170.550      103.817       81.338    29087.439    10778.033     6615.937        4.644        2.324      215.064       83.934        0.152      338.218       10.716      864.281
03/10/2014  17:49:00     -173.356       30.518      -28.442      127.459      107.090       64.104    16245.842    11468.332     4109.364        3.180        1.591      176.021       67.785        0.148      338.261       10.791      864.271
03/10/2014  17:50:00     -188.382       74.651      -14.097      157.654      190.490       88.137    24854.635    36286.566     7768.132        5.507        3.445      202.634       77.669        0.147      338.393       11.012      864.252
03/10/2014  17:51:00     -324.886      -61.929      -30.176      162.249      123.896       65.621    26324.741    15350.147     4306.073        7.813        2.299      330.735       63.936        0.037      338.106       10.528      864.266
03/10/2014  17:52:00     -226.504       -0.194      -39.261      111.040       95.667       52.142    12329.883     9152.100     2718.753        3.852        1.210      226.504       25.165        0.012      338.167       10.631      864.289
03/10/2014  17:53:00     -249.679      -31.658      -21.180      123.745      120.750       64.545    15312.758    14580.655     4166.055        4.892        1.703      251.678       37.498        0.022      338.253       10.775      864.307
03/10/2014  17:54:00     -230.293       -9.797      -32.253      134.840       93.975       66.936    18181.758     8831.312     4480.390        4.283        1.575      230.501       68.229        0.088      338.232       10.741      864.337
03/10/2014  17:55:00     -221.460       16.109       -9.762      136.276      133.950       75.987    18571.026    17942.727     5774.049        4.584        2.114      222.045       60.808        0.075      338.207       10.699      864.347
03/10/2014  17:56:00     -207.005       90.202      -26.984      140.351      168.500       85.610    19698.312    28392.236     7329.008        5.356        2.771      225.804       62.998        0.078      338.110       10.536      864.363
03/10/2014  17:57:00     -174.449      244.906      -36.231      105.574      149.855       64.400    11145.861    22456.377     4147.353        6.473        1.887      300.685       53.849        0.032      338.107       10.532      864.417
03/10/2014  17:58:00     -232.455      344.116      -52.741      115.290      179.280       73.418    13291.769    32141.164     5390.186       11.302        2.541      415.273       89.559        0.047      338.062       10.455      864.417
03/10/2014  17:59:00     -165.419      264.268      -42.286      100.222      127.316       73.500    10044.417    16209.406     5402.293        6.532        1.583      311.771       63.068        0.041      338.022       10.388      864.425
03/10/2014  18:00:00     -165.416      248.143      -15.880      121.958      119.008       84.038    14873.842    14162.922     7062.319        6.264        1.805      298.223       73.778        0.061      338.030       10.400      864.439
03/10/2014  18:01:00     -143.929      324.935      -35.688       68.983       98.580       50.864     4758.663     9718.019     2587.117        7.231        0.853      355.384       42.525        0.014      337.936       10.243      864.454
03/10/2014  18:02:00     -137.265      209.987      -25.628       77.700      110.814       57.739     6037.243    12279.765     3333.767        4.262        1.083      250.871       45.229        0.033      338.165       10.626      864.469
03/10/2014  18:03:00     -113.616      183.694       -5.013       69.025       98.960       58.321     4764.449     9793.000     3401.349        3.231        0.898      215.991       54.484        0.064      338.094       10.508      864.506
03/10/2014  18:04:00     -190.295      367.944      -68.135      128.774      126.636       77.659    16582.684    16036.785     6030.865       10.744        1.933      414.241       75.743        0.033      337.747        9.927      864.540
03/10/2014  18:05:00     -188.856      359.783      -58.430      137.788      120.678       74.327    18985.597    14563.079     5524.529       10.379        1.954      406.337       78.726        0.038      337.707        9.860      864.528
03/10/2014  18:06:00      -46.688      442.336      -70.002      117.363      119.126       55.273    13774.011    14190.913     3055.141       11.687        1.551      444.793       52.513        0.014      337.686        9.826      864.552
03/10/2014  18:07:00     -136.110      281.080      -36.689       88.123      132.388       61.936     7765.741    17526.567     3836.028        6.400        1.456      312.301       58.178        0.035      337.788        9.994      864.590
03/10/2014  18:08:00      -67.851      224.212      -13.680      128.738      141.398       75.505    16573.479    19993.525     5701.064        4.866        2.113      234.254       81.040        0.120      337.825       10.058      864.607
03/10/2014  18:09:00      -74.417      353.400      -31.624       89.263      211.957       61.109     7967.942    44925.618     3734.318        9.402        2.831      361.150       91.407        0.064      337.722        9.886      864.606
03/10/2014  18:10:00     -174.075      224.339      -36.474      103.570      137.213       75.613    10726.809    18827.439     5717.261        5.861        1.764      283.955       78.722        0.077      337.870       10.133      864.624
03/10/2014  18:11:00     -188.145      310.807      -56.571      108.338      121.612       61.427    11737.081    14789.551     3773.254        8.274        1.515      363.318       55.692        0.023      337.725        9.891      864.641
03/10/2014  18:12:00     -176.234      304.472      -53.708       95.873      172.228       67.774     9191.719    29662.635     4593.312        8.504        2.172      351.798       74.677        0.045      337.711        9.865      864.656
03/10/2014  18:13:00     -182.808      156.002      -39.190      136.653      148.045       56.848    18674.151    21917.297     3231.721        5.155        2.191      240.324       63.754        0.070      337.713        9.871      864.702
03/10/2014  18:14:00     -203.438      312.254      -41.564       91.231      164.637       66.018     8323.102    27105.433     4358.361        9.019        1.989      372.679       66.079        0.031      337.630        9.729      864.694
03/10/2014  18:15:00     -197.342      268.614      -46.358      125.524      152.218       71.671    15756.346    23170.465     5136.685        7.865        2.203      333.312       85.683        0.066      337.582        9.651      864.703
03/10/2014  18:16:00     -205.285      206.081      -44.815      106.352      109.339       64.570    11310.702    11954.940     4169.303        5.702        1.372      290.880       64.614        0.049      337.643        9.752      864.727
03/10/2014  18:17:00     -143.145      391.516      -50.651       79.889      142.870       70.420     6382.308    20411.863     4958.923       10.404        1.588      416.863       65.860        0.025      337.421        9.380      864.728
03/10/2014  18:18:00     -109.230      239.216      -39.504      107.593      109.979       53.147    11576.255    12095.450     2824.646        4.860        1.325      262.975       61.074        0.054      337.538        9.575      864.725
03/10/2014  18:19:00     -167.334      272.543      -45.673      119.891      142.247       69.134    14373.816    20234.288     4779.447        7.187        1.969      319.813       83.080        0.067      337.537        9.575      864.748
03/10/2014  18:20:00      -72.320      228.003      -22.684       71.382      124.015       57.011     5095.420    15379.826     3250.266        4.072        1.186      239.198       40.669        0.029      337.519        9.546      864.754
03/10/2014  18:21:00     -102.859      312.915      -36.782       99.248      106.636       51.819     9850.133    11371.324     2685.164        6.687        1.195      329.386       47.943        0.021      337.451        9.431      864.761
03/10/2014  18:22:00     -192.184      363.830      -51.004       78.994      196.277       60.590     6240.104    38524.834     3671.200       11.016        2.422      411.470       68.668        0.028      337.450        9.430      864.772
03/10/2014  18:23:00     -137.718      312.007      -33.575       90.915      129.107       63.652     8265.534    16668.612     4051.606        7.321        1.449      341.049       65.674        0.037      337.434        9.402      864.790
03/10/2014  18:24:00      -97.993      374.039      -54.277       70.967      158.400       44.210     5036.362    25090.468     1954.525        9.226        1.604      386.662       53.300        0.019      337.397        9.340      864.807
03/10/2014  18:25:00     -100.617      423.999      -68.051       68.028      118.047       40.818     4627.749    13935.016     1666.114       10.738        1.011      435.774       42.211        0.009      337.331        9.228      864.835
03/10/2014  18:26:00     -170.150      412.932      -55.172      114.284      130.759       62.422    13060.837    17098.015     3896.564       11.827        1.703      446.613       62.354        0.019      337.308        9.190      864.858
03/10/2014  18:27:00     -114.993      340.275      -45.038      127.432      154.924       72.936    16238.993    24001.542     5319.649        8.829        2.278      359.181       83.933        0.055      337.305        9.185      864.895
03/10/2014  18:28:00     -146.367      322.846      -32.692      127.734      151.083       77.292    16315.935    22826.050     5974.035        8.591        2.256      354.476       87.217        0.061      337.287        9.156      864.902
03/10/2014  18:29:00      -95.390      506.141      -57.210      102.407      143.107       66.821    10487.207    20479.590     4465.055       15.198        1.772      515.051       68.515        0.018      337.173        8.966      864.893
03/10/2014  18:30:00     -239.724      305.517      -57.860      152.102      149.935       63.258    23135.129    22480.527     4001.622       10.188        2.481      388.340       64.052        0.027      337.324        9.220      864.892
03/10/2014  18:31:00     -152.624      332.021      -41.496       87.681      117.003       60.617     7687.871    13689.619     3674.376        8.015        1.253      365.420       56.920        0.024      337.242        9.081      864.907
03/10/2014  18:32:00     -194.687      423.597      -66.120       79.918      122.242       60.193     6386.820    14943.060     3623.158       12.333        1.248      466.194       56.299        0.015      337.189        8.993      864.930
03/10/2014  18:33:00     -111.193      241.937      -23.880       94.616      113.918       54.036     8952.103    12977.207     2919.930        4.815        1.242      266.265       63.019        0.056      337.303        9.182      864.955
03/10/2014  18:34:00      -97.031      392.679      -61.209       89.903      159.835       46.413     8082.561    25547.084     2154.152       10.156        1.789      404.489       60.142        0.022      337.233        9.065      864.978
03/10/2014  18:35:00     -125.675      405.126      -66.401      100.707      112.705       61.329    10141.883    12702.385     3761.232       10.546        1.330      424.172       58.779        0.019      337.175        8.970      864.999
03/10/2014  18:36:00     -176.498      311.854      -49.860      110.071      118.029       59.491    12115.684    13930.912     3539.137        8.023        1.479      358.336       63.281        0.031      337.251        9.097      864.990
03/10/2014  18:37:00     -107.812      209.359      -27.767       81.099       91.861       52.495     6577.128     8438.354     2755.730        3.699        0.889      235.488       46.867        0.040      337.297        9.173      865.006
03/10/2014  18:38:00     -168.931      312.078      -56.269       81.814      109.319       51.655     6693.449    11950.685     2668.261        7.520        1.066      354.866       49.095        0.019      337.267        9.122      865.014
03/10/2014  18:39:00     -127.602      286.459      -50.790       69.814      102.919       56.952     4873.998    10592.325     3243.500        5.981        0.935      313.593       58.408        0.035      337.264        9.117      865.013
03/10/2014  18:40:00      -84.932      248.489      -35.522       95.280       89.021       47.044     9078.351     7924.661     2213.159        4.472        0.961      262.603       48.648        0.034      337.275        9.136      865.010
03/10/2014  18:41:00      -18.794      420.929      -68.204       83.713      105.442       43.311     7007.898    11118.089     1875.813       10.109        1.000      421.348       47.482        0.013      337.156        8.936      864.997
03/10/2014  18:42:00      -43.958      388.412      -52.194       50.420       66.527       36.406     2542.149     4425.842     1325.371        8.191        0.415      390.891       27.736        0.005      337.178        8.974      865.001
03/10/2014  18:43:00      -77.612      185.590      -23.419       50.918       80.098       46.225     2592.631     6415.687     2136.739        2.608        0.557      201.165       47.451        0.056      337.367        9.291      865.009
03/10/2014  18:44:00     -131.728      281.728      -41.002      102.685       78.471       50.554    10544.197     6157.704     2555.727        5.883        0.963      311.003       41.973        0.018      337.236        9.071      865.024
03/10/2014  18:45:00       -2.480      330.066      -41.501       92.118       95.205       61.185     8485.658     9063.929     3743.590        6.598        1.065      330.075       58.076        0.031      337.101        8.845      865.043
03/10/2014  18:46:00     -104.156      293.726      -34.055      100.146       84.254       54.503    10029.307     7098.687     2970.567        5.919        1.005      311.646       48.841        0.025      337.125        8.883      865.061
03/10/2014  18:47:00      -97.334      203.881      -31.106       47.602      116.450       42.351     2265.962    13560.642     1793.608        3.481        0.881      225.923       49.143        0.047      337.224        9.051      865.072
03/10/2014  18:48:00     -109.747      202.325      -34.907       77.963       79.981       48.223     6078.264     6396.956     2325.438        3.450        0.740      230.173       48.948        0.045      337.237        9.072      865.097
03/10/2014  18:49:00     -129.239      237.950      -35.171       74.135       84.052       57.067     5495.965     7064.733     3256.587        4.519        0.791      270.782       54.753        0.041      337.138        8.906      865.090
03/10/2014  18:50:00      -57.706      357.188      -56.061       52.708      110.429       38.391     2778.093    12194.662     1473.854        7.525        0.822      361.820       47.922        0.018      337.061        8.776      865.089
03/10/2014  18:51:00      -84.083      340.015      -53.032       60.333       98.604       45.953     3640.053     9722.684     2111.672        7.048        0.774      350.257       48.625        0.019      337.025        8.718      865.108
03/10/2014  18:52:00      -49.573      284.199      -37.210       70.757      119.532       41.296     5006.559    14287.805     1705.377        5.280        1.050      288.490       39.448        0.019      337.062        8.779      865.131
03/10/2014  18:53:00     -133.844      258.888      -47.233      100.472      113.450       54.342    10094.600    12870.907     2953.036        5.654        1.296      291.440       34.787        0.014      337.105        8.851      865.138
03/10/2014  18:54:00      -29.217      418.153      -62.143       63.015      127.493       38.758     3970.887    16254.531     1502.174       10.064        1.086      419.173       44.629        0.011      336.938        8.570      865.140
03/10/2014  18:55:00     -103.445      364.757      -52.948       85.078      115.936       49.363     7238.325    13441.187     2436.694        8.483        1.156      379.142       53.351        0.020      336.916        8.536      865.139
03/10/2014  18:56:00      -93.791      380.770      -53.310       90.890      102.996       50.480     8261.077    10608.188     2548.211        8.902        1.071      392.151       51.052        0.017      336.899        8.506      865.146
03/10/2014  18:57:00      -54.832      495.177      -74.633       77.630      137.128       48.716     6026.436    18804.117     2373.216       14.048        1.360      498.203       64.338        0.017      336.819        8.374      865.145
03/10/2014  18:58:00      -72.233      402.573      -54.961       72.335       94.932       49.474     5232.362     9012.068     2447.632        9.349        0.835      409.002       49.605        0.015      336.827        8.386      865.168
03/10/2014  18:59:00      -94.008      298.647      -42.511       82.324      116.769       54.706     6777.290    13635.026     2992.720        6.162        1.170      313.093       62.053        0.039      336.900        8.508      865.179
03/10/2014  19:00:00     -162.793      335.033      -54.232       81.615       88.325       50.429     6660.982     7801.387     2543.127        7.934        0.850      372.490       40.588        0.012      336.873        8.462      865.197
03/10/2014  19:01:00      -77.030      281.282      -39.341       88.172      121.097       60.759     7774.219    14664.504     3691.604        5.636        1.307      291.639       61.275        0.044      336.881        8.476      865.214
03/10/2014  19:02:00     -191.163      383.942      -52.179      109.380      152.065       65.814    11963.984    23123.634     4331.471       11.304        1.971      428.899       65.445        0.023      336.824        8.382      865.240
03/10/2014  19:03:00     -149.569      401.928      -62.497       72.041      129.463       53.798     5189.908    16760.606     2894.239       10.633        1.242      428.855       60.750        0.020      336.789        8.323      865.248
03/10/2014  19:04:00     -178.311      229.004      -34.717       82.110       78.728       62.010     6742.059     6198.088     3845.262        5.111        0.839      290.237       59.663        0.042      336.858        8.437      865.238
03/10/2014  19:05:00     -138.321      250.435      -35.074       79.451      105.551       55.187     6312.405    11141.090     3045.573        5.179        1.025      286.095       55.977        0.038      336.860        8.442      865.245
03/10/2014  19:06:00      -98.195      122.774       -9.787       80.330       80.827       47.248     6452.929     6532.974     2232.328        2.001        0.761      157.213       39.476        0.063      336.971        8.629      865.250
03/10/2014  19:07:00      -62.609      221.099      -25.463       68.268       98.864       41.520     4660.539     9774.117     1723.932        3.480        0.808      229.793       47.883        0.043      336.823        8.380      865.268
03/10/2014  19:08:00     -109.527      210.262      -28.854       80.086       99.648       54.847     6413.846     9929.778     3008.168        3.819        0.968      237.078       52.932        0.050      336.867        8.454      865.271
03/10/2014  19:09:00     -131.323      161.824      -27.934       93.804       83.934       60.005     8799.165     7044.895     3600.622        3.182        0.972      208.405       55.294        0.070      336.895        8.501      865.284
03/10/2014  19:10:00     -109.862      315.080      -26.273       75.262      107.977       62.852     5664.406    11659.098     3950.326        6.665        1.064      333.684       50.381        0.023      336.792        8.328      865.289
03/10/2014  19:11:00     -156.906      289.369      -45.971       70.421       92.576       47.755     4959.132     8570.331     2280.535        6.314        0.790      329.172       39.900        0.015      336.756        8.270      865.301
03/10/2014  19:12:00     -129.065      258.363      -38.759       51.804       70.227       42.103     2683.634     4931.858     1772.694        4.715        0.469      288.806       40.649        0.020      336.741        8.244      865.310
03/10/2014  19:13:00      -96.626      245.094      -30.231       65.944       90.870       48.671     4348.594     8257.294     2368.860        4.265        0.749      263.454       48.133        0.033      336.742        8.246      865.319
03/10/2014  19:14:00     -153.881      221.129      -36.013       94.854       92.653       50.698     8997.297     8584.561     2570.337        4.701        1.008      269.402       41.767        0.024      336.816        8.369      865.327
03/10/2014  19:15:00      -68.925      219.015      -27.555       48.887       78.085       42.192     2389.970     6097.310     1780.176        3.187        0.513      229.605       38.883        0.029      336.714        8.200      865.327
03/10/2014  19:16:00      -79.938      192.403      -28.538       55.991       85.857       35.885     3134.991     7371.435     1287.710        2.801        0.590      208.349       36.542        0.031      336.680        8.143      865.333
03/10/2014  19:17:00     -158.688      254.857      -44.936       88.069       69.582       52.137     7756.068     4841.618     2718.318        5.373        0.766      300.223       54.737        0.033      336.608        8.022      865.328
03/10/2014  19:18:00     -110.383      268.661      -41.597       50.503       88.421       47.301     2550.602     7818.189     2237.353        4.935        0.630      290.453       50.711        0.030      336.602        8.012      865.333
03/10/2014  19:19:00     -118.048      315.822      -46.180       74.941      108.482       47.291     5616.119    11768.257     2236.411        6.771        0.981      337.163       51.549        0.023      336.620        8.042      865.344
03/10/2014  19:20:00      -90.750      108.421      -16.728       52.180       69.588       36.114     2722.786     4842.491     1304.256        1.457        0.443      141.388       33.077        0.055      336.740        8.245      865.359
03/10/2014  19:21:00      -94.452      114.202      -15.204       56.421       61.542       37.935     3183.378     3787.425     1439.038        1.530        0.420      148.200       38.957        0.069      336.807        8.357      865.356
03/10/2014  19:22:00      -87.458      152.832      -25.778       79.974       94.430       42.702     6395.771     8916.985     1823.448        2.440        0.857      176.087       45.478        0.067      336.736        8.235      865.360
03/10/2014  19:23:00     -140.423      210.002      -26.342       70.868       89.827       49.499     5022.313     8068.947     2450.102        4.002        0.777      252.625       38.653        0.023      336.574        7.962      865.372
03/10/2014  19:24:00     -134.928      131.717      -26.933       60.687       71.417       38.730     3682.927     5100.331     1499.979        2.328        0.514      188.561       30.915        0.027      336.745        8.251      865.375
03/10/2014  19:25:00     -150.343      165.599      -30.371       62.773       88.503       48.481     3940.438     7832.771     2350.432        3.253        0.706      223.665       47.205        0.045      336.630        8.057      865.377
03/10/2014  19:26:00     -113.023      168.223      -30.887       70.859       64.424       43.282     5020.934     4150.459     1873.337        2.653        0.552      202.665       45.293        0.050      336.616        8.035      865.381
03/10/2014  19:27:00     -131.188      134.898      -16.733       79.216       77.793       46.010     6275.152     6051.762     2116.942        2.506        0.722      188.169       39.996        0.045      336.668        8.120      865.398
03/10/2014  19:28:00     -114.260      159.274      -22.730       92.758       71.824       47.859     8604.026     5158.747     2290.463        2.749        0.803      196.020       32.580        0.028      336.588        7.987      865.415
03/10/2014  19:29:00     -137.925      168.311      -26.195       58.598       84.723       47.401     3433.754     7178.058     2246.842        3.045        0.643      217.605       47.489        0.048      336.489        7.821      865.436
03/10/2014  19:30:00     -116.012      251.584      -36.611       68.624       99.896       39.684     4709.230     9979.252     1574.835        4.718        0.813      277.044       41.799        0.023      336.435        7.731      865.458
03/10/2014  19:31:00     -136.640      212.442      -36.741       70.009       87.664       51.118     4901.231     7685.034     2613.003        4.017        0.760      252.591       43.003        0.029      336.468        7.786      865.484
03/10/2014  19:32:00     -119.450      212.540      -37.567       68.129       91.053       40.575     4641.605     8290.644     1646.357        3.771        0.729      243.806       31.907        0.017      336.447        7.752      865.504
03/10/2014  19:33:00      -87.801      210.190      -39.012       75.623       78.863       41.245     5718.879     6219.390     1701.170        3.352        0.682      227.791       26.417        0.013      336.387        7.649      865.536
03/10/2014  19:34:00     -142.571      184.206      -31.351       81.745       92.257       49.504     6682.264     8511.305     2450.618        3.644        0.882      232.934       60.912        0.068      336.437        7.734      865.550
03/10/2014  19:35:00     -107.495      191.682      -26.572       63.074       96.800       36.053     3978.295     9370.189     1299.828        3.182        0.732      219.766       40.236        0.034      336.359        7.606      865.569
03/10/2014  19:36:00      -97.328      179.864      -29.660       61.611       69.164       32.014     3795.860     4783.606     1024.928        2.615        0.480      204.509       24.640        0.015      336.384        7.647      865.570
03/10/2014  19:37:00     -103.120      204.420      -17.178       60.254       92.919       45.816     3630.534     8633.854     2099.068        3.354        0.718      228.957       40.555        0.031      336.372        7.627      865.576
03/10/2014  19:38:00     -116.680      209.460      -22.249       65.931      104.779       44.380     4346.938    10978.662     1969.579        3.764        0.865      239.767       44.281        0.034      336.371        7.627      865.564
03/10/2014  19:39:00     -169.369      226.487      -50.321       99.295      100.399       53.742     9859.471    10080.007     2888.164        5.267        1.141      282.811       52.503        0.034      336.281        7.475      865.567
03/10/2014  19:40:00     -148.256      234.875      -33.716       80.920      108.236       63.907     6547.985    11714.964     4084.059        5.031        1.117      277.752       55.903        0.041      336.288        7.485      865.574
03/10/2014  19:41:00     -168.516      265.081      -42.161       66.315       64.125       49.418     4397.636     4112.038     2442.106        5.570        0.548      314.111       40.583        0.017      336.232        7.393      865.582
03/10/2014  19:42:00     -123.277      265.431      -34.391       74.263      109.038       52.728     5515.059    11889.344     2780.281        5.351        1.009      292.662       47.226        0.026      336.265        7.446      865.585
03/10/2014  19:43:00     -166.321      293.712      -42.962      111.415      112.196       60.121    12413.343    12588.014     3614.517        7.219        1.431      337.534       61.311        0.033      336.261        7.442      865.595
03/10/2014  19:44:00     -161.069      204.351      -34.131       80.113      105.534       45.582     6418.090    11137.414     2077.703        4.425        0.982      260.197       49.264        0.036      336.287        7.486      865.620
03/10/2014  19:45:00     -100.366      212.015      -28.610       82.836       86.392       48.710     6861.826     7463.612     2372.634        3.627        0.835      234.571       45.098        0.037      336.237        7.400      865.631
03/10/2014  19:46:00      -87.070      227.055      -37.319       81.150      108.766       44.992     6585.343    11830.043     2024.244        4.048        1.022      243.177       43.290        0.032      336.251        7.425      865.649
03/10/2014  19:47:00     -105.811      233.739      -25.856       48.714       86.569       51.476     2373.073     7494.214     2649.743        3.951        0.626      256.573       52.428        0.042      336.235        7.398      865.655
03/10/2014  19:48:00     -132.799      230.638      -35.527       53.959       68.105       39.347     2911.626     4638.350     1548.215        4.059        0.455      266.138       30.412        0.013      336.189        7.318      865.656
03/10/2014  19:49:00     -103.081      240.939      -33.470       68.447       90.747       46.938     4685.044     8235.032     2203.189        4.246        0.756      262.064       46.571        0.032      336.235        7.397      865.655
03/10/2014  19:50:00      -86.010      185.247      -28.657       67.827       88.390       50.503     4600.473     7812.728     2550.550        2.875        0.748      204.240       47.056        0.053      336.262        7.442      865.664
03/10/2014  19:51:00     -138.132      203.912      -20.382       87.416       97.243       48.947     7641.516     9456.284     2395.773        4.028        0.975      246.294       41.729        0.029      336.257        7.435      865.658
03/10/2014  19:52:00     -152.517      211.752      -32.689       68.699       82.888       64.167     4719.523     6870.435     4117.429        4.244        0.785      260.961       56.639        0.047      336.232        7.392      865.668
03/10/2014  19:53:00      -99.488      207.353      -25.672       70.611       93.135       43.348     4985.843     8674.101     1879.019        3.454        0.777      229.985       44.174        0.037      336.218        7.370      865.693
03/10/2014  19:54:00     -124.038      171.996      -25.979       66.744       69.599       39.650     4454.706     4843.953     1572.089        2.825        0.544      212.057       39.656        0.035      336.265        7.447      865.702
03/10/2014  19:55:00     -149.955      194.125      -30.841       80.989       92.295       52.538     6559.290     8518.401     2760.245        3.948        0.892      245.298       55.681        0.052      336.248        7.419      865.749
03/10/2014  19:56:00     -118.174      198.841      -23.455       57.849       86.455       49.026     3346.495     7474.493     2403.515        3.364        0.661      231.307       49.438        0.046      336.159        7.272      865.775
03/10/2014  19:57:00     -127.030      273.720      -29.422       71.246       95.008       54.551     5075.949     9026.457     2975.790        5.450        0.854      301.760       46.521        0.024      336.099        7.169      865.806
03/10/2014  19:58:00     -149.963      284.558      -55.483       73.346       80.914       53.282     5379.633     6547.038     2838.973        6.065        0.738      321.656       49.850        0.024      336.141        7.241      865.831
03/10/2014  19:59:00     -161.509      278.685      -38.755       94.532      116.825       56.071     8936.339    13648.103     3143.952        6.549        1.286      322.103       59.254        0.034      336.091        7.158      865.862
03/10/2014  20:00:00     -104.556      203.918      -17.027       66.269       99.868       52.377     4391.579     9973.692     2743.375        3.495        0.855      229.161       49.702        0.047      336.105        7.180      865.886
03/10/2014  20:01:00     -133.857      226.414      -35.032       69.279       99.305       56.101     4799.588     9861.488     3147.326        4.410        0.890      263.023       59.722        0.052      336.071        7.124      865.909
03/10/2014  20:02:00     -140.059      233.911      -43.609       80.318      112.946       43.315     6450.969    12756.763     1876.159        4.865        1.054      272.637       41.817        0.024      336.088        7.151      865.917
03/10/2014  20:03:00     -173.670      286.144      -46.176       88.696      108.006       53.855     7867.007    11665.200     2900.362        6.830        1.122      334.723       55.812        0.028      336.046        7.082      865.921
03/10/2014  20:04:00     -188.631      298.805      -51.809      108.187       90.519       61.634    11704.401     8193.771     3798.726        7.562        1.185      353.364       51.417        0.021      336.053        7.093      865.947
03/10/2014  20:05:00     -173.627      290.770      -48.482       90.635      121.400       61.592     8214.705    14738.023     3793.608        7.189        1.337      338.664       57.677        0.029      336.046        7.081      865.958
03/10/2014  20:06:00     -155.964      261.704      -39.073       85.059       97.019       54.363     7235.040     9412.610     2955.288        5.697        0.980      304.654       56.747        0.035      336.070        7.123      865.983
03/10/2014  20:07:00     -172.972      249.647      -50.697       85.528      109.113       48.438     7314.987    11905.706     2346.198        5.819        1.078      303.715       56.999        0.035      336.056        7.098      865.999
03/10/2014  20:08:00     -121.514      224.806      -32.443       66.697       80.463       49.748     4448.534     6474.280     2474.850        3.987        0.670      255.545       42.765        0.028      336.034        7.061      866.010
03/10/2014  20:09:00     -114.882      241.766      -29.047       66.741       93.994       44.790     4454.394     8834.795     2006.149        4.389        0.765      267.672       41.834        0.024      336.049        7.086      866.022
03/10/2014  20:10:00      -81.547      252.992      -29.454       73.874      114.260       49.179     5457.326    13055.408     2418.551        4.622        1.047      265.810       52.888        0.040      336.074        7.127      866.030
03/10/2014  20:11:00      -97.832      284.664      -32.617       76.508      127.456       49.969     5853.485    16244.934     2496.912        5.813        1.230      301.007       57.517        0.037      336.015        7.030      866.063
03/10/2014  20:12:00      -82.784      377.248      -49.556       83.743       97.655       44.360     7012.852     9536.419     1967.836        8.507        0.926      386.224       37.059        0.009      335.990        6.988      866.091
03/10/2014  20:13:00      -82.974      423.919      -62.279       90.300       85.800       45.152     8154.133     7361.724     2038.691       10.401        0.878      431.963       25.502        0.003      335.984        6.979      866.097
03/10/2014  20:14:00     -161.969      251.395      -39.472       90.800       87.425       55.735     8244.723     7643.072     3106.417        5.499        0.950      299.054       48.602        0.026      335.976        6.965      866.134
03/10/2014  20:15:00     -107.902      295.330      -30.871       71.340      141.609       54.075     5089.362    20053.054     2924.150        6.394        1.403      314.424       60.666        0.037      335.984        6.979      866.143
03/10/2014  20:16:00     -109.268      325.842      -42.250       75.121      108.099       44.590     5643.145    11685.358     1988.259        6.960        0.966      343.675       32.953        0.009      336.003        7.011      866.173
03/10/2014  20:17:00      -79.000      237.151      -26.093       60.617       96.150       45.587     3674.402     9244.837     2078.161        3.908        0.750      249.963       46.786        0.035      336.013        7.025      866.212
03/10/2014  20:18:00     -123.295      283.938      -41.804       85.774      155.460       48.697     7357.161    24167.730     2371.441        6.573        1.695      309.552       53.607        0.030      336.021        7.041      866.241
03/10/2014  20:19:00     -143.102      347.719      -45.037       61.565      115.790       55.876     3790.239    13407.389     3122.178        8.186        1.016      376.014       60.143        0.026      335.952        6.925      866.271
03/10/2014  20:20:00      -88.094      256.113      -21.627       82.953      138.203       55.516     6881.269    19100.135     3082.033        5.144        1.453      270.840       64.520        0.057      335.976        6.964      866.291
03/10/2014  20:21:00     -111.137      247.952      -33.465       73.406      116.719       49.741     5388.385    13623.266     2474.124        4.821        1.074      271.720       53.050        0.038      335.950        6.922      866.332
03/10/2014  20:22:00      -76.512      249.878      -25.489       64.434      105.117       48.512     4151.781    11049.618     2353.401        4.325        0.878      261.329       30.895        0.014      335.977        6.965      866.341
03/10/2014  20:23:00     -140.789      303.652      -38.069       76.572      104.305       55.455     5863.314    10879.445     3075.221        6.664        0.991      334.703       53.728        0.026      335.952        6.924      866.359
03/10/2014  20:24:00     -162.989      256.064      -54.274       70.370       99.505       42.571     4951.997     9901.273     1812.311        5.587        0.833      303.536       44.971        0.022      335.965        6.946      866.352
03/10/2014  20:25:00      -68.934      307.754      -31.386       76.156       98.215       45.376     5799.788     9646.110     2058.963        5.897        0.875      315.380       37.423        0.014      335.959        6.936      866.343
03/10/2014  20:26:00     -135.849      296.634      -38.614       72.777       82.762       52.205     5296.543     6849.601     2725.336        6.140        0.744      326.262       45.091        0.019      335.904        6.844      866.353
03/10/2014  20:27:00     -121.073      270.273      -31.233       71.396       84.605       45.398     5097.364     7157.961     2061.015        5.150        0.716      296.152       39.424        0.018      335.923        6.875      866.361
03/10/2014  20:28:00      -99.553      220.557      -19.411       74.018      101.232       50.658     5478.697    10248.011     2566.215        3.861        0.915      241.984       49.400        0.042      335.954        6.928      866.383
03/10/2014  20:29:00     -128.841      374.875      -41.047       82.075      104.725       55.487     6736.350    10967.391     3078.853        8.980        1.039      396.398       60.195        0.023      335.918        6.868      866.386
03/10/2014  20:30:00     -109.623      288.605      -34.933       73.443       84.269       48.360     5393.854     7101.262     2338.697        5.568        0.742      308.723       43.578        0.020      335.891        6.822      866.411
03/10/2014  20:31:00     -107.701      261.448      -37.403       78.240       90.869       46.400     6121.557     8257.211     2152.954        4.894        0.827      282.762       44.846        0.025      335.927        6.884      866.422
03/10/2014  20:32:00     -135.768      217.843      -38.825       74.010       80.785       48.184     5477.417     6526.273     2321.678        4.086        0.716      256.688       43.221        0.028      335.942        6.908      866.427
03/10/2014  20:33:00     -145.089      278.214      -35.056       60.454       81.816       49.257     3654.665     6693.843     2426.283        5.623        0.639      313.774       46.538        0.022      335.829        6.719      866.449
03/10/2014  20:34:00     -127.999      201.390      -25.255       60.501       68.003       40.680     3660.361     4624.356     1654.886        3.376        0.497      238.625       40.632        0.029      335.844        6.745      866.457
03/10/2014  20:35:00     -133.599      120.230      -29.155       65.402       57.939       45.747     4277.372     3356.983     2092.756        2.144        0.486      179.733       35.531        0.039      335.844        6.746      866.460
03/10/2014  20:36:00     -122.748      168.175      -29.205       67.482       89.522       43.448     4553.864     8014.269     1887.755        2.933        0.723      208.206       39.821        0.037      335.844        6.745      866.487
03/10/2014  20:37:00     -116.496      168.800      -37.205       75.390       91.516       41.463     5683.725     8375.149     1719.166        2.961        0.789      205.097       41.517        0.041      335.852        6.759      866.524
03/10/2014  20:38:00     -141.002      227.686      -40.593      117.058       93.567       53.112    13702.591     8754.716     2820.847        4.932        1.264      267.811       58.208        0.047      335.851        6.756      866.547
03/10/2014  20:39:00     -192.736      259.913      -50.854      102.656      114.222       54.134    10538.228    13046.584     2930.517        6.690        1.326      323.577       55.152        0.029      335.828        6.717      866.560
03/10/2014  20:40:00     -118.960      312.518      -34.331       55.933       84.953       48.803     3128.512     7217.050     2381.712        6.286        0.636      334.394       38.322        0.013      335.787        6.650      866.580
03/10/2014  20:41:00     -109.677      193.892      -25.722       72.038       67.801       44.406     5189.465     4596.997     1971.860        3.102        0.588      222.763       44.157        0.039      335.837        6.731      866.589
03/10/2014  20:42:00     -158.273      260.736      -39.267       81.116       87.615       48.339     6579.782     7676.338     2336.689        5.558        0.830      305.014       44.567        0.021      335.760        6.603      866.605
03/10/2014  20:43:00      -87.090      268.607      -33.859       51.179       96.441       38.115     2619.249     9300.962     1452.756        4.712        0.669      282.373       35.769        0.016      335.807        6.682      866.625
03/10/2014  20:44:00     -124.357      181.061      -18.182       78.122      112.340       44.355     6103.041    12620.166     1967.360        3.463        1.035      219.653       43.488        0.039      335.837        6.734      866.636
03/10/2014  20:45:00      -78.803      150.341      -15.325       68.984       85.075       45.358     4758.828     7237.781     2057.303        2.155        0.703      169.742       50.117        0.087      335.826        6.718      866.662
03/10/2014  20:46:00     -107.611      189.817      -20.086       64.531       73.974       49.693     4164.246     5472.106     2469.406        3.006        0.605      218.199       40.748        0.035      335.798        6.669      866.691
03/10/2014  20:47:00     -139.604      268.087      -40.733       92.211      117.170       47.977     8502.961    13728.851     2301.753        5.877        1.227      302.258       35.977        0.014      335.830        6.721      866.722
03/10/2014  20:48:00     -140.601      198.361      -35.567       97.514       90.992       55.006     9508.916     8279.531     3025.694        4.059        1.041      243.137       56.293        0.054      335.852        6.757      866.743
03/10/2014  20:49:00     -129.360      293.849      -39.289       63.991      111.599       49.543     4094.883    12454.292     2454.477        6.181        0.950      321.063       51.062        0.025      335.835        6.729      866.772
03/10/2014  20:50:00     -149.887      229.827      -41.206       70.747       84.937       41.292     5005.079     7214.292     1704.989        4.545        0.696      274.384       34.135        0.015      335.825        6.713      866.806
03/10/2014  20:51:00     -127.915      216.518      -36.692       76.786       98.703       41.329     5896.110     9742.209     1708.102        4.096        0.867      251.480       46.012        0.033      335.805        6.680      866.826
03/10/2014  20:52:00     -138.649      221.275      -26.178       75.947      111.485       61.961     5767.896    12428.993     3839.221        4.545        1.102      261.125       57.297        0.048      335.756        6.599      866.845
03/10/2014  20:53:00     -124.760      237.890      -32.669       60.289       87.227       38.129     3634.784     7608.496     1453.791        4.296        0.635      268.620       36.928        0.019      335.775        6.628      866.869
03/10/2014  20:54:00     -118.274      240.810      -29.419       60.218       81.788       44.788     3626.204     6689.336     2005.967        4.258        0.616      268.288       41.418        0.024      335.762        6.608      866.905
03/10/2014  20:55:00     -109.552      297.762      -32.287       89.161       96.928       55.015     7949.596     9395.071     3026.686        6.103        1.019      317.276       52.413        0.027      335.762        6.608      866.925
03/10/2014  20:56:00     -139.484      268.328      -34.590       81.269      119.455       51.497     6604.732    14269.536     2651.956        5.808        1.176      302.416       55.756        0.034      335.755        6.596      866.928
03/10/2014  20:57:00     -149.884      312.399      -43.634       75.777      118.112       55.474     5742.131    13950.562     3077.311        7.236        1.139      346.495       47.915        0.019      335.768        6.618      866.930
03/10/2014  20:58:00     -204.043      210.947      -45.500       80.453       96.079       59.871     6472.763     9231.226     3584.575        5.374        0.964      293.483       58.986        0.040      335.732        6.557      866.939
03/10/2014  20:59:00     -141.443      240.374      -37.483       99.311      109.099       51.655     9862.590    11902.640     2668.241        5.181        1.222      278.901       40.776        0.021      335.772        6.624      866.960
03/10/2014  21:00:00      -77.655      329.717      -35.989       73.406      127.917       49.329     5388.437    16362.733     2433.303        7.011        1.209      338.738       48.080        0.020      335.793        6.659      866.969
03/10/2014  21:01:00     -210.609      210.121      -47.188      100.719      112.460       59.745    10144.339    12647.271     3569.516        5.854        1.318      297.501       70.099        0.056      335.789        6.655      866.994
03/10/2014  21:02:00     -197.038      284.950      -46.151      106.202      113.595       62.949    11278.870    12903.760     3962.516        7.514        1.407      346.440       63.963        0.034      335.727        6.550      867.012
03/10/2014  21:03:00     -144.559      204.517      -32.343      110.746       95.294       56.865    12264.616     9080.911     3233.669        4.417        1.229      250.448       60.671        0.059      335.706        6.515      867.033
03/10/2014  21:04:00     -165.447      215.049      -39.509       94.943      104.854       52.224     9014.173    10994.382     2727.302        4.895        1.137      271.328       48.928        0.033      335.713        6.526      867.032
03/10/2014  21:05:00     -140.586      219.689      -25.643      102.558      113.917       60.096    10518.079    12977.137     3611.538        4.789        1.355      260.821       58.725        0.051      335.702        6.510      867.049
03/10/2014  21:06:00     -160.441      236.418      -22.487       94.349       89.576       54.921     8901.729     8023.913     3016.337        5.104        0.997      285.718       52.932        0.034      335.723        6.543      867.069
03/10/2014  21:07:00      -99.011      257.148      -29.233       89.169       99.589       50.462     7951.183     9917.968     2546.429        4.860        1.021      275.551       55.774        0.041      335.776        6.633      867.091
03/10/2014  21:08:00     -155.497      320.348      -45.182       92.110      138.531       60.333     8484.234    19190.975     3640.067        8.007        1.566      356.093       54.189        0.023      335.771        6.622      867.123
03/10/2014  21:09:00      -94.039      401.509      -47.642       61.355      111.855       45.825     3764.396    12511.491     2099.955        9.535        0.919      412.375       48.021        0.014      335.763        6.610      867.137
03/10/2014  21:10:00     -145.934      322.752      -40.288       83.921      125.776       68.107     7042.651    15819.606     4638.591        7.729        1.375      354.211       74.923        0.045      335.746        6.581      867.142
03/10/2014  21:11:00     -147.300      332.841      -52.419       94.576      103.047       63.277     8944.625    10618.671     4003.960        7.939        1.178      363.979       59.177        0.026      335.744        6.578      867.177
03/10/2014  21:12:00     -132.018      294.391      -26.549      114.591      100.563       57.258    13131.031    10112.977     3278.438        6.566        1.326      322.637       53.477        0.027      335.719        6.538      867.198
03/10/2014  21:13:00     -172.155      327.163      -41.394      119.998      119.996       59.951    14399.426    14399.091     3594.073        8.538        1.620      369.693       63.407        0.029      335.707        6.518      867.201
03/10/2014  21:14:00     -167.114      254.018      -38.454       77.654      130.512       58.151     6030.126    17033.364     3381.562        6.018        1.322      304.059       53.502        0.031      335.729        6.554      867.220
03/10/2014  21:15:00     -162.545      241.786      -42.272       88.266      108.410       58.003     7790.804    11752.622     3364.349        5.478        1.145      291.344       56.048        0.037      335.715        6.530      867.243
03/10/2014  21:16:00     -195.467      342.463      -64.108       87.037       86.909       62.292     7575.453     7553.197     3880.341        8.930        0.950      394.320       54.874        0.019      335.649        6.419      867.252
03/10/2014  21:17:00     -187.287      274.947      -51.409       66.825      104.709       61.537     4465.589    10963.992     3786.801        6.626        0.961      332.675       55.768        0.028      335.623        6.378      867.240
03/10/2014  21:18:00     -165.801      170.875      -43.759       72.809       79.006       48.547     5301.217     6241.960     2356.807        3.625        0.695      238.093       32.263        0.018      335.627        6.382      867.262
03/10/2014  21:19:00     -154.967      260.755      -34.705       90.891      155.832       61.046     8261.203    24283.673     3726.670        6.473        1.814      303.328       67.632        0.050      335.585        6.313      867.253
03/10/2014  21:20:00     -156.903      309.924      -47.605       75.291      101.123       50.353     5668.751    10225.843     2535.398        7.068        0.921      347.378       50.486        0.021      335.614        6.363      867.240
03/10/2014  21:21:00     -186.532      305.083      -46.313       77.831      116.063       58.487     6057.724    13470.727     3420.758        7.648        1.147      357.589       57.424        0.026      335.630        6.388      867.236
03/10/2014  21:22:00     -149.811      229.000      -49.704       74.708      103.647       49.177     5581.275    10742.734     2418.372        4.804        0.937      273.650       51.898        0.036      335.616        6.366      867.214
03/10/2014  21:23:00     -152.526      194.399      -17.460      115.251      116.605       66.421    13282.886    13596.610     4411.768        4.632        1.565      247.094       65.571        0.070      335.592        6.326      867.200
03/10/2014  21:24:00     -180.605      263.647      -40.389       84.613       81.157       60.190     7159.353     6586.517     3622.879        6.056        0.868      319.574       57.211        0.032      335.561        6.273      867.187
03/10/2014  21:25:00     -170.727      252.845      -37.113      100.861      111.391       72.612    10172.904    12407.938     5272.560        6.115        1.393      305.087       74.892        0.060      335.541        6.241      867.184
03/10/2014  21:26:00     -176.045      307.876      -48.427       60.182       95.583       48.519     3621.895     9136.175     2354.058        7.162        0.756      354.654       37.596        0.011      335.517        6.199      867.187
03/10/2014  21:27:00     -177.243      229.325      -36.800       80.354      105.229       58.803     6456.732    11073.104     3457.810        5.317        1.049      289.836       54.219        0.035      335.536        6.232      867.190
03/10/2014  21:28:00     -205.030      278.748      -51.615       98.268      107.405       62.597     9656.696    11535.796     3918.353        7.375        1.256      346.031       59.464        0.030      335.521        6.206      867.197
03/10/2014  21:29:00     -205.946      242.489      -37.643       85.576      121.730       60.150     7323.196    14818.289     3618.063        6.419        1.288      318.142       65.917        0.043      335.506        6.182      867.207
03/10/2014  21:30:00     -230.200      301.682      -60.531      106.750      157.917       69.927    11395.506    24937.689     4889.720        9.444        2.061      379.478       75.420        0.040      335.498        6.168      867.205
03/10/2014  21:31:00     -241.270      261.591      -53.217      108.720       83.759       57.267    11820.041     7015.565     3279.461        7.579        1.106      355.867       53.381        0.023      335.516        6.199      867.223
03/10/2014  21:32:00     -134.750      206.067      -32.444       75.761      107.134       43.901     5739.756    11477.721     1927.283        4.041        0.957      246.214       47.902        0.038      335.502        6.176      867.223
03/10/2014  21:33:00     -130.023      206.026      -27.833       70.906       95.745       51.802     5027.726     9167.043     2683.396        3.850        0.844      243.624       44.126        0.033      335.488        6.152      867.233
03/10/2014  21:34:00     -131.246      185.582      -30.490       83.462       96.401       43.466     6965.892     9293.057     1889.329        3.537        0.907      227.302       43.263        0.036      335.500        6.174      867.246
03/10/2014  21:35:00     -192.802      254.090      -57.821       80.737      128.224       58.629     6518.503    16441.431     3437.403        6.573        1.320      318.958       62.475        0.038      335.485        6.146      867.244
03/10/2014  21:36:00     -147.894      255.045      -44.352       91.739      106.963       50.883     8416.058    11441.087     2589.096        5.566        1.122      294.823       60.499        0.042      335.486        6.148      867.253
03/10/2014  21:37:00     -148.958      246.774      -27.942      112.059      141.668       63.319    12557.248    20069.880     4009.239        6.024        1.832      288.246       69.283        0.058      335.469        6.120      867.251
03/10/2014  21:38:00     -109.004      177.480      -28.666       55.456       78.246       39.315     3075.422     6122.400     1545.650        2.747        0.537      208.281       32.950        0.025      335.482        6.142      867.251
03/10/2014  21:39:00     -108.526      244.866      -18.647       64.485       68.287       42.929     4158.304     4663.167     1842.865        4.137        0.533      267.838       33.153        0.015      335.465        6.113      867.273
03/10/2014  21:40:00     -186.668      255.510      -51.574      108.494      121.854       56.272    11770.952    14848.297     3166.581        6.628        1.489      316.434       64.709        0.042      335.473        6.128      867.293
03/10/2014  21:41:00     -195.374      251.989      -52.084       94.931      108.766       58.721     9011.914    11829.938     3448.136        6.433        1.214      318.856       56.973        0.032      335.477        6.134      867.301
03/10/2014  21:42:00     -134.189      184.026      -39.899      105.807       79.830       55.414    11195.071     6372.902     3070.689        3.705        1.032      227.755       66.030        0.084      335.478        6.136      867.310
03/10/2014  21:43:00      -75.651      178.207      -16.568       67.810      118.197       60.510     4598.223    13970.539     3661.405        2.999        1.112      193.600       67.328        0.121      335.493        6.162      867.323
03/10/2014  21:44:00      -88.529      138.895      -11.223       70.095       99.928       35.889     4913.310     9985.516     1288.032        2.172        0.809      164.709       43.191        0.069      335.478        6.135      867.319
03/10/2014  21:45:00     -109.380      113.417      -20.903       70.982       93.157       44.289     5038.425     8678.200     1961.515        2.047        0.784      157.567       41.217        0.068      335.461        6.108      867.333
03/10/2014  21:46:00      -87.524      162.434      -24.646       77.626       78.976       47.503     6025.868     6237.200     2256.555        2.458        0.726      184.514       43.459        0.055      335.453        6.095      867.350
03/10/2014  21:47:00     -111.124      164.097      -32.733       77.323       87.391       52.168     5978.897     7637.250     2721.511        2.834        0.817      198.183       58.028        0.086      335.512        6.193      867.373
03/10/2014  21:48:00     -120.823      240.247      -40.877      101.601      128.192       53.469    10322.807    16433.258     2858.982        5.180        1.481      268.918       63.705        0.056      335.515        6.198      867.390
03/10/2014  21:49:00     -140.646      218.522      -42.732      106.836       81.923       45.911    11413.896     6711.392     2107.864        4.479        1.012      259.871       50.884        0.038      335.533        6.227      867.391
03/10/2014  21:50:00      -62.723      140.659      -10.794       72.109       81.749       40.601     5199.694     6682.829     1648.406        1.868        0.677      154.011       36.029        0.055      335.542        6.244      867.409
03/10/2014  21:51:00      -66.571      141.598      -18.101       86.224      136.051       45.948     7434.571    18509.778     2111.262        2.643        1.403      156.467       49.400        0.100      335.522        6.212      867.418
03/10/2014  21:52:00      -76.066      221.252      -19.925       53.884      152.500       40.725     2903.535    23256.294     1658.486        4.147        1.391      233.963       52.577        0.051      335.467        6.118      867.427
03/10/2014  21:53:00      -98.384      244.670      -27.927       61.460       79.639       44.146     3777.306     6342.340     1948.836        4.119        0.603      263.710       38.885        0.022      335.461        6.108      867.432
03/10/2014  21:54:00     -111.706      285.387      -40.796       74.942      140.841       47.349     5616.240    19836.207     2241.956        6.164        1.385      306.470       36.165        0.014      335.476        6.132      867.428
03/10/2014  21:55:00      -49.622      263.443      -31.378       64.863       81.791       48.562     4207.164     6689.839     2358.307        4.305        0.663      268.076       35.995        0.018      335.463        6.108      867.416
03/10/2014  21:56:00      -94.466      143.559      -13.921       79.322       86.258       46.132     6291.960     7440.476     2128.143        2.279        0.793      171.852       40.522        0.056      335.477        6.135      867.427
03/10/2014  21:57:00      -78.123      222.782      -25.904       64.922       76.930       45.981     4214.842     5918.206     2114.279        3.432        0.612      236.083       35.458        0.023      335.506        6.184      867.421
03/10/2014  21:58:00      -93.889      129.922       -2.837      101.847      101.255       55.756    10372.872    10252.516     3108.779        2.471        1.187      160.296       61.066        0.145      335.490        6.156      867.437
03/10/2014  21:59:00      -68.719      199.974       -8.214       67.941       93.294       54.900     4615.969     8703.793     3013.999        3.055        0.817      211.452       52.217        0.061      335.499        6.170      867.435
03/10/2014  22:00:00      -85.366      124.655      -17.199       60.505       93.817       45.367     3660.878     8801.537     2058.151        1.882        0.726      151.084       51.115        0.114      335.532        6.227      867.441
03/10/2014  22:01:00      -86.575      108.076      -17.011       47.983       52.257       38.299     2302.395     2730.841     1466.838        1.298        0.325      138.476       30.805        0.049      335.458        6.104      867.453
03/10/2014  22:02:00       -1.930      136.277      -17.234       43.395       45.808       27.578     1883.097     2098.409      760.560        1.181        0.237      136.291       21.790        0.026      335.457        6.103      867.460
03/10/2014  22:03:00      -61.044      128.894      -25.338       72.551       66.428       36.843     5263.647     4412.662     1357.434        1.601        0.552      142.618       34.159        0.057      335.456        6.100      867.474
03/10/2014  22:04:00       -2.174      131.199       -1.437       56.366       88.318       42.594     3177.154     7800.022     1814.255        1.500        0.640      131.217       51.369        0.153      335.394        5.996      867.485
03/10/2014  22:05:00       -5.389      127.353      -13.514       42.314       60.936       32.234     1790.468     3713.207     1039.010        1.149        0.327      127.467       28.079        0.049      335.394        5.999      867.491
03/10/2014  22:06:00       45.114       61.525       16.612       62.867       56.224       44.713     3952.320     3161.115     1999.259        0.760        0.456       76.293       37.527        0.242      335.322        5.877      867.483
03/10/2014  22:07:00       13.368      116.247       -0.868       55.106       62.656       36.644     3036.686     3925.767     1342.782        1.100        0.415      117.013       36.445        0.097      335.345        5.914      867.467
03/10/2014  22:08:00       -2.532       78.769        0.035       58.680       43.648       33.440     3443.366     1905.105     1118.213        0.634        0.323       78.809       17.279        0.048      335.395        6.001      867.467
03/10/2014  22:09:00       36.256       67.148       -4.373       38.605       53.721       27.489     1490.346     2885.941      755.624        0.549        0.257       76.311       27.258        0.128      335.352        5.928      867.477
03/10/2014  22:10:00      -19.766       59.769        4.399       65.821       44.947       33.161     4332.423     2020.234     1099.668        0.572        0.373       62.953       40.535        0.415      335.327        5.886      867.497
03/10/2014  22:11:00      -63.915      117.173      -17.924       36.945       46.700       27.618     1364.903     2180.897      762.774        1.122        0.215      133.472       25.387        0.036      335.369        5.956      867.512
03/10/2014  22:12:00      -19.055       50.035        0.044       43.446       22.042       26.142     1887.513      485.856      683.429        0.296        0.153       53.540       26.793        0.250      335.362        5.943      867.526
03/10/2014  22:13:00       13.399       17.301       10.732       40.596       31.950       24.550     1648.022     1020.789      602.701        0.193        0.164       21.883       29.006        1.757      335.400        6.009      867.527
03/10/2014  22:14:00       43.017       42.297       30.035       43.310       24.828       27.854     1875.734      616.449      775.843        0.390        0.163       60.328       29.090        0.233      335.346        5.918      867.536
03/10/2014  22:15:00       10.242       44.627       -2.157       27.996       39.496       29.044      783.758     1559.950      843.529        0.264        0.159       45.787       27.890        0.371      335.312        5.861      867.560
03/10/2014  22:16:00      -28.464        5.443       -4.038       39.368       32.227       18.030     1549.849     1038.569      325.086        0.188        0.146       28.980       10.098        0.121      335.350        5.925      867.571
03/10/2014  22:17:00      -12.928       -0.085       -9.065       17.261       26.899       12.645      297.936      723.539      159.889        0.072        0.059       12.928       10.859        0.706      335.380        5.974      867.586
03/10/2014  22:18:00      -14.437       -5.793       -5.736       21.232       17.784       16.936      450.783      316.285      286.818        0.066        0.053       15.555       11.258        0.524      335.340        5.908      867.591
03/10/2014  22:19:00       13.077       19.710        0.960       18.230       15.221        8.488      332.322      231.694       72.044        0.060        0.032       23.654        2.671        0.013      335.280        5.807      867.604
03/10/2014  22:20:00        0.527      -18.065      -17.920       14.944       10.485        8.349      223.310      109.940       69.711        0.053        0.020       18.072        7.424        0.169      335.320        5.874      867.606
03/10/2014  22:21:00        7.806      -51.432      -13.097       16.450       27.456       15.436      270.608      753.839      238.264        0.207        0.063       52.021       10.661        0.042      335.483        6.146      867.592
03/10/2014  22:22:00      -15.120      -36.267       -7.664       36.693       27.687       19.754     1346.401      766.572      390.217        0.205        0.125       39.293       19.018        0.234      335.436        6.068      867.574
03/10/2014  22:23:00        5.260      -46.772        6.542       32.609       28.584       20.241     1063.379      817.064      409.683        0.227        0.115       47.067       13.787        0.086      335.434        6.066      867.579
03/10/2014  22:24:00      -65.596      -29.509       -1.290       39.572       22.881       19.313     1565.963      523.532      372.983        0.382        0.123       71.928       20.453        0.081      335.264        5.782      867.598
03/10/2014  22:25:00      -76.621      -41.582       10.191       45.562       26.317       16.848     2075.881      692.562      283.841        0.538        0.153       87.177       13.904        0.025      335.259        5.773      867.632
03/10/2014  22:26:00      -41.466      -43.523       -1.802       49.010       25.319       19.028     2401.936      641.051      362.077        0.351        0.170       60.114       26.252        0.191      335.364        5.948      867.663
03/10/2014  22:27:00      -57.349      -35.642       -1.984       28.127       22.778       14.110      791.112      518.843      199.097        0.304        0.075       67.523       10.767        0.025      335.227        5.719      867.676
03/10/2014  22:28:00      -11.893      -19.014        5.349       41.889       23.327       17.975     1754.694      544.137      323.112        0.158        0.131       22.427       16.732        0.557      335.284        5.813      867.676
03/10/2014  22:29:00      -11.578        7.189       26.130       14.962       19.893       13.343      223.861      395.718      178.030        0.083        0.040       13.629        8.485        0.388      335.267        5.786      867.699
03/10/2014  22:30:00       10.335       11.698       30.466       29.257       20.444       16.883      855.960      417.953      285.028        0.137        0.078       15.610       16.525        1.121      335.241        5.744      867.720
03/10/2014  22:31:00       -5.482       -7.902        5.602       12.010       16.777        9.997      144.229      281.479       99.941        0.032        0.026        9.617        9.467        0.969      335.313        5.861      867.734
03/10/2014  22:32:00      -23.671       13.768       15.737       29.194       17.239       22.744      852.315      297.189      517.277        0.133        0.083       27.384       21.117        0.595      335.268        5.787      867.743
03/10/2014  22:33:00      -32.632       11.679       -2.271       18.260       19.034       19.556      333.445      362.299      382.429        0.114        0.054       34.659       12.587        0.132      335.266        5.782      867.756
03/10/2014  22:34:00        1.055        2.108        9.926       12.512       21.193       13.009      156.539      449.159      169.228        0.044        0.039        2.357        3.991        2.867      335.250        5.757      867.759
03/10/2014  22:35:00      -10.934       -9.125       25.081       17.262       32.437       21.646      297.961     1052.141      468.559        0.132        0.091       14.241       21.245        2.225      335.245        5.751      867.759
03/10/2014  22:36:00       -9.247       10.746       36.536       16.144       16.434       16.059      260.637      270.078      257.885        0.116        0.039       14.177       13.141        0.859      335.129        5.560      867.778
03/10/2014  22:37:00        3.664       -1.561       28.325       18.243       28.818       13.230      332.812      830.458      175.032        0.108        0.067        3.982       10.965        7.580      335.177        5.637      867.797
03/10/2014  22:38:00       32.752       18.328        9.953       17.847       10.005       13.444      318.514      100.099      180.752        0.105        0.030       37.531        9.354        0.062      335.003        5.347      867.809
03/10/2014  22:39:00       31.062       13.420       22.811       21.481       26.489       18.934      461.426      701.678      358.501        0.159        0.076       33.837       12.532        0.137      335.141        5.577      867.809
03/10/2014  22:40:00       56.031       30.887       26.029       31.310       26.980       20.362      980.324      727.924      414.616        0.345        0.106       63.980       14.818        0.054      335.175        5.633      867.816
03/10/2014  22:41:00       72.804       36.788       17.798       33.422       20.794       26.234     1117.008      432.403      688.207        0.460        0.112       81.571       12.912        0.025      335.191        5.660      867.818
03/10/2014  22:42:00       91.099       51.553       17.493       19.701       15.349       19.264      388.144      235.583      371.084        0.613        0.050      104.675       12.850        0.015      335.141        5.580      867.815
03/10/2014  22:43:00       84.171       38.323       12.420       23.879       22.660       24.865      570.208      513.458      618.285        0.520        0.085       92.484       17.956        0.038      335.166        5.620      867.812
03/10/2014  22:44:00       75.212       31.797       13.075       22.783       14.636       19.480      519.074      214.221      379.480        0.398        0.056       81.658       10.965        0.018      335.113        5.533      867.810
03/10/2014  22:45:00       37.554       30.050       18.678       31.709       22.186       21.524     1005.459      492.230      463.301        0.231        0.098       48.097       11.611        0.058      335.089        5.492      867.795
03/10/2014  22:46:00        3.279        2.843       22.817       14.183       24.718       13.057      201.169      610.974      170.492        0.076        0.049        4.340       11.148        6.599      335.178        5.639      867.791
03/10/2014  22:47:00       32.229       28.622        8.605       23.545       16.769       11.424      554.344      281.195      130.511        0.145        0.048       43.103        9.145        0.045      335.107        5.522      867.785
03/10/2014  22:48:00       69.183       46.827        6.239       17.519       12.698       12.175      306.914      161.241      148.220        0.382        0.031       83.540        5.203        0.004      335.045        5.422      867.776
03/10/2014  22:49:00       21.235       21.342       -1.372       28.822       19.857       13.172      830.686      394.286      173.489        0.115        0.070       30.106       11.451        0.145      334.960        5.278      867.794
03/10/2014  22:50:00      -26.432       24.941       -7.837       29.598       23.521       13.688      876.016      553.242      187.369        0.150        0.081       36.341       17.137        0.222      334.949        5.258      867.808
03/10/2014  22:51:00      -44.785       -3.325        0.620       30.018       22.190       15.937      901.075      492.375      253.998        0.183        0.082       44.908       17.266        0.148      334.981        5.313      867.830
03/10/2014  22:52:00     -100.604        7.141       -6.550       28.549       22.412       18.249      815.024      502.278      333.019        0.593        0.083      100.857       15.979        0.025      334.935        5.235      867.851
03/10/2014  22:53:00     -102.787      -16.321       -6.740       15.828       22.902       12.158      250.518      524.485      147.827        0.590        0.046      104.075       10.368        0.010      335.013        5.367      867.869
03/10/2014  22:54:00      -50.619      -39.041        7.577       33.946       16.389       15.870     1152.301      268.588      251.849        0.291        0.084       63.925       18.160        0.081      335.106        5.519      867.878
03/10/2014  22:55:00      -67.839      -36.647        4.824       36.983       20.426       15.354     1367.757      417.223      235.749        0.399        0.101       77.105       15.688        0.041      335.187        5.654      867.892
03/10/2014  22:56:00      -15.736      -49.060        3.917       34.086       23.898       22.553     1161.846      571.125      508.647        0.246        0.112       51.522       11.875        0.053      335.206        5.684      867.919
03/10/2014  22:57:00       -0.844       23.654        7.106       23.227       26.501       17.050      539.478      702.304      290.699        0.107        0.077       23.669       14.267        0.363      334.943        5.249      867.940
03/10/2014  22:58:00        2.157       15.755      -10.298       18.020       15.247       11.813      324.731      232.457      139.549        0.053        0.035       15.901        9.256        0.339      334.772        4.966      867.952
03/10/2014  22:59:00      -51.370       12.668      -10.717       33.478       14.332       12.216     1120.774      205.402      149.222        0.219        0.074       52.909       11.393        0.046      335.014        5.367      867.946
03/10/2014  23:00:00      -25.301       28.403       -4.494       22.422       24.232       11.642      502.737      587.207      135.532        0.135        0.061       38.038       10.790        0.080      334.954        5.268      867.953
03/10/2014  23:01:00      -41.395       32.519       -7.359       37.225       24.121       10.710     1385.734      581.828      114.703        0.245        0.104       52.640       10.443        0.039      334.890        5.161      867.958
03/10/2014  23:02:00      -66.045       38.028      -13.302       10.344       22.300        8.959      106.992      497.269       80.261        0.333        0.034       76.211        6.610        0.008      334.920        5.212      867.950
03/10/2014  23:03:00      -88.876       27.228       -7.517       30.412       15.263       14.458      924.877      232.956      209.029        0.503        0.068       92.953        7.251        0.006      335.055        5.435      867.936
03/10/2014  23:04:00      -92.052        8.186      -13.345       48.118       29.543       22.648     2315.374      872.783      512.942        0.621        0.185       92.415       24.505        0.070      334.963        5.283      867.908
03/10/2014  23:05:00      -84.082      -54.605       -7.298       38.296       45.519       21.646     1466.616     2071.954      468.558        0.706        0.200      100.257       18.669        0.035      335.003        5.348      867.878
03/10/2014  23:06:00      -39.244      -43.955        9.580       48.527       36.119       27.251     2354.908     1304.609      742.630        0.398        0.220       58.925       24.166        0.168      334.975        5.302      867.866
03/10/2014  23:07:00      -63.563      -19.268       -1.476       46.311       30.503       18.708     2144.686      930.434      349.986        0.392        0.171       66.419       14.869        0.050      334.943        5.250      867.888
03/10/2014  23:08:00     -104.026       25.400      -13.824       49.358       24.837       23.126     2436.222      616.873      534.815        0.762        0.179      107.082       19.234        0.032      334.813        5.032      867.918
03/10/2014  23:09:00     -134.595        6.006       -9.903       62.629       41.145       26.225     3922.393     1692.920      687.762        1.228        0.315      134.728       27.053        0.040      334.712        4.864      867.925
03/10/2014  23:10:00      -74.395       20.676       -7.176       44.451       26.478       18.996     1975.861      701.078      360.859        0.453        0.152       77.214       18.514        0.057      334.686        4.823      867.935
03/10/2014  23:11:00      -82.475       48.557      -13.971       23.716       31.807       15.921      562.445     1011.705      253.476        0.559        0.091       95.707       12.258        0.016      334.763        4.951      867.940
03/10/2014  23:12:00      -81.831       28.728       -6.485       27.459       45.539       18.409      753.971     2073.832      338.877        0.536        0.158       86.727       17.232        0.039      334.803        5.017      867.940
03/10/2014  23:13:00      -76.771       -2.563       -2.653       34.545       43.365       19.185     1193.343     1880.548      368.067        0.467        0.172       76.814       13.718        0.032      334.696        4.838      867.948
03/10/2014  23:14:00      -66.909        4.899       -4.763       47.846       38.392       22.538     2289.222     1473.965      507.969        0.440        0.214       67.088        8.486        0.016      334.673        4.801      867.967
03/10/2014  23:15:00      -49.240       58.110      -12.192       23.112       35.710       21.662      534.146     1275.199      469.236        0.411        0.114       76.167       21.347        0.079      334.760        4.944      867.997
03/10/2014  23:16:00      -19.126       47.370       -2.827       48.924       55.815       22.607     2393.579     3115.326      511.080        0.432        0.301       51.085       20.696        0.164      334.828        5.059      868.016
03/10/2014  23:17:00      -39.232       84.070      -11.140       33.871       43.871       25.981     1147.227     1924.682      675.026        0.624        0.187       92.773       19.376        0.044      334.862        5.114      868.039
03/10/2014  23:18:00      -16.588       82.815       -8.430       50.453       31.262       20.679     2545.462      977.332      427.639        0.558        0.198       84.460       16.600        0.039      334.761        4.946      868.057
03/10/2014  23:19:00        2.644       39.477      -13.805       25.825       15.844       12.940      666.929      251.023      167.437        0.142        0.054       39.565       10.621        0.072      334.772        4.965      868.067
03/10/2014  23:20:00       -2.993      112.092      -15.125       22.906       40.964       15.193      524.687     1678.088      230.821        0.762        0.122      112.132       19.764        0.031      334.730        4.895      868.081
03/10/2014  23:21:00      -36.503      103.370       -9.858       52.110       54.902       23.737     2715.436     3014.254      563.461        0.920        0.315      109.626       14.888        0.018      334.790        4.994      868.075
03/10/2014  23:22:00     -107.193       79.737      -26.675       35.376       30.040       17.527     1251.444      902.372      307.211        1.051        0.123      133.597       15.037        0.013      334.826        5.054      868.067
03/10/2014  23:23:00     -107.442       71.048      -22.193       27.500       27.037       19.799      756.242      731.017      392.009        0.948        0.094      128.809       14.985        0.014      334.743        4.916      868.056
03/10/2014  23:24:00     -105.750       99.222      -30.990       42.634       38.555       24.204     1817.619     1486.454      585.825        1.294        0.194      145.011       20.391        0.020      334.795        5.003      868.040
03/10/2014  23:25:00     -128.630       69.260      -22.112       40.844       34.025       23.003     1668.222     1157.683      529.117        1.259        0.168      146.091       15.410        0.011      334.777        4.974      868.033
03/10/2014  23:26:00     -138.717       77.833      -27.389       48.392       46.303       31.027     2341.814     2143.991      962.695        1.575        0.272      159.061       24.168        0.023      334.778        4.974      868.031
03/10/2014  23:27:00     -109.965      118.114      -19.244       54.537       65.275       37.836     2974.323     4260.814     1431.568        1.754        0.433      161.379       35.347        0.048      334.690        4.827      868.027
03/10/2014  23:28:00     -129.868       66.603      -17.447       43.880       29.062       28.260     1925.426      844.610      798.630        1.259        0.178      145.951       18.758        0.017      334.679        4.810      868.028
03/10/2014  23:29:00     -117.000       91.669      -20.543       52.645       71.962       34.622     2771.476     5178.495     1198.706        1.583        0.457      148.635       40.434        0.074      334.716        4.870      868.035
03/10/2014  23:30:00      -87.953       51.565      -17.979       45.898       34.300       26.467     2106.630     1176.511      700.528        0.735        0.199      101.954       28.393        0.078      334.664        4.786      868.048
03/10/2014  23:31:00      -76.086       21.700        3.418       32.461       41.999       22.892     1053.706     1763.922      524.026        0.481        0.167       79.120       17.060        0.046      334.692        4.831      868.052
03/10/2014  23:32:00      -61.579        1.096       -0.033       34.871       33.386       23.375     1215.993     1114.609      546.382        0.333        0.144       61.589       22.839        0.138      334.672        4.800      868.068
03/10/2014  23:33:00     -100.172       92.336      -34.024       41.384       52.546       23.654     1712.660     2761.055      559.503        1.237        0.252      136.236       32.574        0.057      334.667        4.789      868.070
03/10/2014  23:34:00      -70.243       87.397      -12.276       32.201       40.029       21.274     1036.896     1602.353      452.599        0.791        0.155      112.127       16.058        0.021      334.581        4.646      868.084
03/10/2014  23:35:00      -64.883       40.272      -13.308       32.090       26.776       17.141     1029.765      716.949      293.820        0.402        0.102       76.365       12.596        0.027      334.633        4.735      868.098
03/10/2014  23:36:00      -50.541       81.066      -13.191       30.383       70.633       34.400      923.137     4989.062     1183.326        0.820        0.355       95.530       21.161        0.049      334.640        4.746      868.118
03/10/2014  23:37:00      -33.941       27.225      -15.715       25.108       22.752       17.891      630.415      517.651      320.070        0.180        0.073       43.511       14.387        0.109      334.640        4.744      868.139
03/10/2014  23:38:00      -55.485      -11.871       -8.914       32.109       28.134       13.367     1030.969      791.544      178.666        0.265        0.100       56.740       10.977        0.037      334.659        4.778      868.141
03/10/2014  23:39:00      -50.960       -6.280        5.548       48.892       32.964       17.516     2390.391     1086.635      306.812        0.322        0.189       51.345       24.059        0.220      334.597        4.675      868.144
03/10/2014  23:40:00      -84.961       -3.156      -13.312       46.998       32.441       21.558     2208.765     1052.442      464.733        0.556        0.186       85.020       20.728        0.059      334.581        4.647      868.146
03/10/2014  23:41:00      -98.241       14.095       -9.002       21.760       23.210       16.159      473.504      538.726      261.127        0.560        0.064       99.247        7.141        0.005      334.576        4.640      868.154
03/10/2014  23:42:00      -97.970        4.635      -14.166       30.289       26.952       13.602      917.424      726.434      185.013        0.582        0.091       98.080       13.147        0.018      334.440        4.416      868.150
03/10/2014  23:43:00      -80.855       21.495       -7.298       34.180       30.369       15.206     1168.243      922.249      231.216        0.469        0.116       83.663       15.583        0.035      334.433        4.403      868.154
03/10/2014  23:44:00      -91.460      107.968      -31.788       31.781       41.091       22.662     1010.047     1688.466      513.554        1.212        0.161      141.499       17.050        0.015      334.422        4.386      868.139
03/10/2014  23:45:00      -84.365       41.066      -20.879       29.719       29.571       22.759      883.215      874.471      517.969        0.576        0.114       93.829       10.085        0.012      334.429        4.397      868.130
03/10/2014  23:46:00      -85.614       82.246      -18.346       36.268       33.600       24.203     1315.366     1128.975      585.766        0.873        0.152      118.719       20.623        0.030      334.362        4.285      868.129
03/10/2014  23:47:00     -107.603      104.219      -32.066       38.494       53.506       24.563     1481.796     2862.872      603.339        1.421        0.247      149.800       30.716        0.042      334.339        4.245      868.144
03/10/2014  23:48:00     -137.505      129.291      -32.437       47.309       45.839       27.782     2238.127     2101.250      771.852        2.089        0.256      188.743       24.973        0.018      334.351        4.265      868.155
03/10/2014  23:49:00      -99.664       88.886      -17.923       39.901       33.571       24.665     1592.116     1127.041      608.383        1.074        0.166      133.543       24.214        0.033      334.331        4.233      868.166
03/10/2014  23:50:00     -100.214      102.834      -22.153       49.408       50.132       29.076     2441.125     2513.217      845.408        1.345        0.290      143.589       27.510        0.037      334.253        4.103      868.172
03/10/2014  23:51:00     -135.740      184.924      -34.974       55.311       70.007       39.783     3059.361     4901.044     1582.686        3.169        0.477      229.395       35.794        0.024      334.293        4.165      868.173
03/10/2014  23:52:00     -177.513      176.730      -48.253       34.235       62.902       29.326     1172.019     3956.690      860.001        3.553        0.299      250.488       28.771        0.013      334.338        4.240      868.160
03/10/2014  23:53:00     -157.437      169.049      -45.547       48.477       39.031       26.027     2350.004     1523.427      677.417        2.999        0.228      231.006       24.386        0.011      334.324        4.217      868.145
03/10/2014  23:54:00     -108.564      102.420      -18.043       49.057       39.727       29.260     2406.544     1578.207      856.135        1.372        0.242      149.251       20.452        0.019      334.334        4.239      868.127
03/10/2014  23:55:00     -113.275       94.522      -29.894       35.858       42.867       23.135     1285.783     1837.617      535.215        1.316        0.183      147.532       24.877        0.028      334.326        4.225      868.123
03/10/2014  23:56:00     -115.439      123.025      -39.304       39.974       45.245       25.901     1597.922     2047.094      670.877        1.716        0.216      168.705       24.068        0.020      334.354        4.270      868.118
03/10/2014  23:57:00      -72.280       86.990      -21.051       27.575       45.944       23.459      760.370     2110.851      550.303        0.833        0.171      113.101       19.388        0.029      334.309        4.198      868.112
03/10/2014  23:58:00      -88.177       76.639      -21.170       23.638       34.208       20.583      558.755     1170.186      423.659        0.812        0.108      116.828       10.383        0.008      334.332        4.235      868.106
03/10/2014  23:59:00      -66.898       94.384      -19.650       34.964       40.687       21.256     1222.502     1655.466      451.825        0.855        0.166      115.688       21.077        0.033      334.384        4.322      868.099
